     2              OBSERVATION DATA    GPS                 RINEX VERSION / TYPE
ASHTORIN MIT 09                                             PGM / RUN BY / DATE
                                                            COMMENT
Original Marker Name: L589                                  COMMENT
Campaign Name: STRC/NBC 1997                                COMMENT
4-Character Station Name: L589                              COMMENT
6-Character Antenna Code: DMRCHT                            COMMENT
Vertical Measurement Point: BCR                             COMMENT
Vertical Offset to Rinex Ref. Point: 0.0349                 COMMENT
Radial Measurement Point: ECF                               COMMENT
Radial Offset to Rinex Ref. Point: 0.1896                   COMMENT
Antenna Height from Field Measurement: 1.2930 m             COMMENT
Additional Antenna Identification Info.:                    COMMENT
Turborogue and Ashtech Choke Ring                           COMMENT
Original XYZ: 0.0000 0.0000 0.0000                          COMMENT
New XYZ position is based on association with SCEC monument COMMENT
E1C8Y1T1+0011. Position of that monument is believed to be  COMMENT
valid to within 1 m horizontally; vertical accuracy         COMMENT
should be no worse than 3-times this value.                 COMMENT
                                                            COMMENT
Revised Rinex header created by UCSD GPS archive for        COMMENT
GSAC on 10-Apr-1999 (1999:100) 07:31:35 GMT                 COMMENT
For assistance contact dagnew@ucsd.edu or hjohnson@ucsd.edu COMMENT
                                                            COMMENT
BML589 1967                                                 MARKER NAME
                                                            MARKER NUMBER
RER MASS INST. OF TECHNOLOGY                                OBSERVER / AGENCY
391 ASHTECH Z12-XII3 1E951D0                                REC # / TYPE / VERS
733 DORNE-MARGOL. TYPE T                                    ANT # / TYPE
 -2328467.0000 -4825011.0000  3449366.0000                  APPROX POSITION XYZ
        1.2441        0.0000        0.0000                  ANTENNA: DELTA H/E/N
     1     1     0                                          WAVELENGTH FACT L1/2
     7    L1    L2    C1    P1    P2    D1    D2            # / TYPES OF OBSERV
    30                                                      INTERVAL
  1997     3     7     0     0   30.000000                  TIME OF FIRST OBS
  1997     3     7    18     0   60.000000                  TIME OF LAST OBS
     0                                                      # OF SATELLITES
                                                            END OF HEADER
 97  3  7  0  0 30.0000000  0  7  2 24  4 16  7  9  5                0.000000000
   7841135.597 9   6125878.68245  24107749.645    24107748.7024   24107756.5084
        -0.000          -0.000
 -29784752.530 9 -23187649.10649  20960646.273    20960645.8374   20960652.2454
        -0.000          -0.000
 -17399500.666 9 -13535272.87449  20811786.712    20811786.5804   20811791.7534
        -0.000          -0.000
  -5834277.851 9  -4214755.26645  24801008.894    24801008.1494   24801015.0914
        -0.000          -0.000
   8061191.584 9   6282089.40846  23078960.301    23078959.3794   23078965.6534
        -0.000          -0.000
 -19311366.082 9 -15027409.44248  21502804.894    21502804.4384   21502810.0664
        -0.000          -0.000
 -19843152.363 9 -15199098.62747  22561231.791    22561230.9754   22561236.8594
        -0.000          -0.000
 97  3  7  0  1  0.0000000  0  7  2 24  4 16  7  9  5                0.000659103
   7906734.128 9   6176994.36745  24120232.724    24120231.7114   24120239.5064
        -0.000          -0.000
 -29853297.748 9 -23241060.93749  20947602.532    20947602.1074   20947608.5104
        -0.000          -0.000
 -17390904.874 9 -13528574.84249  20813422.441    20813422.3184   20813427.4684
        -0.000          -0.000
  -5852969.418 8  -4229320.09445  24797452.067    24797451.2014   24797458.0604
        -0.000          -0.000
   8107772.112 9   6318385.93446  23087824.317    23087823.3924   23087829.6614
        -0.000          -0.000
 -19318117.323 9 -15032670.14848  21501520.226    21501519.7684   21501525.3664
        -0.000          -0.000
 -19941208.684 9 -15275506.11547  22542572.253    22542571.4424   22542577.3244
        -0.000          -0.000
 97  3  7  0  1 30.0000000  0  7  2 24  4 16  7  9  5                0.000647174
   7972571.132 9   6228295.87645  24132761.096    24132760.0484   24132767.7524
        -0.000          -0.000
 -29921365.184 9 -23294100.47349  20934649.696    20934649.2944   20934655.6684
        -0.000          -0.000
 -17381792.871 9 -13521474.57149  20815156.412    20815156.2874   20815161.4524
        -0.000          -0.000
  -5871180.326 9  -4243510.38345  24793986.624    24793985.7114   24793992.5784
        -0.000          -0.000
   8154357.772 9   6354686.43346  23096689.291    23096688.3154   23096694.5894
        -0.000          -0.000
 -19324324.440 9 -15037506.86648  21500339.064    21500338.5754   21500344.2044
        -0.000          -0.000
 -20039140.845 9 -15351816.86447  22523936.377    22523935.5644   22523941.4114
        -0.000          -0.000
 97  3  7  0  2  0.0000000  0  7  2 24  4 16  7  9  5                0.000635262
   8038650.510 8   6279786.25945  24145335.475    24145334.5734   24145342.2244
        -0.000          -0.000
 -29988952.714 9 -23346766.05149  20921788.187    20921787.7784   20921794.1664
        -0.000          -0.000
 -17372162.266 9 -13513970.19249  20816989.055    20816988.9284   20816994.0724
        -0.000          -0.000
  -5888905.160 8  -4257321.92245  24790613.600    24790612.6964   24790619.6614
        -0.000          -0.000
   8200945.941 9   6390988.90146  23105554.771    23105553.7484   23105560.0574
        -0.000          -0.000
 -19329985.402 9 -15041918.00848  21499261.784    21499261.3214   21499266.9644
        -0.000          -0.000
 -20136949.433 9 -15428031.31447  22505324.034    22505323.2194   22505329.0394
        -0.000          -0.000
 97  3  7  0  2 30.0000000  0  7  2 24  4 16  7  9  5                0.000623361
   8104971.975 8   6331465.28145  24157956.025    24157955.1564   24157963.0194
        -0.000          -0.000
 -30056059.172 9 -23399056.77249  20909018.254    20909017.8384   20909024.2264
        -0.000          -0.000
 -17362004.734 9 -13506055.21949  20818921.955    20818921.8304   20818926.9564
        -0.000          -0.000
  -5906143.086 9  -4270754.03145  24787333.150    24787332.2474   24787339.4234
        -0.000          -0.000
   8247549.814 9   6427303.59146  23114423.215    23114422.1894   23114428.4824
        -0.000          -0.000
 -19335098.949 9 -15045902.59248  21498288.751    21498288.2854   21498293.9384
        -0.000          -0.000
 -20234637.905 9 -15504152.18247  22486734.533    22486733.7294   22486739.4874
        -0.000          -0.000
 97  3  7  0  3  0.0000000  0  7  2 24  4 16  7  9  5                0.000611458
   8171539.316 8   6383335.88545  24170623.309    24170622.4964   24170630.4644
        -0.000          -0.000
 -30122682.486 9 -23450971.01549  20896340.216    20896339.8054   20896346.1934
        -0.000          -0.000
 -17351312.747 9 -13497723.78949  20820956.570    20820956.4324   20820961.5814
        -0.000          -0.000
  -5922901.031 9  -4283812.15545  24784144.137    24784143.2954   24784150.3754
        -0.000          -0.000
   8294172.595 9   6463633.03146  23123295.228    23123294.1674   23123300.4874
        -0.000          -0.000
 -19339677.650 9 -15049470.41248  21497417.433    21497416.9484   21497422.5974
        -0.000          -0.000
 -20332217.361 9 -15580188.08747  22468165.695    22468164.9134   22468170.7184
        -0.000          -0.000
 97  3  7  0  3 30.0000000  0  7  2 24  4 16  7  9  5                0.000599523
   8238330.704 8   6435381.05845  24183333.358    24183332.4774   24183340.5474
        -0.000          -0.000
 -30188826.453 9 -23502511.74149  20883753.448    20883753.0294   20883759.4154
        -0.000          -0.000
 -17340091.279 9 -13488979.77949  20823091.936    20823091.8044   20823096.9464
        -0.000          -0.000
  -5939196.422 9  -4296509.83345  24781043.184    24781042.3324   24781049.4584
        -0.000          -0.000
   8340802.700 9   6499968.16246  23132168.660    23132167.6334   23132173.9674
        -0.000          -0.000
 -19343752.831 9 -15052645.88248  21496641.964    21496641.4854   21496647.1504
        -0.000          -0.000
 -20429717.345 9 -15656162.06847  22449612.067    22449611.2674   22449617.0654
        -0.000          -0.000
 97  3  7  0  4  0.0000000  0  7  2 24  4 16  7  9  5                0.000587546
   8305335.289 8   6487592.39645  24196084.052    24196083.1614   24196091.0044
        -0.000          -0.000
 -30254480.317 9 -23553670.57149  20871259.919    20871259.4984   20871265.8774
        -0.000          -0.000
 -17328320.494 9 -13479807.72849  20825331.791    20825331.6534   20825336.7924
        -0.000          -0.000
  -5955020.996 9  -4308840.64545  24778031.871    24778030.9464   24778038.0674
        -0.000          -0.000
   8387466.040 9   6536329.20346  23141048.379    23141047.3864   23141053.7064
        -0.000          -0.000
 -19347310.586 9 -15055418.16348  21495964.921    21495964.4634   21495970.1364
        -0.000          -0.000
 -20527136.198 9 -15732072.84147  22431073.874    22431073.0814   22431078.8564
        -0.000          -0.000
 97  3  7  0  4 30.0000000  0  7  2 24  4 16  7  9  5                0.000575510
   8372540.287 8   6539959.86345  24208872.775    24208871.7964   24208879.8874
        -0.000          -0.000
 -30319640.876 9 -23604445.00049  20858860.234    20858859.8124   20858866.1984
        -0.000          -0.000
 -17316004.332 9 -13470210.70349  20827675.477    20827675.3504   20827680.4784
        -0.000          -0.000
  -5970380.849 9  -4320809.33145  24775108.919    24775108.0394   24775115.0584
        -0.000          -0.000
   8434139.809 9   6572698.36846  23149930.105    23149929.1284   23149935.4604
        -0.000          -0.000
 -19350364.235 9 -15057797.63248  21495383.881    21495383.4064   21495389.0844
        -0.000          -0.000
 -20624490.861 9 -15807933.57947  22412547.887    22412547.0774   22412552.8524
        -0.000          -0.000
 97  3  7  0  5  0.0000000  0  7  2 24  4 16  7  9  5                0.000563425
   8439932.048 9   6592472.89045  24221697.073    24221695.9504   24221703.8774
        -0.000          -0.000
 -30384313.618 9 -23654839.32149  20846553.414    20846552.9924   20846559.3944
        -0.000          -0.000
 -17303154.295 9 -13460197.67949  20830120.760    20830120.6184   20830125.7624
        -0.000          -0.000
  -5985271.180 9  -4332412.15445  24772275.361    24772274.5814   24772281.6034
        -0.000          -0.000
   8480808.260 9   6609063.38946  23158810.757    23158809.8894   23158816.1814
        -0.000          -0.000
 -19352907.641 9 -15059779.51748  21494899.857    21494899.3814   21494905.0694
        -0.000          -0.000
 -20721765.903 9 -15883732.28947  22394037.000    22394036.2214   22394041.9544
        -0.000          -0.000
 97  3  7  0  5 30.0000000  0  7  2 24  4 16  7  9  5                0.000551303
   8507500.183 8   6645123.36145  24234554.977    24234553.8764   24234561.6694
        -0.000          -0.000
 -30448501.176 9 -23704855.57049  20834338.883    20834338.4384   20834344.8374
        -0.000          -0.000
 -17289783.573 9 -13449778.92249  20832665.136    20832665.0064   20832670.1324
        -0.000          -0.000
  -5999689.846 9  -4343647.45445  24769531.598    24769530.7714   24769537.7634
        -0.000          -0.000
   8527475.966 9   6645427.82646  23167691.256    23167690.3824   23167696.7394
        -0.000          -0.000
 -19354928.016 9 -15061353.83748  21494515.379    21494514.9274   21494520.6184
        -0.000          -0.000
 -20818941.987 9 -15959453.88147  22375544.974    22375544.1934   22375549.9284
        -0.000          -0.000
 97  3  7  0  6  0.0000000  0  7  2 24  4 16  7  9  5                0.000539176
   8575264.513 9   6697926.68145  24247450.094    24247449.1614   24247456.9464
        -0.000          -0.000
 -30512185.653 9 -23754479.81149  20822220.048    20822219.6274   20822226.0094
        -0.000          -0.000
 -17275897.350 9 -13438958.47849  20835307.594    20835307.4574   20835312.5574
        -0.000          -0.000
  -6013618.190 9  -4354500.67245  24766881.195    24766880.3664   24766887.2424
        -0.000          -0.000
   8574146.534 9   6681794.49146  23176572.364    23176571.4544   23176577.8484
        -0.000          -0.000
 -19356389.526 9 -15062492.68148  21494237.265    21494236.7994   21494242.5254
        -0.000          -0.000
 -20915988.356 9 -16035074.40847  22357077.669    22357076.8984   22357082.5884
        -0.000          -0.000
 97  3  7  0  6 30.0000000  0  7  2 24  4 16  7  9  5                0.000527066
   8643252.400 9   6750904.21145  24260387.690    24260386.8544   24260394.5084
        -0.000          -0.000
 -30575362.611 9 -23803708.58749  20810197.851    20810197.4304   20810203.8014
        -0.000          -0.000
 -17261505.915 9 -13427744.36549  20838046.181    20838046.0414   20838051.1444
        -0.000          -0.000
  -6027043.119 9  -4364961.64045  24764326.467    24764325.6044   24764332.5834
        -0.000          -0.000
   8620806.965 9   6718153.26546  23185451.513    23185450.5774   23185457.0074
        -0.000          -0.000
 -19357293.709 9 -15063197.24248  21494065.224    21494064.7594   21494070.4814
        -0.000          -0.000
 -21012894.849 9 -16110585.93247  22338637.002    22338636.1844   22338641.8664
        -0.000          -0.000
 97  3  7  0  7  0.0000000  0  7  2 24  4 16  7  9  5                0.000514973
   8711460.411 9   6804053.27445  24273367.296    24273366.4484   24273374.1334
        -0.000          -0.000
 -30638058.411 9 -23852562.42749  20798267.237    20798266.8104   20798273.1684
        -0.000          -0.000
 -17246629.783 9 -13416152.56249  20840877.027    20840876.8914   20840881.9704
        -0.000          -0.000
  -6039992.498 9  -4375052.05545  24761862.292    24761861.3514   24761868.3514
        -0.000          -0.000
   8667453.425 9   6754501.14446  23194328.016    23194327.1114   23194333.5154
        -0.000          -0.000
 -19357649.052 9 -15063474.13748  21493997.625    21493997.1254   21494002.8544
        -0.000          -0.000
 -21109672.486 9 -16185997.05447  22320220.832    22320220.0234   22320225.7124
        -0.000          -0.000
 97  3  7  0  7 30.0000000  0  7  2 24  4 16  7  9  5                0.000502891
   8779909.736 9   6857390.38445  24286392.876    24286392.0604   24286399.6664
        -0.000          -0.000
 -30700263.142 9 -23901033.61949  20786430.034    20786429.6244   20786435.9694
        -0.000          -0.000
 -17231261.556 9 -13404177.30849  20843801.520    20843801.3574   20843806.4424
        -0.000          -0.000
  -6052471.971 9  -4384776.28545  24759487.543    24759486.6044   24759493.4834
        -0.000          -0.000
   8714091.293 9   6790842.33846  23203202.930    23203202.0274   23203208.3944
        -0.000          -0.000
 -19357468.159 9 -15063333.18648  21494032.037    21494031.5624   21494037.2844
        -0.000          -0.000
 -21206331.747 9 -16261315.93147  22301827.148    22301826.3174   22301832.0454
        -0.000          -0.000
 97  3  7  0  8  0.0000000  0  7  2 24  4 16  7  9  5                0.000490821
   8848621.816 9   6910932.20845  24299468.442    24299467.5394   24299475.2484
        -0.000          -0.000
 -30761967.385 9 -23949114.82149  20774688.087    20774687.6634   20774694.0034
        -0.000          -0.000
 -17215377.372 9 -13391800.01449  20846824.117    20846823.9744   20846829.0614
        -0.000          -0.000
  -6064468.128 9  -4394123.92645  24757204.733    24757203.7454   24757210.7814
        -0.000          -0.000
   8760732.322 9   6827185.97646  23212078.459    23212077.5444   23212083.9784
        -0.000          -0.000
 -19356746.641 9 -15062770.97248  21494169.399    21494168.9164   21494174.5914
        -0.000          -0.000
 -21302865.773 9 -16336537.21848  22283457.293    22283456.4544   22283462.2134
        -0.000          -0.000
 97  3  7  0  8 30.0000000  0  7  2 24  4 16  7  9  5                0.000478753
   8917592.895 9   6964675.86346  24312593.270    24312592.3334   24312600.0734
        -0.000          -0.000
 -30823181.435 9 -23996814.05449  20763039.368    20763038.9674   20763045.2784
        -0.000          -0.000
 -17198976.908 9 -13379020.42249  20849945.030    20849944.8934   20849949.9334
        -0.000          -0.000
  -6075987.515 9  -4403100.06945  24755012.628    24755011.7324   24755018.7794
        -0.000          -0.000
   8807393.004 9   6863544.94546  23220957.692    23220956.7264   23220963.1524
        -0.000          -0.000
 -19355495.014 9 -15061795.68548  21494407.583    21494407.0824   21494412.7564
        -0.000          -0.000
 -21399281.952 9 -16411666.68548  22265109.872    22265109.0264   22265114.7714
        -0.000          -0.000
 97  3  7  0  9  0.0000000  0  7  2 24  4 16  7  9  5                0.000466676
   8986792.065 9   7018597.24146  24325761.507    24325760.6064   24325768.2974
        -0.000          -0.000
 -30883901.580 9 -24044128.42949  20751484.715    20751484.3064   20751490.6114
        -0.000          -0.000
 -17182063.772 9 -13365841.35049  20853163.500    20853163.3454   20853168.4244
        -0.000          -0.000
  -6087038.286 9  -4411711.03045  24752909.700    24752908.8284   24752915.9044
        -0.000          -0.000
   8854087.804 9   6899930.48446  23229843.455    23229842.4244   23229848.8644
        -0.000          -0.000
 -19353718.884 9 -15060411.69548  21494745.532    21494745.0384   21494750.7054
        -0.000          -0.000
 -21495567.278 9 -16486694.18748  22246787.334    22246786.5304   22246792.2264
        -0.000          -0.000
 97  3  7  0  9 30.0000000  0  7  2 24  4 16  7  9  5                0.000454587
   9056194.846 9   7072677.29146  24338968.438    24338967.5544   24338975.3324
        -0.000          -0.000
 -30944113.455 9 -24091046.74649  20740026.747    20740026.3294   20740032.6194
        -0.000          -0.000
 -17164650.014 9 -13352272.17749  20856477.250    20856477.1114   20856482.1894
        -0.000          -0.000
  -6097600.563 9  -4419941.35645  24750899.762    24750899.0294   24750905.8354
        -0.000          -0.000
   8900807.073 9   6936335.10046  23238733.789    23238732.8704   23238739.2954
        -0.000          -0.000
 -19351428.385 9 -15058626.89348  21495181.371    21495180.8964   21495186.5744
        -0.000          -0.000
 -21591712.385 9 -16561612.42048  22228491.486    22228490.6964   22228496.4114
        -0.000          -0.000
 97  3  7  0 10  0.0000000  0  7  2 24  4 16  7  9  5                0.000442486
   9125787.410 9   7126905.21045  24352211.425    24352210.5464   24352218.4084
        -0.000          -0.000
 -31003812.185 9 -24137565.21149  20728666.444    20728666.0134   20728672.2994
        -0.000          -0.000
 -17146739.118 9 -13338315.63049  20859885.566    20859885.4324   20859890.4924
        -0.000          -0.000
  -6107663.752 9  -4427782.78845  24748984.774    24748983.9354   24748990.8674
        -0.000          -0.000
   8947557.049 9   6972763.63446  23247630.076    23247629.1714   23247635.5864
        -0.000          -0.000
 -19348616.879 9 -15056436.11848  21495716.381    21495715.9054   21495721.5664
        -0.000          -0.000
 -21687710.712 9 -16636416.29548  22210223.602    22210222.8134   22210228.5184
        -0.000          -0.000
 97  3  7  0 10 30.0000000  0  7  2 24  4 16  7  9  5                0.000430367
   9195556.585 9   7181270.74745  24365488.031    24365487.1044   24365495.1294
        -0.000          -0.000
 -31062994.292 9 -24183681.11549  20717404.452    20717404.0404   20717410.3074
        -0.000          -0.000
 -17128338.381 9 -13323977.38649  20863387.083    20863386.9584   20863392.0234
        -0.000          -0.000
  -6117233.526 9  -4435239.74545  24747163.751    24747162.9264   24747169.8174
        -0.000          -0.000
   8994338.628 9   7009216.80646  23256532.385    23256531.4284   23256537.7944
        -0.000          -0.000
 -19345296.002 9 -15053848.42848  21496348.343    21496347.8584   21496353.5374
        -0.000          -0.000
 -21783559.839 9 -16711103.89948  22191984.100    22191983.2904   22191989.0014
        -0.000          -0.000
 97  3  7  0 11  0.0000000  0  7  2 24  4 16  7  9  5                0.000418232
   9265505.623 8   7235776.44045  24378799.006    24378798.0894   24378806.0714
        -0.000          -0.000
 -31121657.203 9 -24229392.44749  20706241.247    20706240.8084   20706247.0694
        -0.000          -0.000
 -17109434.835 9 -13309247.34249  20866984.289    20866984.1684   20866989.2444
        -0.000          -0.000
  -6126302.781 9  -4442306.68645  24745437.840    24745436.9714   24745443.9624
        -0.000          -0.000
   9041139.020 9   7045684.63246  23265438.244    23265437.2634   23265443.5724
        -0.000          -0.000
 -19341462.054 9 -15050860.94348  21497077.913    21497077.4434   21497083.1184
        -0.000          -0.000
 -21879245.341 9 -16785664.00748  22173775.697    22173774.9054   22173780.6334
        -0.000          -0.000
 97  3  7  0 11 30.0000000  0  7  2 24  4 16  7  9  5                0.000406081
   9335654.165 8   7290437.58745  24392147.823    24392146.9384   24392154.8974
        -0.000          -0.000
 -31179807.962 9 -24274704.70249  20695175.515    20695175.0984   20695181.3524
        -0.000          -0.000
 -17090009.829 9 -13294110.96649  20870680.756    20870680.6284   20870685.7014
        -0.000          -0.000
  -6134861.912 8  -4448976.12445  24743809.041    24743808.2084   24743815.1624
        -0.000          -0.000
   9087957.673 9   7082166.69446  23274347.518    23274346.6344   23274352.8734
        -0.000          -0.000
 -19337101.638 9 -15047463.22048  21497907.703    21497907.2194   21497912.8814
        -0.000          -0.000
 -21974785.600 9 -16860110.93748  22155594.967    22155594.1914   22155599.9354
        -0.000          -0.000
 97  3  7  0 12  0.0000000  0  7  2 24  4 16  7  9  5                0.000393917
   9406033.320 8   7345278.41845  24405540.486    24405539.6464   24405547.6464
        -0.000          -0.000
 -31237452.688 9 -24319622.64849  20684206.085    20684205.6824   20684211.9224
        -0.000          -0.000
 -17070038.007 9 -13278548.50249  20874481.270    20874481.1474   20874486.2254
        -0.000          -0.000
  -6142919.373 8  -4455254.65145  24742275.698    24742274.8994   24742281.8134
        -0.000          -0.000
   9134816.785 9   7118680.29046  23283264.597    23283263.7024   23283269.8834
        -0.000          -0.000
 -19332203.025 9 -15043646.12748  21498839.869    21498839.3934   21498845.0454
        -0.000          -0.000
 -22070176.308 9 -16934441.33848  22137442.670    22137441.8984   22137447.6444
        -0.000          -0.000
 97  3  7  0 12 30.0000000  0  8 30  2 24  4 16  7  9  5             0.000381853
  -6922819.01919  -5376255.81055  24694236.092    24694235.8275   24694242.3455
        -0.000          -0.000
   9476637.722 8   7400294.78145  24418976.013    24418975.4254   24418983.1224
        -0.000          -0.000
 -31294609.076 9 -24364160.06649  20673329.618    20673329.2124   20673335.4254
        -0.000          -0.000
 -17049533.396 9 -13262570.87549  20878383.161    20878383.0364   20878388.1144
        -0.000          -0.000
  -6150485.174 8  -4461150.06745  24740835.997    24740835.1464   24740841.9504
        -0.000          -0.000
   9181693.131 9   7155207.32246  23292184.867    23292183.9664   23292190.1374
        -0.000          -0.000
 -19326770.554 9 -15039413.03948  21499873.629    21499873.1574   21499878.8134
        -0.000          -0.000
 -22165422.271 9 -17008658.94548  22119317.988    22119317.2254   22119322.9204
        -0.000          -0.000
 97  3  7  0 13  0.0000000  0  8 30  2 24  4 16  7  9  5             0.000369684
  -7039883.062 9  -5467474.51045  24671959.554    24671959.3584   24671965.7044
        -0.000          -0.000
   9547481.245 8   7455497.45645  24432457.139    24432456.3934   24432464.2394
        -0.000          -0.000
 -31351269.695 9 -24408311.17449  20662547.471    20662547.0464   20662553.2484
        -0.000          -0.000
 -17028501.804 9 -13246182.61749  20882385.334    20882385.2154   20882390.2834
        -0.000          -0.000
  -6157545.487 8  -4466651.60345  24739492.425    24739491.6764   24739498.4224
        -0.000          -0.000
   9228572.197 9   7191736.45446  23301105.721    23301104.7614   23301110.9764
        -0.000          -0.000
 -19320783.924 9 -15034748.13948  21501012.886    21501012.4094   21501018.0474
        -0.000          -0.000
 -22260534.322 9 -17082772.20548  22101218.787    22101218.0054   22101223.6944
        -0.000          -0.000
 97  3  7  0 13 30.0000000  0  8 30  2 24  4 16  7  9  5             0.000357509
  -7156995.599 9  -5558731.00645  24649673.751    24649673.4974   24649679.8124
        -0.000          -0.000
   9618537.070 8   7510865.56545  24445978.603    24445977.7024   24445985.6324
        -0.000          -0.000
 -31407439.069 9 -24452079.48949  20651858.785    20651858.3564   20651864.5544
        -0.000          -0.000
 -17006973.609 9 -13229407.39149  20886482.032    20886481.8904   20886486.9484
        -0.000          -0.000
  -6164112.080 8  -4471768.41045  24738242.823    24738242.0014   24738248.7314
        -0.000          -0.000
   9275441.798 9   7228258.21246  23310024.715    23310023.6764   23310029.9364
        -0.000          -0.000
 -19314264.089 9 -15029667.75348  21502253.590    21502253.1304   21502258.7284
        -0.000          -0.000
 -22355532.595 9 -17156796.81348  22083141.222    22083140.4404   22083146.1054
        -0.000          -0.000
 97  3  7  0 14  0.0000000  0  8 30  2 24  4 16  7  9  5             0.000345324
  -7274155.211 8  -5650024.17145  24627378.899    24627378.7414   24627384.9594
        -0.000          -0.000
   9689792.364 8   7566389.11145  24459538.021    24459537.2144   24459545.2954
        -0.000          -0.000
 -31463107.569 9 -24495457.51949  20641265.407    20641264.9804   20641271.1654
        -0.000          -0.000
 -16984972.543 9 -13212263.69849  20890668.663    20890668.5614   20890673.6084
        -0.000          -0.000
  -6170201.798 8  -4476513.62145  24737083.882    24737083.1444   24737090.0064
        -0.000          -0.000
   9322290.206 9   7264763.45746  23318939.670    23318938.6844   23318944.9114
        -0.000          -0.000
 -19307214.898 9 -15024174.88348  21503595.031    21503594.5714   21503600.1724
        -0.000          -0.000
 -22450391.891 9 -17230713.13048  22065090.088    22065089.2974   22065094.9514
        -0.000          -0.000
 97  3  7  0 14 30.0000000  0  8 30  2 24  4 16  7  9  5             0.000333125
  -7391363.622 8  -5741355.35045  24605074.693    24605074.5314   24605080.8594
        -0.000          -0.000
   9761228.784 8   7622053.82745  24473131.943    24473131.1744   24473139.2414
        -0.000          -0.000
 -31518259.176 9 -24538432.77249  20630770.348    20630769.9254   20630776.1154
        -0.000          -0.000
 -16962508.291 9 -13194759.08149  20894943.462    20894943.3424   20894948.3864
        -0.000          -0.000
  -6175815.701 9  -4480888.07945  24736015.619    24736014.8634   24736021.8364
        -0.000          -0.000
   9369109.420 9   7301245.95246  23327849.066    23327848.0774   23327854.4124
        -0.000          -0.000
 -19299639.880 9 -15018272.27648  21505036.520    21505036.0634   21505041.6384
        -0.000          -0.000
 -22545107.880 9 -17304517.77348  22047066.178    22047065.3844   22047071.0414
        -0.000          -0.000
 97  3  7  0 15  0.0000000  0  8 30  2 24  4 16  7  9  5             0.000320906
  -7508618.688 8  -5832722.88845  24582761.642    24582761.7084   24582768.1154
        -0.000          -0.000
   9832845.182 9   7677858.77645  24486760.099    24486759.2994   24486767.3814
        -0.000          -0.000
 -31572883.542 9 -24580997.19149  20620375.651    20620375.2314   20620381.4184
        -0.000          -0.000
 -16939567.841 9 -13176883.39949  20899308.844    20899308.7304   20899313.7974
        -0.000          -0.000
  -6180947.883 9  -4484887.16645  24735039.004    24735038.2104   24735045.1334
        -0.000          -0.000
   9415915.448 9   7337718.18146  23336755.861    23336754.8714   23336761.2334
        -0.000          -0.000
 -19291550.361 9 -15011968.76148  21506575.876    21506575.4084   21506580.9714
        -0.000          -0.000
 -22639667.256 9 -17378200.38048  22029072.093    22029071.3114   22029076.9644
        -0.000          -0.000
 97  3  7  0 15 30.0000000  0  8 30  2 24  4 16  7  9  5             0.000308674
  -7625908.702 8  -5924117.63045  24560441.877    24560442.1114   24560448.6564
        -0.000          -0.000
   9904658.502 9   7733817.19445  24500425.762    24500424.8394   24500432.8784
        -0.000          -0.000
 -31626977.150 9 -24623148.03049  20610081.947    20610081.5384   20610087.7144
        -0.000          -0.000
 -16916131.602 9 -13158621.39049  20903768.626    20903768.4924   20903773.5624
        -0.000          -0.000
  -6185600.469 8  -4488512.53645  24734153.640    24734152.8134   24734159.6854
        -0.000          -0.000
   9462732.248 9   7374198.78446  23345664.779    23345663.8234   23345670.2214
        -0.000          -0.000
 -19282939.392 9 -15005258.92348  21508214.463    21508214.0134   21508219.5764
        -0.000          -0.000
 -22734035.584 9 -17451734.12848  22011114.434    22011113.5934   22011119.2394
        -0.000          -0.000
 97  3  7  0 16  0.0000000  0  7 30 24  4 16  7  9  5                0.000296661
  -7743208.168 8  -6015519.75945  24538120.439    24538120.7824   24538127.1514
        -0.000          -0.000
 -31680541.164 9 -24664886.19849  20599889.014    20599888.6144   20599894.7814
        -0.000          -0.000
 -16892189.102 9 -13139964.88949  20908324.724    20908324.6084   20908329.6594
        -0.000          -0.000
  -6189770.402 8  -4491761.81145  24733360.066    24733359.1924   24733366.1794
        -0.000          -0.000
   9509566.110 9   7410692.68046  23354576.960    23354575.9534   23354582.4444
        -0.000          -0.000
 -19273801.455 9 -14998138.46148  21509953.384    21509952.9294   21509958.5164
        -0.000          -0.000
 -22828212.264 9 -17525118.53048  21993193.126    21993192.3404   21993197.9694
        -0.000          -0.000
 97  3  7  0 16 30.0000000  0  7 30 24  4 16  7  9  5                0.000284407
  -7860506.905 8  -6106921.32345  24515799.183    24515799.2464   24515805.9064
        -0.000          -0.000
 -31733593.277 9 -24706225.48449  20589793.528    20589793.1134   20589799.2894
        -0.000          -0.000
 -16867741.020 9 -13120914.43149  20912977.030    20912976.8974   20912981.9564
        -0.000          -0.000
  -6193432.306 8  -4494615.21845  24732663.191    24732662.3544   24732669.2944
        -0.000          -0.000
   9556418.564 9   7447201.06946  23363492.683    23363491.6914   23363498.1684
        -0.000          -0.000
 -19264153.998 9 -14990620.96948  21511789.255    21511788.7984   21511794.3754
        -0.000          -0.000
 -22922210.157 9 -17598363.61548  21975305.927    21975305.1534   21975310.7644
        -0.000          -0.000
 97  3  7  0 17  0.0000000  0  7 30 24  4 16  7  9  5                0.000272157
  -7977795.484 8  -6198314.94445  24493479.898    24493479.9364   24493486.5134
        -0.000          -0.000
 -31786149.063 9 -24747178.02349  20579792.477    20579792.0664   20579798.2634
        -0.000          -0.000
 -16842792.870 9 -13101474.30849  20917724.495    20917724.4114   20917729.4614
        -0.000          -0.000
  -6196570.331 8  -4497060.41245  24732065.997    24732065.1184   24732072.0834
        -0.000          -0.000
   9603287.134 9   7483722.00946  23372411.443    23372410.3974   23372416.9764
        -0.000          -0.000
 -19253986.315 9 -14982698.10948  21513724.095    21513723.6394   21513729.2404
        -0.000          -0.000
 -23016028.992 9 -17671469.18148  21957452.728    21957451.9734   21957457.5854
        -0.000          -0.000
 97  3  7  0 17 30.0000000  0  7 30 24  4 16  7  9  5                0.000259918
  -8095078.522 8  -6289704.24645  24471161.719    24471161.5684   24471168.2744
        -0.000          -0.000
 -31838211.552 9 -24787746.17249  20569885.274    20569884.8654   20569891.0644
        -0.000          -0.000
 -16817362.238 9 -13081658.22749  20922563.802    20922563.6814   20922568.7264
        -0.000          -0.000
  -6199197.846 8  -4499107.81045  24731566.013    24731565.1334   24731572.1564
        -0.000          -0.000
   9650169.987 9   7520254.09246  23381332.973    23381331.9414   23381338.4854
        -0.000          -0.000
 -19243295.969 9 -14974367.97748  21515758.395    21515757.9414   21515763.5494
        -0.000          -0.000
 -23109684.036 9 -17744447.12148  21939630.740    21939629.9804   21939635.6244
        -0.000          -0.000
 97  3  7  0 18  0.0000000  0  8 30 24  4 16  7  9 10  5             0.000247747
  -8212348.164 9  -6381083.09945  24448846.064    24448845.9464   24448852.3794
        -0.000          -0.000
 -31889753.931 9 -24827909.04549  20560077.086    20560076.6654   20560082.8794
        -0.000          -0.000
 -16791437.363 9 -13061457.02049  20927497.115    20927496.9954   20927502.0464
        -0.000          -0.000
  -6201286.101 8  -4500735.01545  24731168.629    24731167.7594   24731174.8724
        -0.000          -0.000
   9697085.579 9   7556811.67746  23390260.658    23390259.7404   23390266.1924
        -0.000          -0.000
 -19232087.585 9 -14965634.17748  21517891.288    21517890.8344   21517896.4294
        -0.000          -0.000
  -6083666.15118  -4725713.57955  24718182.740    24718181.5795   24718189.6905
        -0.000          -0.000
 -23203159.802 9 -17817285.35948  21921842.870    21921842.1154   21921847.7544
        -0.000          -0.000
 97  3  7  0 18 30.0000000  0  8 30 24  4 16  7  9 10  5             0.000235542
  -8329630.791 9  -6472472.09745  24426527.976    24426527.9174   24426534.2764
        -0.000          -0.000
 -31940776.143 9 -24867666.58949  20550367.825    20550367.4174   20550373.6424
        -0.000          -0.000
 -16765034.197 9 -13040883.12349  20932521.476    20932521.3474   20932526.4124
        -0.000          -0.000
  -6202856.376 8  -4501958.59345  24730869.672    24730868.8164   24730875.9714
        -0.000          -0.000
   9744025.240 9   7593388.02846  23399192.986    23399192.1074   23399198.5324
        -0.000          -0.000
 -19220371.109 9 -14956504.46648  21520120.866    21520120.4114   21520126.0074
        -0.000          -0.000
  -6195375.081 9  -4812759.46245  24696925.114    24696924.0854   24696932.0704
        -0.000          -0.000
 -23296451.492 9 -17889980.16148  21904090.013    21904089.2354   21904094.9084
        -0.000          -0.000
 97  3  7  0 19  0.0000000  0  8 30 24  4 16  7  9 10  5             0.000223320
  -8446943.897 9  -6563884.85346  24404204.005    24404203.9914   24404210.3064
        -0.000          -0.000
 -31991265.214 9 -24907008.70149  20540760.035    20540759.6384   20540765.8604
        -0.000          -0.000
 -16738171.018 9 -13019950.76449  20937633.348    20937633.2384   20937638.2934
        -0.000          -0.000
  -6203950.070 8  -4502810.78845  24730661.398    24730660.5914   24730667.7184
        -0.000          -0.000
   9790983.152 9   7629978.60546  23408128.821    23408127.9204   23408134.3214
        -0.000          -0.000
 -19208151.718 9 -14946982.86848  21522446.105    21522445.6514   21522451.2694
        -0.000          -0.000
  -6307209.587 8  -4899903.18345  24675643.649    24675642.6394   24675650.7554
        -0.000          -0.000
 -23389578.544 9 -17962546.67348  21886368.526    21886367.7434   21886373.4234
        -0.000          -0.000
 97  3  7  0 19 30.0000000  0  8 30 24  4 16  7  9 10  5             0.000211081
  -8564284.441 9  -6655318.98146  24381874.877    24381874.7994   24381881.0704
        -0.000          -0.000
 -32041198.495 9 -24945917.72749  20531258.058    20531257.6864   20531263.8884
        -0.000          -0.000
 -16710840.719 9 -12998654.42249  20942834.086    20942833.9684   20942839.0494
        -0.000          -0.000
  -6204571.391 8  -4503294.93045  24730543.154    24730542.2824   24730549.4714
        -0.000          -0.000
   9837977.522 9   7666597.58846  23417071.618    23417070.6994   23417077.0954
        -0.000          -0.000
 -19195434.196 9 -14937073.11548  21524866.188    21524865.7264   21524871.3494
        -0.000          -0.000
  -6419164.834 8  -4987141.00145  24654339.201    24654338.1674   24654346.5034
        -0.000          -0.000
 -23482523.587 9 -18034971.35948  21868681.646    21868680.8574   21868686.5474
        -0.000          -0.000
 97  3  7  0 20  0.0000000  0  8 30 24  4 16  7  9 10  5             0.000198830
  -8681652.470 9  -6746774.51746  24359540.432    24359540.3914   24359546.6694
        -0.000          -0.000
 -32090583.242 9 -24984399.32749  20521860.447    20521860.0524   20521866.2584
        -0.000          -0.000
 -16683044.302 9 -12976994.86949  20948123.550    20948123.4564   20948128.5304
        -0.000          -0.000
  -6204721.720 8  -4503412.03045  24730514.574    24730513.6914   24730520.9434
        -0.000          -0.000
   9884997.261 9   7703236.33246  23426019.213    23426018.2744   23426024.6254
        -0.000          -0.000
 -19182214.407 9 -14926771.98848  21527381.791    21527381.3544   21527386.9914
        -0.000          -0.000
  -6531218.596 8  -5074455.56645  24633016.095    24633015.0894   24633023.3234
        -0.000          -0.000
 -23575283.506 9 -18107251.79148  21851030.013    21851029.2474   21851034.9174
        -0.000          -0.000
 97  3  7  0 20 30.0000000  0  8 30 24  4 16  7  9 10  5             0.000186576
  -8799040.404 9  -6838245.56546  24337202.179    24337202.1464   24337208.4434
        -0.000          -0.000
 -32139425.143 9 -25022457.92949  20512566.070    20512565.6864   20512571.8944
        -0.000          -0.000
 -16654779.480 9 -12954970.32649  20953502.189    20953502.0824   20953507.1434
        -0.000          -0.000
  -6204403.026 8  -4503163.69845  24730575.232    24730574.3104   24730581.6044
        -0.000          -0.000
   9932046.501 9   7739898.07546  23434972.431    23434971.4774   23434977.8534
        -0.000          -0.000
 -19168470.743 9 -14916062.64448  21529997.151    21529996.7134   21530002.3574
        -0.000          -0.000
  -6643344.578 8  -5161826.42345  24611679.239    24611678.2804   24611686.4534
        -0.000          -0.000
 -23667860.915 9 -18179390.01248  21833413.115    21833412.3434   21833418.0044
        -0.000          -0.000
 97  3  7  0 21  0.0000000  0  8 30 24  4 16  7  9 10  5             0.000174317
  -8916460.424 9  -6929741.61846  24314857.818    24314857.8344   24314864.0604
        -0.000          -0.000
 -32187738.062 9 -25060104.33949  20503372.420    20503372.0214   20503378.2424
        -0.000          -0.000
 -16626046.358 9 -12932580.87449  20958969.866    20958969.7774   20958974.8354
        -0.000          -0.000
  -6203601.525 8  -4502539.12645  24730727.879    24730726.8544   24730734.0194
        -0.000          -0.000
   9979120.728 9   7776579.28246  23443930.371    23443929.4054   23443935.8064
        -0.000          -0.000
 -19154205.953 9 -14904947.22848  21532711.650    21532711.2244   21532716.8664
        -0.000          -0.000
  -6755547.145 8  -5249256.93245  24590327.688    24590326.7714   24590334.9584
        -0.000          -0.000
 -23760258.193 9 -18251387.86548  21815830.463    21815829.7054   21815835.3704
        -0.000          -0.000
 97  3  7  0 21 30.0000000  0  8 30 24  4 16  7  9 10  5             0.000162060
  -9033914.252 9  -7021264.01646  24292507.033    24292507.1474   24292513.2954
        -0.000          -0.000
 -32235527.008 9 -25097342.45849  20494278.439    20494278.0474   20494284.2794
        -0.000          -0.000
 -16596826.785 9 -12909812.37049  20964530.177    20964530.0884   20964535.1584
        -0.000          -0.000
  -6202283.462 8  -4501512.03745  24730978.632    24730977.7414   24730984.7104
        -0.000          -0.000
  10026222.371 9   7813281.85146  23452893.504    23452892.5904   23452898.9244
        -0.000          -0.000
 -19139410.363 9 -14893418.20848  21535527.182    21535526.7554   21535532.3934
        -0.000          -0.000
  -6867806.759 8  -5336731.90445  24568965.433    24568964.3004   24568972.5304
        -0.000          -0.000
 -23852455.984 9 -18323230.28248  21798285.818    21798285.0414   21798290.7044
        -0.000          -0.000
 97  3  7  0 22  0.0000000  0  7 30 24  4  7  9 10  5                0.000149824
  -9151402.238 9  -7112813.03746  24270149.829    24270149.8644   24270156.0874
        -0.000          -0.000
 -32282805.339 9 -25134182.69549  20485281.642    20485281.2554   20485287.4904
        -0.000          -0.000
 -16567134.729 9 -12886675.69849  20970180.365    20970180.2764   20970185.3534
        -0.000          -0.000
  10073323.255 9   7849983.83746  23461856.499    23461855.6354   23461861.8664
        -0.000          -0.000
 -19124104.427 9 -14881491.51248  21538439.778    21538439.3394   21538444.9994
        -0.000          -0.000
  -6980124.684 8  -5424252.28945  24547591.936    24547590.8374   24547599.0294
        -0.000          -0.000
 -23944471.041 9 -18394930.31248  21780775.910    21780775.1334   21780780.7614
        -0.000          -0.000
 97  3  7  0 22 30.0000000  0  7 30 24  4  7  9 10  5                0.000137577
  -9268896.472 9  -7204366.91146  24247791.452    24247791.5134   24247797.6244
        -0.000          -0.000
 -32329553.681 9 -25170609.95849  20476385.711    20476385.3234   20476391.5504
        -0.000          -0.000
 -16536959.242 9 -12863162.32849  20975922.565    20975922.4614   20975927.5424
        -0.000          -0.000
  10120429.039 9   7886689.63946  23470820.446    23470819.5094   23470825.8044
        -0.000          -0.000
 -19108291.514 9 -14869169.77248  21541448.873    21541448.4364   21541454.1114
        -0.000          -0.000
  -7092502.554 8  -5511819.40945  24526207.141    24526205.8814   24526214.2764
        -0.000          -0.000
 -24036288.302 9 -18466476.21048  21763303.624    21763302.8694   21763308.4934
        -0.000          -0.000
 97  3  7  0 23  0.0000000  0  7 30 24  4  7  9 10  5                0.000125326
  -9386376.525 9  -7295909.73146  24225435.657    24225435.6904   24225441.8204
        -0.000          -0.000
 -32375767.964 9 -25206621.06749  20467591.407    20467591.0224   20467597.2474
        -0.000          -0.000
 -16506313.260 9 -12839282.33749  20981754.305    20981754.2044   20981759.2884
        -0.000          -0.000
  10167523.201 9   7923386.38346  23479782.191    23479781.3154   23479787.4934
        -0.000          -0.000
 -19091981.221 9 -14856460.46648  21544552.576    21544552.1574   21544557.8354
        -0.000          -0.000
  -7204954.733 8  -5599444.39445  24504807.958    24504806.7754   24504815.2324
        -0.000          -0.000
 -24127914.288 9 -18537873.06248  21745867.790    21745867.0204   21745872.6674
        -0.000          -0.000
 97  3  7  0 23 30.0000000  0  7 30 24  4  7  9 10  5                0.000113087
  -9503800.826 9  -7387409.11245  24203090.511    24203090.5104   24203096.4974
        -0.000          -0.000
 -32421441.693 9 -25242210.96749  20458899.974    20458899.5894   20458905.8064
        -0.000          -0.000
 -16475185.708 9 -12815027.10049  20987677.662    20987677.5834   20987682.6364
        -0.000          -0.000
  10214616.926 9   7960082.78146  23488743.791    23488742.8624   23488749.0054
        -0.000          -0.000
 -19075168.562 9 -14843359.70148  21547751.889    21547751.4824   21547757.1674
        -0.000          -0.000
  -7317478.481 8  -5687125.15945  24483395.286    24483394.2794   24483402.6894
        -0.000          -0.000
 -24219337.994 9 -18609112.29548  21728470.388    21728469.6334   21728475.2794
        -0.000          -0.000
 97  3  7  0 24  0.0000000  0  7 30 24  4  7  9 10  5                0.000100868
  -9621143.839 9  -7478845.17645  24180760.806    24180760.7794   24180766.7484
        -0.000          -0.000
 -32466577.339 9 -25277381.58249  20450310.920    20450310.5354   20450316.7474
        -0.000          -0.000
 -16443583.729 9 -12790402.18149  20993691.340    20993691.2504   20993696.3034
        -0.000          -0.000
  10261718.352 9   7996785.18646  23497706.838    23497705.8964   23497712.1794
        -0.000          -0.000
 -19057845.049 9 -14829860.87248  21551048.413    21551047.9904   21551053.7044
        -0.000          -0.000
  -7430075.749 8  -5774863.22645  24461968.802    24461967.7624   24461976.0594
        -0.000          -0.000
 -24310552.407 9 -18680188.44848  21711112.876    21711112.1004   21711117.7374
        -0.000          -0.000
 97  3  7  0 24 30.0000000  0  7 30 24  4  7  9 10  5                0.000088666
  -9738427.832 8  -7570235.22545  24158442.313    24158442.1984   24158448.1714
        -0.000          -0.000
 -32511199.571 9 -25312152.13349  20441819.600    20441819.2034   20441825.4094
        -0.000          -0.000
 -16411523.427 9 -12765420.12449  20999792.203    20999792.1174   20999797.1904
        -0.000          -0.000
  10308840.897 9   8033504.03746  23506673.995    23506673.0784   23506679.2864
        -0.000          -0.000
 -19040005.008 9 -14815959.55248  21554443.261    21554442.8504   21554448.5684
        -0.000          -0.000
  -7542755.180 9  -5862665.30645  24440526.549    24440525.5664   24440533.8494
        -0.000          -0.000
 -24401568.933 9 -18751110.40248  21693792.965    21693792.2004   21693797.8414
        -0.000          -0.000
 97  3  7  0 25  0.0000000  0  7 30 24  4  7  9 10  5                0.000076472
  -9855688.211 8  -7661606.86245  24136128.229    24136128.3264   24136134.2634
        -0.000          -0.000
 -32555329.052 9 -25346538.72349  20433422.015    20433421.6374   20433427.8274
        -0.000          -0.000
 -16379012.174 9 -12740086.67949  21005978.880    21005978.7934   21005983.8354
        -0.000          -0.000
  10356002.102 9   8070253.02046  23515648.466    23515647.5674   23515653.7784
        -0.000          -0.000
 -19021650.831 9 -14801657.60448  21557935.986    21557935.5524   21557941.3104
        -0.000          -0.000
  -7655519.984 9  -5950533.92545  24419068.008    24419066.9924   24419075.4664
        -0.000          -0.000
 -24492399.818 9 -18821887.69548  21676508.375    21676507.6264   21676513.2344
        -0.000          -0.000
 97  3  7  0 25 30.0000000  0  7 30 24  4  7  9 10  5                0.000064274
  -9972968.963 8  -7752994.35845  24113810.253    24113810.2274   24113816.2764
        -0.000          -0.000
 -32598990.083 9 -25380560.29049  20425113.578    20425113.2084   20425119.3974
        -0.000          -0.000
 -16346057.329 9 -12714407.57749  21012249.979    21012249.8724   21012254.9434
        -0.000          -0.000
  10403190.867 9   8107023.48246  23524628.175    23524627.2204   23524633.5944
        -0.000          -0.000
 -19002805.023 9 -14786972.56748  21561522.204    21561521.7994   21561527.5504
        -0.000          -0.000
  -7768375.839 9  -6038473.49146  24397592.279    24397591.1894   24397599.5264
        -0.000          -0.000
 -24583053.449 9 -18892526.87448  21659257.577    21659256.8284   21659262.3974
        -0.000          -0.000
 97  3  7  0 26  0.0000000  0  7 30 24  4  7  9 10  5                0.000052070
 -10090282.519 9  -7844407.43845  24091486.251    24091486.2024   24091492.2034
        -0.000          -0.000
 -32642158.549 9 -25414198.03649  20416898.878    20416898.4954   20416904.6874
        -0.000          -0.000
 -16312656.700 9 -12688381.11449  21018605.896    21018605.8124   21018610.8714
        -0.000          -0.000
  10450406.177 9   8143814.60546  23533613.050    23533612.0604   23533618.3314
        -0.000          -0.000
 -18983459.481 9 -14771898.12848  21565203.613    21565203.1804   21565208.9484
        -0.000          -0.000
  -7881293.763 9  -6126461.42846  24376104.775    24376103.6554   24376111.9334
        -0.000          -0.000
 -24673522.666 9 -18963022.35648  21642041.861    21642041.0874   21642046.6624
        -0.000          -0.000
 97  3  7  0 26 30.0000000  0  7 30 24  4  7  9 10  5                0.000039849
 -10207643.444 9  -7935857.48045  24069153.225    24069153.1524   24069158.9804
        -0.000          -0.000
 -32684824.435 9 -25447444.16549  20408779.799    20408779.4464   20408785.6284
        -0.000          -0.000
 -16278808.053 9 -12662005.54449  21025047.116    21025047.0134   21025052.0724
        -0.000          -0.000
  10497634.959 9   8180616.22646  23542600.422    23542599.4784   23542605.7504
        -0.000          -0.000
 -18963639.861 9 -14756454.28048  21568975.156    21568974.7394   21568980.5314
        -0.000          -0.000
  -7994277.164 9  -6214500.38346  24354604.770    24354603.6794   24354611.7074
        -0.000          -0.000
 -24763802.233 9 -19033370.05448  21624862.234    21624861.4504   21624867.0234
        -0.000          -0.000
 97  3  7  0 27  0.0000000  0  7 30 24  4  7  9 10  5                0.000027602
 -10325034.573 9  -8027331.04345  24046814.459    24046814.3974   24046820.0394
        -0.000          -0.000
 -32726972.975 9 -25480287.16349  20400759.179    20400758.8094   20400764.9814
        -0.000          -0.000
 -16244512.216 9 -12635281.51349  21031573.338    21031573.2654   21031578.3364
        -0.000          -0.000
  10544848.878 9   8217406.27746  23551584.855    23551583.8784   23551590.2894
        -0.000          -0.000
 -18943364.676 9 -14740655.44148  21572833.406    21572832.9894   21572838.7944
        -0.000          -0.000
  -8107333.616 9  -6302596.26546  24333090.810    24333089.7834   24333097.7324
        -0.000          -0.000
 -24853877.515 9 -19103558.56848  21607721.439    21607720.6764   21607726.2654
        -0.000          -0.000
 97  3  7  0 27 30.0000000  0  7 30 24  4  7  9 10  5                0.000015337
 -10442418.047 9  -8118798.63345  24024477.080    24024476.9714   24024482.6044
        -0.000          -0.000
 -32768584.926 9 -25512712.04349  20392840.675    20392840.3004   20392846.4784
        -0.000          -0.000
 -16209784.934 9 -12608221.29149  21038181.763    21038181.6904   21038186.7364
        -0.000          -0.000
  10592025.755 9   8254167.46946  23560562.327    23560561.3034   23560567.8434
        -0.000          -0.000
 -18922627.662 9 -14724496.74048  21576779.531    21576779.1074   21576784.9234
        -0.000          -0.000
  -8220453.964 9  -6390741.93546  24311564.669    24311563.6354   24311571.6284
        -0.000          -0.000
 -24943727.508 9 -19173571.53748  21590623.550    21590622.7734   21590628.4064
        -0.000          -0.000
 97  3  7  0 28  0.0000000  0  7 30 24  4  7  9 10  5                0.000003065
 -10559771.378 9  -8210242.72145  24002145.353    24002145.2804   24002150.9214
        -0.000          -0.000
 -32809629.424 9 -25544694.75149  20385030.169    20385029.7884   20385035.9504
        -0.000          -0.000
 -16174626.118 9 -12580824.81049  21044872.278    21044872.2084   21044877.2664
        -0.000          -0.000
  10639191.840 9   8290920.25146  23569537.781    23569536.7994   23569543.3964
        -0.000          -0.000
 -18901406.885 9 -14707961.08048  21580817.684    21580817.2614   21580823.0694
        -0.000          -0.000
  -8333630.088 9  -6478931.07546  24290028.000    24290026.9944   24290034.8214
        -0.000          -0.000
 -25033328.128 9 -19243390.18548  21573573.116    21573572.3174   21573577.9474
        -0.000          -0.000
 97  3  7  0 28 30.0000000  0  7 30 24  4  7  9 10  5               -0.000009214
 -10677089.775 9  -8301659.60746  23979820.406    23979820.3564   23979826.0174
        -0.000          -0.000
 -32850127.900 9 -25576251.98949  20377323.515    20377323.1534   20377329.3024
        -0.000          -0.000
 -16139051.839 9 -12553104.58949  21051641.840    21051641.7524   21051646.7844
        -0.000          -0.000
  10686357.851 9   8327672.97246  23578513.176    23578512.1464   23578518.7494
        -0.000          -0.000
 -18879701.538 9 -14691047.83448  21584948.105    21584947.6424   21584953.4664
        -0.000          -0.000
  -8446880.219 9  -6567177.88545  24268477.242    24268476.1844   24268483.9274
        -0.000          -0.000
 -25122683.598 9 -19313017.81348  21556569.297    21556568.5484   21556574.1354
        -0.000          -0.000
 97  3  7  0 28 59.9990000  0  7 30 24  4  7  9 10  5               -0.000021494
 -10794365.959 9  -8393043.58546  23957503.509    23957503.4664   23957509.1324
        -0.000          -0.000
 -32890085.085 9 -25607387.44449  20369719.923    20369719.5574   20369725.6914
        -0.000          -0.000
 -16103064.736 9 -12525062.68949  21058489.953    21058489.8514   21058494.8944
        -0.000          -0.000
  10733533.729 9   8364433.39046  23587490.473    23587489.4814   23587496.0044
        -0.000          -0.000
 -18857495.297 9 -14673744.28448  21589173.758    21589173.3464   21589179.1854
        -0.000          -0.000
  -8560190.406 9  -6655471.49845  24246914.855    24246913.9014   24246921.6004
        -0.000          -0.000
 -25211801.682 9 -19382460.46248  21539610.676    21539609.9184   21539615.5174
        -0.000          -0.000
 97  3  7  0 29 29.9990000  0  7 30 24  4  7  9 10  5               -0.000033760
 -10911612.414 9  -8484404.41446  23935192.212    23935192.1614   23935197.8764
        -0.000          -0.000
 -32929498.972 9 -25638099.54749  20362219.710    20362219.3394   20362225.4744
        -0.000          -0.000
 -16066634.300 9 -12496675.33149  21065422.398    21065422.3324   21065427.3764
        -0.000          -0.000
  10780757.478 9   8401231.11146  23596476.871    23596475.9104   23596482.5134
        -0.000          -0.000
 -18834762.538 9 -14656030.45548  21593499.672    21593499.2324   21593505.0374
        -0.000          -0.000
  -8673530.372 9  -6743788.31945  24225346.982    24225346.0824   24225353.7124
        -0.000          -0.000
 -25300681.770 9 -19451717.65748  21522697.335    21522696.5774   21522702.1794
        -0.000          -0.000
 97  3  7  0 29 59.9990000  0  7 30 24  4  7  9 10  5               -0.000046020
 -11028849.445 9  -8575757.89546  23912882.634    23912882.7064   23912888.3724
        -0.000          -0.000
 -32968391.676 9 -25668405.53449  20354818.656    20354818.2834   20354824.4104
        -0.000          -0.000
 -16029750.298 9 -12467934.54848  21072441.224    21072441.1534   21072446.1854
        -0.000          -0.000
  10828033.045 9   8438069.19546  23605473.175    23605472.1924   23605478.7744
        -0.000          -0.000
 -18811524.402 9 -14637922.83048  21597921.742    21597921.3204   21597927.1294
        -0.000          -0.000
  -8786898.354 9  -6832126.95945  24203773.754    24203772.6674   24203780.3434
        -0.000          -0.000
 -25389334.668 9 -19520797.82348  21505827.217    21505826.4664   21505832.0664
        -0.000          -0.000
 97  3  7  0 30 29.9990000  0  7 30 24  4  7  9 10  5               -0.000058276
 -11146074.389 9  -8667101.96646  23890575.430    23890575.4294   23890581.1394
        -0.000          -0.000
 -33006785.498 9 -25698322.78249  20347512.555    20347512.1814   20347518.2914
        -0.000          -0.000
 -15992411.435 9 -12438839.32648  21079546.577    21079546.4744   21079551.5354
        -0.000          -0.000
  10875338.068 9   8474930.23946  23614475.103    23614474.1404   23614480.6704
        -0.000          -0.000
 -18787801.021 9 -14619437.09248  21602436.140    21602435.7254   21602441.5554
        -0.000          -0.000
  -8900291.580 8  -6920485.27645  24182195.774    24182194.6454   24182202.0894
        -0.000          -0.000
 -25477776.870 9 -19589713.81248  21488997.219    21488996.4674   21489002.0504
        -0.000          -0.000
 97  3  7  0 30 59.9990000  0  7 30 24  4  7  9 10  5               -0.000070529
 -11263288.909 9  -8758437.90046  23868270.249    23868270.2204   23868275.9414
        -0.000          -0.000
 -33044650.876 9 -25727828.25549  20340306.991    20340306.6194   20340312.7334
        -0.000          -0.000
 -15954600.116 9 -12409375.95748  21086741.806    21086741.7224   21086746.7864
        -0.000          -0.000
  10922677.175 9   8511817.85046  23623483.492    23623482.5844   23623488.9484
        -0.000          -0.000
 -18763600.966 9 -14600579.92148  21607041.320    21607040.8874   21607046.7054
        -0.000          -0.000
  -9013691.062 8  -7008848.45745  24160616.467    24160615.3944   24160622.8494
        -0.000          -0.000
 -25565991.344 9 -19658452.34848  21472210.557    21472209.7884   21472215.3914
        -0.000          -0.000
 97  3  7  0 31 29.9990000  0  7 30 24  4  7  9 10  5               -0.000082791
 -11380505.508 9  -8849775.46146  23845964.683    23845964.5724   23845970.3194
        -0.000          -0.000
 -33081999.571 9 -25756931.11749  20333199.755    20333199.3894   20333205.5164
        -0.000          -0.000
 -15916353.246 9 -12379573.19648  21094019.978    21094019.8344   21094024.9044
        -0.000          -0.000
  10970027.806 9   8548714.42946  23632494.011    23632493.1054   23632499.4564
        -0.000          -0.000
 -18738934.063 9 -14581358.97048  21611735.277    21611734.8474   21611740.6704
        -0.000          -0.000
  -9127113.651 8  -7097229.65145  24139032.667    24139031.5874   24139039.3514
        -0.000          -0.000
 -25653975.542 9 -19727011.44848  21455467.705    21455466.9294   21455472.5134
        -0.000          -0.000
 97  3  7  0 31 59.9990000  0  7 30 24  4  7  9 10  5               -0.000095063
 -11497699.441 9  -8941095.36046  23823663.438    23823663.2814   23823669.0124
        -0.000          -0.000
 -33118812.799 9 -25785616.73349  20326194.448    20326194.0694   20326200.2014
        -0.000          -0.000
 -15877691.182 9 -12349446.90948  21101377.055    21101376.9614   21101382.0584
        -0.000          -0.000
  11017383.048 9   8585614.59946  23641505.365    23641504.4674   23641510.8354
        -0.000          -0.000
 -18713809.177 9 -14561781.15048  21616516.380    21616515.9574   21616521.7524
        -0.000          -0.000
  -9240574.128 8  -7185640.36145  24117441.824    24117440.7834   24117448.4214
        -0.000          -0.000
 -25741726.747 9 -19795388.99948  21438769.190    21438768.4494   21438774.0194
        -0.000          -0.000
 97  3  7  0 32 29.9990000  0  7 30 24  4  7  9 10  5               -0.000107347
 -11614864.647 9  -9032392.87946  23801367.553    23801367.3864   23801373.1644
        -0.000          -0.000
 -33155077.021 9 -25813874.55449  20319293.599    20319293.2164   20319299.3314
        -0.000          -0.000
 -15838625.851 9 -12319006.38748  21108810.924    21108810.8644   21108815.9344
        -0.000          -0.000
  11064742.443 9   8622518.02746  23650517.574    23650516.7684   23650523.0394
        -0.000          -0.000
 -18688228.920 9 -14541848.49848  21621384.217    21621383.7774   21621389.5684
        -0.000          -0.000
  -9354074.576 8  -7274082.19245  24095843.452    24095842.3664   24095850.0824
        -0.000          -0.000
 -25829245.836 9 -19863585.67948  21422114.860    21422114.0994   21422119.6544
        -0.000          -0.000
 97  3  7  0 32 59.9990000  0  7 30 24  4  7  9 10  5               -0.000119642
 -11731999.395 9  -9123666.64346  23779077.357    23779077.3284   23779083.0684
        -0.000          -0.000
 -33190793.770 9 -25841705.76949  20312496.885    20312496.5114   20312502.6194
        -0.000          -0.000
 -15799170.284 9 -12288261.78848  21116319.092    21116318.9974   21116324.1054
        -0.000          -0.000
  11112116.222 9   8659432.65946  23659532.464    23659531.6174   23659537.9524
        -0.000          -0.000
 -18662191.078 9 -14521559.28448  21626339.019    21626338.6174   21626344.4174
        -0.000          -0.000
  -9467619.161 8  -7362558.41945  24074236.457    24074235.3644   24074243.0834
        -0.000          -0.000
 -25916526.652 9 -19931596.69448  21405505.842    21405505.1074   21405510.6484
        -0.000          -0.000
 97  3  7  0 33 29.9990000  0  7 30 24  4  7  9 10  5               -0.000131943
 -11849089.553 9  -9214905.68846  23756795.782    23756795.7734   23756801.4594
        -0.000          -0.000
 -33225985.861 9 -25869128.16349  20305800.030    20305799.6574   20305805.7484
        -0.000          -0.000
 -15759331.331 9 -12257218.44548  21123900.198    21123900.1084   21123905.2054
        -0.000          -0.000
  11159495.745 9   8696351.75046  23668548.468    23668547.6054   23668553.8544
        -0.000          -0.000
 -18635701.919 9 -14500918.39648  21631379.791    21631379.3784   21631385.1754
        -0.000          -0.000
  -9581214.777 9  -7451074.39745  24052619.836    24052618.7884   24052626.4964
        -0.000          -0.000
 -26003590.896 9 -19999438.95148  21388938.066    21388937.3274   21388942.8764
        -0.000          -0.000
 97  3  7  0 33 59.9990000  0  7 30 24  4  7  9 10  5               -0.000144255
 -11966132.280 9  -9306107.75346  23734523.302    23734523.2024   23734528.9504
        -0.000          -0.000
 -33260657.449 9 -25896144.97049  20299202.247    20299201.8854   20299207.9764
        -0.000          -0.000
 -15719086.016 9 -12225858.45748  21131558.593    21131558.5264   21131563.6144
        -0.000          -0.000
  11206885.710 9   8733278.98946  23677566.464    23677565.4734   23677571.7774
        -0.000          -0.000
 -18608789.457 9 -14479947.66448  21636501.073    21636500.6524   21636506.4454
        -0.000          -0.000
  -9694868.164 9  -7539635.41046  24030992.274    24030991.2414   24030999.0404
        -0.000          -0.000
 -26090451.105 9 -20067122.22048  21372409.124    21372408.3904   21372413.8864
        -0.000          -0.000
 97  3  7  0 34 29.9990000  0  7 30 24  4  7  9 10  5               -0.000156569
 -12083127.914 9  -9397273.13946  23712259.712    23712259.6444   23712265.4524
        -0.000          -0.000
 -33294815.501 9 -25922761.61949  20292702.171    20292701.7954   20292707.8704
        -0.000          -0.000
 -15678426.415 9 -12194175.65148  21139295.879    21139295.7704   21139300.8644
        -0.000          -0.000
  11254302.722 9   8770227.29945  23686589.596    23686588.6554   23686595.0664
        -0.000          -0.000
 -18581442.041 9 -14458638.00148  21641705.085    21641704.7004   21641710.4714
        -0.000          -0.000
  -9808556.694 9  -7628223.78546  24009358.124    24009356.9584   24009364.8114
        -0.000          -0.000
 -26177093.783 9 -20134635.98548  21355921.567    21355920.8144   21355926.2934
        -0.000          -0.000
 97  3  7  0 34 59.9990000  0  7 30 24  4  7  9 10  5               -0.000168874
 -12200068.682 9  -9488395.76146  23690006.496    23690006.5304   23690012.2564
        -0.000          -0.000
 -33328469.704 9 -25948985.65749  20286297.963    20286297.5884   20286303.6714
        -0.000          -0.000
 -15637347.109 9 -12162165.79748  21147112.946    21147112.8684   21147117.9734
        -0.000          -0.000
  11301749.788 9   8807199.02445  23695618.466    23695617.5364   23695623.9874
        -0.000          -0.000
 -18553647.692 9 -14436980.08148  21646994.214    21646993.7984   21646999.5574
        -0.000          -0.000
  -9922264.427 9  -7716827.12246  23987720.240    23987719.0684   23987726.9174
        -0.000          -0.000
 -26263507.271 9 -20201971.16048  21339477.635    21339476.8974   21339482.3834
        -0.000          -0.000
 97  3  7  0 35 29.9990000  0  7 30 24  4  7  9 10  5               -0.000181180
 -12316960.738 9  -9579480.44546  23667762.591    23667762.6694   23667768.4564
        -0.000          -0.000
 -33361617.742 9 -25974815.28449  20279990.072    20279989.7254   20279995.7844
        -0.000          -0.000
 -15595842.743 9 -12129824.73448  21155010.978    21155010.9014   21155015.9864
        -0.000          -0.000
  11349218.884 9   8844187.93345  23704651.536    23704650.6014   23704657.0114
        -0.000          -0.000
 -18525406.231 9 -14414973.76248  21652368.383    21652367.9884   21652373.7304
        -0.000          -0.000
 -10035992.680 9  -7805446.44846  23966078.418    23966077.2004   23966085.0394
        -0.000          -0.000
 -26349685.955 9 -20269123.37448  21323078.375    21323077.6404   21323083.1244
        -0.000          -0.000
 97  3  7  0 35 59.9990000  0  7 30 24  4  7  9 10  5               -0.000193482
 -12433801.329 9  -9670525.01346  23645528.635    23645528.6714   23645534.3134
        -0.000          -0.000
 -33394248.781 9 -26000242.05049  20273780.607    20273780.2444   20273786.3094
        -0.000          -0.000
 -15553932.034 9 -12097167.03948  21162986.323    21162986.2594   21162991.3624
        -0.000          -0.000
  11396712.252 9   8881195.72545  23713689.248    23713688.3254   23713694.5564
        -0.000          -0.000
 -18496707.202 9 -14392610.89548  21657829.617    21657829.2274   21657834.9554
        -0.000          -0.000
 -10149734.081 9  -7894076.02646  23944434.105    23944432.8944   23944440.7384
        -0.000          -0.000
 -26435601.595 9 -20336070.61548  21306729.151    21306728.4194   21306733.8984
        -0.000          -0.000
 97  3  7  0 36 29.9990000  0  7 30 24  4  7  9 10  5               -0.000205782
 -12550604.443 9  -9761540.37946  23623301.724    23623301.7594   23623307.4224
        -0.000          -0.000
 -33426376.500 9 -26025276.62649  20267666.947    20267666.5864   20267672.6114
        -0.000          -0.000
 -15511644.826 9 -12064215.96548  21171033.326    21171033.2494   21171038.3394
        -0.000          -0.000
  11444213.519 9   8918209.68345  23722728.497    23722727.5674   23722733.8214
        -0.000          -0.000
 -18467543.557 9 -14369885.99548  21663379.262    21663378.8554   21663384.5884
        -0.000          -0.000
 -10263480.437 9  -7982709.45746  23922788.879    23922787.6694   23922795.4644
        -0.000          -0.000
 -26521251.411 9 -20402810.72348  21290430.516    21290429.7924   21290435.2654
        -0.000          -0.000
 97  3  7  0 36 59.9990000  0  7 30 24  4  7  9 10  5               -0.000218084
 -12667358.515 9  -9852517.53146  23601084.150    23601084.1694   23601089.7944
        -0.000          -0.000
 -33457994.644 9 -26049914.12649  20261650.176    20261649.7924   20261655.8404
        -0.000          -0.000
 -15468985.151 9 -12030974.66348  21179151.190    21179151.1194   21179156.2114
        -0.000          -0.000
  11491709.005 9   8955219.15745  23731766.563    23731765.6204   23731771.9484
        -0.000          -0.000
 -18437910.644 9 -14346795.42848  21669018.245    21669017.8514   21669023.5594
        -0.000          -0.000
 -10377235.997 9  -8071350.06246  23901141.849    23901140.6944   23901148.4944
        -0.000          -0.000
 -26606634.444 9 -20469342.94448  21274182.675    21274181.9304   21274187.4384
        -0.000          -0.000
 97  3  7  0 37 29.9990000  0  7 30 24  4  7  9 10  5               -0.000230398
 -12784072.125 9  -9943463.16046  23578874.227    23578874.3244   23578879.7944
        -0.000          -0.000
 -33489089.047 9 -26074143.51649  20255733.073    20255732.6984   20255738.7414
        -0.000          -0.000
 -15425964.633 9 -11997452.17948  21187337.771    21187337.6714   21187342.7424
        -0.000          -0.000
  11539185.342 9   8992213.69245  23740800.912    23740800.0854   23740806.3924
        -0.000          -0.000
 -18407811.344 9 -14323341.43948  21674745.978    21674745.5564   21674751.2904
        -0.000          -0.000
 -10491003.242 9  -8159999.79446  23879492.650    23879491.4824   23879499.2644
        -0.000          -0.000
 -26691754.979 9 -20535670.62248  21257984.781    21257984.0444   21257989.5104
        -0.000          -0.000
 97  3  7  0 37 59.9990000  0  7 30 24  4  7  9 10  5               -0.000242703
 -12900724.427 9 -10034361.02846  23556676.058    23556676.1424   23556681.5204
        -0.000          -0.000
 -33519645.242 9 -26097953.52349  20249918.419    20249918.0534   20249924.0874
        -0.000          -0.000
 -15382566.947 9 -11963635.79748  21195596.019    21195595.9544   21195601.0134
        -0.000          -0.000
  11586660.350 9   9029207.20445  23749835.146    23749834.2824   23749840.6304
        -0.000          -0.000
 -18377233.975 9 -14299514.93448  21680564.656    21680564.2384   21680569.9454
        -0.000          -0.000
 -10604734.788 9  -8248621.69746  23857850.180    23857849.0754   23857856.8494
        -0.000          -0.000
 -26776594.360 9 -20601779.22148  21241840.334    21241839.6014   21241845.0834
        -0.000          -0.000
 97  3  7  0 38 29.9990000  0  7 30 24  4  7  9 10  5               -0.000255020
 -13017354.157 9 -10125241.29746  23534482.065    23534482.1284   23534487.4614
        -0.000          -0.000
 -33549697.537 9 -26121370.88549  20244199.618    20244199.2624   20244205.2814
        -0.000          -0.000
 -15338796.989 9 -11929529.34048  21203925.176    21203925.1184   21203930.1534
        -0.000          -0.000
  11634110.636 9   9066181.43046  23758864.625    23758863.8214   23758870.1274
        -0.000          -0.000
 -18346206.247 9 -14275337.49748  21686469.031    21686468.6304   21686474.3714
        -0.000          -0.000
 -10718446.086 9  -8337227.84346  23836211.563    23836210.4854   23836218.1234
        -0.000          -0.000
 -26861190.718 9 -20667698.44848  21225742.193    21225741.4354   21225746.9634
        -0.000          -0.000
 97  3  7  0 38 59.9990000  0  7 30 24  4  7  9 10  5               -0.000267347
 -13133955.309 9 -10216099.27646  23512293.560    23512293.5574   23512298.9934
        -0.000          -0.000
 -33579239.370 9 -26144390.48249  20238578.013    20238577.6544   20238583.6754
        -0.000          -0.000
 -15294637.655 9 -11895119.46948  21212328.423    21212328.3514   21212333.3794
        -0.000          -0.000
  11681551.917 9   9103148.63946  23767892.394    23767891.5704   23767897.9874
        -0.000          -0.000
 -18314727.716 9 -14250808.78748  21692459.225    21692458.7934   21692464.5364
        -0.000          -0.000
 -10832132.428 9  -8425814.53446  23814577.666    23814576.6214   23814584.1844
        -0.000          -0.000
 -26945539.934 9 -20733425.09548  21209691.020    21209690.2774   21209695.8324
        -0.000          -0.000
 97  3  7  0 39 29.9990000  0  7 30 24  4  7  9 10  5               -0.000279686
 -13250542.034 9 -10306946.02246  23490107.759    23490107.8174   23490113.2914
        -0.000          -0.000
 -33608284.160 9 -26167022.77149  20233050.980    20233050.6214   20233056.6384
        -0.000          -0.000
 -15250082.016 9 -11860400.78448  21220807.072    21220807.0114   21220812.0474
        -0.000          -0.000
  11728996.745 9   9140118.62146  23776920.785    23776920.0304   23776926.5254
        -0.000          -0.000
 -18282820.759 9 -14225946.23248  21698530.903    21698530.5004   21698536.2554
        -0.000          -0.000
 -10945789.643 9  -8514378.52846  23792949.383    23792948.2754   23792955.9614
        -0.000          -0.000
 -27029639.178 9 -20798956.96248  21193687.469    21193686.7364   21193692.2854
        -0.000          -0.000
 97  3  7  0 39 59.9990000  0  7 30 24  4  7  9 10  5               -0.000292039
 -13367115.608 9 -10397782.53346  23467924.572    23467924.5244   23467930.0024
        -0.000          -0.000
 -33636854.788 9 -26189285.58649  20227614.148    20227613.7944   20227619.7984
        -0.000          -0.000
 -15205129.366 9 -11825372.74848  21229361.234    21229361.1794   21229366.2344
        -0.000          -0.000
  11776455.884 9   9177099.76046  23785951.947    23785951.1194   23785957.5514
        -0.000          -0.000
 -18250506.546 9 -14200766.33348  21704680.101    21704679.7234   21704685.4734
        -0.000          -0.000
 -11059437.421 9  -8602935.18246  23771322.876    23771321.8564   23771329.3514
        -0.000          -0.000
 -27113491.251 9 -20864296.22748  21177730.945    21177730.1834   21177735.7494
        -0.000          -0.000
 97  3  7  0 40 29.9990000  0  7 30 24  4  7  9 10  5               -0.000304397
 -13483645.833 9 -10488585.27346  23445749.603    23445749.5364   23445755.0054
        -0.000          -0.000
 -33664927.245 9 -26211160.21249  20222272.125    20222271.7734   20222277.7794
        -0.000          -0.000
 -15159764.666 9 -11790023.63348  21237993.874    21237993.8134   21237998.8494
        -0.000          -0.000
  11823961.193 9   9214116.85346  23794992.049    23794991.1414   23794997.6094
        -0.000          -0.000
 -18217758.468 9 -14175248.36548  21710911.905    21710911.4894   21710917.2384
        -0.000          -0.000
 -11173085.033 9  -8691491.69346  23749696.343    23749695.3384   23749702.8704
        -0.000          -0.000
 -27197071.817 9 -20929423.93148  21161826.075    21161825.3234   21161830.8564
        -0.000          -0.000
 97  3  7  0 40 59.9990000  0  7 30 24  4  7  9 10  5               -0.000316770
 -13600125.447 9 -10579348.56146  23423584.162    23423584.1404   23423589.6554
        -0.000          -0.000
 -33692514.955 9 -26232657.11349  20217022.346    20217021.9974   20217027.9724
        -0.000          -0.000
 -15114007.126 9 -11754368.40648  21246701.214    21246701.1654   21246706.2104
        -0.000          -0.000
  11871488.538 9   9251151.13346  23804036.224    23804035.2794   23804041.8544
        -0.000          -0.000
 -18184601.021 9 -14149411.41148  21717221.574    21717221.1714   21717226.9384
        -0.000          -0.000
 -11286759.658 9  -8780069.25846  23728064.706    23728063.7344   23728071.2454
        -0.000          -0.000
 -27280386.202 9 -20994344.21848  21145971.843    21145971.0994   21145976.6214
        -0.000          -0.000
 97  3  7  0 41 29.9990000  0  7 30 24  4  7  9 10  5               -0.000329153
 -13716534.238 9 -10670056.67146  23401432.275    23401432.3064   23401437.7634
        -0.000          -0.000
 -33719604.325 9 -26253765.69849  20211867.421    20211867.0564   20211873.0324
        -0.000          -0.000
 -15067861.375 9 -11718410.67848  21255482.462    21255482.4064   21255487.4474
        -0.000          -0.000
  11919037.375 9   9288202.15946  23813084.504    23813083.5854   23813090.1564
        -0.000          -0.000
 -18151033.529 9 -14123254.93448  21723609.252    21723608.8494   21723614.6304
        -0.000          -0.000
 -11400457.731 9  -8868665.08646  23706428.588    23706427.5724   23706435.1714
        -0.000          -0.000
 -27363426.797 9 -21059051.16148  21130169.738    21130168.9984   21130174.5264
        -0.000          -0.000
 97  3  7  0 41 59.9990000  0  7 30 24  4  7  9 10  5               -0.000341550
 -13832865.272 9 -10760704.18546  23379295.217    23379295.1914   23379300.6794
        -0.000          -0.000
 -33746186.722 9 -26274479.24349  20206808.959    20206808.5884   20206814.5494
        -0.000          -0.000
 -15021346.315 9 -11682165.17548  21264334.006    21264333.9384   21264338.9764
        -0.000          -0.000
  11966585.921 9   9325252.96446  23822132.709    23822131.7914   23822138.3034
        -0.000          -0.000
 -18117043.992 9 -14096769.59548  21730077.262    21730076.8514   21730082.6384
        -0.000          -0.000
 -11514180.584 9  -8957280.22346  23684787.813    23684786.8354   23684794.3164
        -0.000          -0.000
 -27446198.335 9 -21123548.45148  21114418.809    21114418.0734   21114423.5874
        -0.000          -0.000
 97  3  7  0 42 29.9990000  0  7 30 24  4  7  9 10  5               -0.000353958
 -13949110.453 9 -10851284.80246  23357174.440    23357174.4554   23357179.8904
        -0.000          -0.000
 -33772253.560 9 -26294791.05149  20201848.598    20201848.2224   20201854.1814
        -0.000          -0.000
 -14974483.829 9 -11645648.95148  21273251.649    21273251.5844   21273256.6144
        -0.000          -0.000
  12014121.833 9   9362293.92646  23831178.463    23831177.6194   23831184.1464
        -0.000          -0.000
 -18082635.569 9 -14069957.85448  21736624.935    21736624.5084   21736630.3094
        -0.000          -0.000
 -11627911.193 9  -9045901.38746  23663145.472    23663144.4374   23663151.9304
        -0.000          -0.000
 -27528705.653 9 -21187839.85948  21098718.197    21098717.4724   21098722.9984
        -0.000          -0.000
 97  3  7  0 42 59.9990000  0  7 30 24  4  7  9 10  5               -0.000366372
 -14065269.054 9 -10941797.94446  23335070.154    23335070.1574   23335075.6034
        -0.000          -0.000
 -33797792.903 9 -26314691.82249  20196988.619    20196988.2464   20196994.1804
        -0.000          -0.000
 -14927271.420 9 -11608860.05848  21282235.877    21282235.8154   21282240.8394
        -0.000          -0.000
  12061644.819 9   9399324.80846  23840221.784    23840220.9694   23840227.5224
        -0.000          -0.000
 -18047810.119 9 -14042821.14848  21743251.982    21743251.5604   21743257.3634
        -0.000          -0.000
 -11741619.352 9  -9134505.07346  23641507.438    23641506.3564   23641513.8474
        -0.000          -0.000
 -27610947.693 9 -21251924.55648  21083068.103    21083067.3564   21083072.8564
        -0.000          -0.000
 97  3  7  0 43 29.9990000  0  7 30 24  4  7  9 10  5               -0.000378781
 -14181337.386 9 -11032240.75746  23312983.099    23312983.0184   23312988.4534
        -0.000          -0.000
 -33822781.052 9 -26334163.09549  20192233.498    20192233.1184   20192239.0564
        -0.000          -0.000
 -14879708.453 9 -11571798.00348  21291286.854    21291286.7694   21291291.7994
        -0.000          -0.000
  12109180.441 9   9436365.52346  23849267.490    23849266.6364   23849273.2934
        -0.000          -0.000
 -18012555.662 9 -14015350.15448  21749960.696    21749960.2664   21749966.0774
        -0.000          -0.000
 -11855269.209 9  -9223063.32246  23619880.537    23619879.4874   23619886.8994
        -0.000          -0.000
 -27692915.046 9 -21315795.20948  21067470.257    21067469.4944   21067474.9794
        -0.000          -0.000
 97  3  7  0 43 59.9990000  0  7 30 24  4  7  9 10  5               -0.000391192
 -14297335.785 9 -11122629.06746  23290909.298    23290909.1994   23290914.6834
        -0.000          -0.000
 -33847233.138 9 -26353216.65749  20187580.397    20187580.0294   20187585.9544
        -0.000          -0.000
 -14831799.920 9 -11534466.67948  21300403.531    21300403.4474   21300408.4684
        -0.000          -0.000
  12156725.348 9   9473413.50146  23858315.027    23858314.1534   23858320.7194
        -0.000          -0.000
 -17976888.264 9 -13987557.39448  21756748.027    21756747.5874   21756753.4084
        -0.000          -0.000
 -11968857.047 9  -9311573.24146  23598265.509    23598264.4714   23598271.8604
        -0.000          -0.000
 -27774621.814 9 -21379462.80848  21051921.920    21051921.1784   21051926.6594
        -0.000          -0.000
 97  3  7  0 44 29.9990000  0  7 30 24  4  7  9 10  5               -0.000403601
 -14413258.435 9 -11212958.36346  23268849.904    23268849.8404   23268855.2214
        -0.000          -0.000
 -33871146.969 9 -26371850.79949  20183029.735    20183029.3704   20183035.2924
        -0.000          -0.000
 -14783521.440 9 -11496847.08348  21309590.636    21309590.5274   21309595.5524
        -0.000          -0.000
  12204292.793 9   9510479.01446  23867366.825    23867365.8674   23867372.5384
        -0.000          -0.000
 -17940816.181 9 -13959449.29348  21763612.320    21763611.8854   21763617.7254
        -0.000          -0.000
 -12082369.010 9  -9400024.03846  23576664.881    23576663.7264   23576671.1274
        -0.000          -0.000
 -27856053.934 9 -21442916.39948  21036425.888    21036425.1364   21036430.6164
        -0.000          -0.000
 97  3  7  0 44 59.9990000  0  7 30 24  4  7  9 10  5               -0.000416006
 -14529098.062 9 -11303222.97246  23246806.293    23246806.2504   23246811.6404
        -0.000          -0.000
 -33894522.107 9 -26390065.17949  20178581.559    20178581.1894   20178587.1234
        -0.000          -0.000
 -14734855.664 9 -11458925.69748  21318851.386    21318851.2664   21318856.3314
        -0.000          -0.000
  12251887.802 8   9547566.01545  23876423.880    23876422.9074   23876429.6004
        -0.000          -0.000
 -17904322.262 9 -13931012.49248  21770556.895    21770556.4674   21770562.3024
        -0.000          -0.000
 -12195793.538 9  -9488406.70646  23555080.833    23555079.7584   23555087.1084
        -0.000          -0.000
 -27937195.067 9 -21506143.24448  21020985.244    21020984.5054   21020989.9614
        -0.000          -0.000
 97  3  7  0 45 29.9990000  0  7 30 24  4  7  9 10  5               -0.000428410
 -14644859.479 9 -11393426.62746  23224777.632    23224777.5714   23224783.0054
        -0.000          -0.000
 -33917374.737 9 -26407872.41349  20174232.859    20174232.4904   20174238.4074
        -0.000          -0.000
 -14685825.127 9 -11420720.07948  21328181.560    21328181.4674   21328186.5454
        -0.000          -0.000
  12299500.730 8   9584666.98845  23885484.305    23885483.2944   23885489.9124
        -0.000          -0.000
 -17867424.258 9 -13902260.81848  21777578.401    21777577.9574   21777583.7994
        -0.000          -0.000
 -12309144.998 9  -9576732.43646  23533510.711    23533509.6304   23533516.8624
        -0.000          -0.000
 -28018044.666 9 -21569142.92148  21005600.093    21005599.3564   21005604.8054
        -0.000          -0.000
 97  3  7  0 45 59.9990000  0  7 30 24  4  7  9 10  5               -0.000440814
 -14760531.864 9 -11483560.92046  23202765.907    23202765.7904   23202771.2654
        -0.000          -0.000
 -33939716.144 9 -26425281.29149  20169981.393    20169981.0334   20169986.9524
        -0.000          -0.000
 -14636428.044 9 -11382228.84848  21337581.484    21337581.3904   21337586.4794
        -0.000          -0.000
  12347126.526 8   9621777.98845  23894547.166    23894546.1304   23894552.8124
        -0.000          -0.000
 -17830115.951 9 -13873189.42448  21784677.906    21784677.4924   21784683.3304
        -0.000          -0.000
 -12422433.386 9  -9665009.02546  23511952.601    23511951.5154   23511958.7624
        -0.000          -0.000
 -28098589.705 9 -21631905.27748  20990272.851    20990272.1274   20990277.5764
        -0.000          -0.000
 97  3  7  0 46 29.9990000  0  7 30 24  4  7  9 10  5               -0.000453220
 -14876111.333 9 -11573622.80246  23180771.758    23180771.6374   23180777.2194
        -0.000          -0.000
 -33961559.647 9 -26442302.19349  20165824.727    20165824.3704   20165830.3004
        -0.000          -0.000
 -14586693.644 9 -11343474.77348  21347045.589    21347045.5184   21347050.6294
        -0.000          -0.000
  12394754.538 8   9658890.71245  23903610.466    23903609.4354   23903616.2234
        -0.000          -0.000
 -17792399.438 9 -13843799.95448  21791855.072    21791854.6934   21791860.5274
        -0.000          -0.000
 -12535675.057 9  -9753249.21346  23490403.330    23490402.2834   23490409.5404
        -0.000          -0.000
 -28178817.549 9 -21694420.47049  20975005.964    20975005.2464   20975010.7114
        -0.000          -0.000
 97  3  7  0 46 59.9990000  0  7 30 24  4  7  9 10  5               -0.000465621
 -14991594.654 9 -11663609.77346  23158796.018    23158795.9194   23158801.3824
        -0.000          -0.000
 -33982907.468 9 -26458936.84849  20161762.333    20161761.9834   20161767.9044
        -0.000          -0.000
 -14536639.921 9 -11304471.87048  21356570.444    21356570.3744   21356575.5164
        -0.000          -0.000
  12442398.298 8   9696015.69545  23912676.743    23912675.8394   23912682.4834
        -0.000          -0.000
 -17754263.359 9 -13814083.55248  21799112.150    21799111.7594   21799117.5834
        -0.000          -0.000
 -12648876.656 9  -9841458.17346  23468861.694    23468860.7064   23468867.9274
        -0.000          -0.000
 -28258724.275 9 -21756685.43849  20959800.191    20959799.4834   20959804.9384
        -0.000          -0.000
 97  3  7  0 47 29.9990000  0  7 30 24  4  7  9 10  5               -0.000478025
 -15106992.310 9 -11753529.98246  23136836.507    23136836.4514   23136841.9074
        -0.000          -0.000
 -34003751.178 9 -26475178.69049  20157795.886    20157795.5394   20157801.4574
        -0.000          -0.000
 -14486264.092 9 -11265217.97648  21366156.620    21366156.5684   21366161.6994
        -0.000          -0.000
  12490070.948 8   9733163.19745  23921748.551    23921747.6384   23921754.2044
        -0.000          -0.000
 -17715720.773 9 -13784050.37548  21806446.593    21806446.2024   21806452.0304
        -0.000          -0.000
 -12762039.160 9  -9929636.67546  23447327.512    23447326.5044   23447333.7614
        -0.000          -0.000
 -28338302.099 9 -21818694.12049  20944657.021    20944656.3364   20944661.7584
        -0.000          -0.000
 97  3  7  0 47 59.9990000  0  7 30 24  4  7  9 10  5               -0.000490436
 -15222307.218 9 -11843385.71646  23114892.749    23114892.7334   23114898.1764
        -0.000          -0.000
 -34024105.331 9 -26491039.06049  20153922.597    20153922.2704   20153928.1814
        -0.000          -0.000
 -14435549.687 9 -11225700.26048  21375807.276    21375807.2174   21375812.3364
        -0.000          -0.000
  12537762.356 8   9770325.30945  23930823.882    23930823.0574   23930829.5304
        -0.000          -0.000
 -17676769.957 9 -13753699.10648  21813858.689    21813858.3404   21813864.1634
        -0.000          -0.000
 -12875162.898 9 -10017784.95946  23425800.781    23425799.7364   23425806.9444
        -0.000          -0.000
 -28417554.654 9 -21880449.35049  20929575.754    20929575.0574   20929580.4684
        -0.000          -0.000
 97  3  7  0 48 29.9990000  0  7 30 24  4  7  9 10  5               -0.000502857
 -15337549.544 9 -11933184.89446  23092962.874    23092962.8254   23092968.2364
        -0.000          -0.000
 -34043957.697 9 -26506508.42449  20150144.806    20150144.4754   20150150.4084
        -0.000          -0.000
 -14384498.208 9 -11185919.88348  21385522.046    21385522.0214   21385527.1304
        -0.000          -0.000
  12585475.359 8   9807504.25545  23939903.419    23939902.7704   23939908.8124
        -0.000          -0.000
 -17637412.436 9 -13723030.92248  21821348.183    21821347.8154   21821353.6354
        -0.000          -0.000
 -12988236.773 9 -10105894.41246  23404283.512    23404282.4634   23404289.6264
        -0.000          -0.000
 -28496487.207 9 -21941955.22749  20914555.411    20914554.7054   20914560.1194
        -0.000          -0.000
 97  3  7  0 48 59.9990000  0  7 30 24  4  7  9 10  5               -0.000515295
 -15452731.240 9 -12022936.82946  23071044.490    23071044.4494   23071049.8414
        -0.000          -0.000
 -34063316.145 9 -26521592.91849  20146460.997    20146460.6664   20146466.5964
        -0.000          -0.000
 -14333108.952 9 -11145876.30548  21395301.054    21395301.0324   21395306.1624
        -0.000          -0.000
  12633206.459 8   9844697.32945  23948986.317    23948985.6324   23948991.8084
        -0.000          -0.000
 -17597667.516 9 -13692060.87448  21828911.390    21828911.0294   21828916.8904
        -0.000          -0.000
 -13101257.234 9 -10193962.22646  23382776.421    23382775.3124   23382782.4864
        -0.000          -0.000
 -28575122.483 9 -22003229.45749  20899591.574    20899590.8744   20899596.2814
        -0.000          -0.000
 97  3  7  0 49 29.9990000  0  7 30 24  4  7  9 10  5               -0.000527755
 -15567852.217 9 -12112641.45346  23049137.608    23049137.6444   23049142.9794
        -0.000          -0.000
 -34082190.959 9 -26536300.55249  20142869.226    20142868.9024   20142874.8484
        -0.000          -0.000
 -14281387.666 9 -11105574.00648  21405143.312    21405143.2984   21405148.4054
        -0.000          -0.000
  12680937.076 8   9881890.00445  23958069.147    23958068.4744   23958074.8794
        -0.000          -0.000
 -17557557.560 9 -13660806.38548  21836544.049    21836543.6854   21836549.5514
        -0.000          -0.000
 -13214218.830 9 -10281984.19746  23361280.422    23361279.3434   23361286.5354
        -0.000          -0.000
 -28653473.784 9 -22064282.40749  20884681.790    20884681.1064   20884686.5194
        -0.000          -0.000
 97  3  7  0 49 59.9990000  0  7 30 24  4  7  9 10  5               -0.000540220
 -15682888.479 9 -12202280.05646  23027246.881    23027246.9494   23027252.3174
        -0.000          -0.000
 -34100581.531 9 -26550630.85649  20139369.578    20139369.2554   20139375.2164
        -0.000          -0.000
 -14229334.332 9 -11065012.96648  21415048.750    21415048.7004   21415053.8034
        -0.000          -0.000
  12728677.405 8   9919090.26145  23967153.768    23967153.3554   23967159.4724
        -0.000          -0.000
 -17517055.680 9 -13629246.49248  21844251.269    21844250.9304   21844256.8094
        -0.000          -0.000
 -13327109.271 9 -10369950.70746  23339797.984    23339796.9554   23339804.1714
        -0.000          -0.000
 -28731533.794 9 -22125108.37849  20869827.460    20869826.7704   20869832.1974
        -0.000          -0.000
 97  3  7  0 50 29.9990000  0  7 30 24  4  7  9 10  5               -0.000552683
 -15797829.456 9 -12291844.42746  23005374.298    23005374.3514   23005379.7034
        -0.000          -0.000
 -34118472.337 9 -26564571.73249  20135965.061    20135964.7524   20135970.7204
        -0.000          -0.000
 -14176962.339 9 -11024203.62148  21425014.796    21425014.7914   21425019.9004
        -0.000          -0.000
  12776443.973 8   9956310.95545  23976243.415    23976242.9934   23976249.3524
        -0.000          -0.000
 -17476160.571 9 -13597380.19448  21852033.384    21852033.0124   21852038.9044
        -0.000          -0.000
 -13439924.159 9 -10457858.35346  23318329.926    23318328.8974   23318336.1194
        -0.000          -0.000
 -28809298.525 9 -22185704.26549  20855029.313    20855028.6344   20855034.0394
        -0.000          -0.000
 97  3  7  0 50 59.9990000  0  7 30 24  4  7  9 10  5               -0.000565152
 -15912673.723 9 -12381333.43346  22983520.131    22983520.2204   22983525.5744
        -0.000          -0.000
 -34135892.970 9 -26578146.24249  20132650.004    20132649.6974   20132655.6704
        -0.000          -0.000
 -14124283.624 9 -10983155.27248  21435039.250    21435039.2114   21435044.3224
        -0.000          -0.000
  12824209.329 8   9993530.70945  23985332.872    23985332.3404   23985338.7714
        -0.000          -0.000
 -17434905.903 9 -13565233.71948  21859883.857    21859883.4984   21859889.3904
        -0.000          -0.000
 -13552682.211 9 -10545721.71546  23296872.691    23296871.6424   23296879.0014
        -0.000          -0.000
 -28886791.117 9 -22246088.09349  20840282.965    20840282.2634   20840287.6784
        -0.000          -0.000
 97  3  7  0 51 29.9990000  0  7 30 24  4  7  9 10  5               -0.000577631
 -16027419.281 9 -12470745.52246  22961684.757    22961684.8464   22961690.1684
        -0.000          -0.000
 -34152845.991 9 -26591356.38049  20129423.936    20129423.6304   20129429.5974
        -0.000          -0.000
 -14071290.068 9 -10941861.59148  21445123.603    21445123.5404   21445128.6514
        -0.000          -0.000
  12871966.441 9  10030744.05045  23994420.810    23994420.2094   23994426.7124
        -0.000          -0.000
 -17393297.190 9 -13532811.36448  21867801.751    21867801.3864   21867807.2674
        -0.000          -0.000
 -13665380.307 9 -10633538.34646  23275426.831    23275425.8384   23275433.2114
        -0.000          -0.000
 -28964004.129 9 -22306254.06549  20825589.769    20825589.0854   20825594.4884
        -0.000          -0.000
 97  3  7  0 51 59.9990000  0  7 30 24  4  7  9 10  5               -0.000590117
 -16142056.480 9 -12560073.17146  22939870.047    22939870.0984   22939875.3354
        -0.000          -0.000
 -34169319.219 9 -26604192.65049  20126289.164    20126288.8704   20126294.8534
        -0.000          -0.000
 -14017968.560 9 -10900312.36648  21455270.363    21455270.3054   21455275.4304
        -0.000          -0.000
  12919725.622 9  10067958.99545  24003509.068    24003508.4374   24003514.9624
        -0.000          -0.000
 -17351330.355 9 -13500109.95748  21875787.806    21875787.4284   21875793.3424
        -0.000          -0.000
 -13778011.235 9 -10721302.65246  23253993.826    23253992.7764   23254000.1854
        -0.000          -0.000
 -29040926.611 9 -22366193.64749  20810951.904    20810951.2184   20810956.6454
        -0.000          -0.000
 97  3  7  0 52 29.9990000  0  7 30 24  4  7  9 10  5               -0.000602609
 -16256573.790 9 -12649307.40646  22918078.103    22918078.1154   22918083.3994
        -0.000          -0.000
 -34185305.638 9 -26616649.58949  20123247.031    20123246.7364   20123252.7164
        -0.000          -0.000
 -13964319.723 9 -10858508.07648  21465479.373    21465479.3384   21465484.4644
        -0.000          -0.000
  12967489.398 9  10105177.52945  24012598.192    24012597.4744   24012604.0404
        -0.000          -0.000
 -17309032.811 9 -13467150.84348  21883836.788    21883836.3954   21883842.3244
        -0.000          -0.000
 -13890560.905 9 -10809003.65146  23232576.284    23232575.2734   23232582.6504
        -0.000          -0.000
 -29117555.836 9 -22425904.72349  20796369.832    20796369.1634   20796374.5634
        -0.000          -0.000
 97  3  7  0 52 59.9990000  0  7 30 24  4  7  9 10  5               -0.000615108
 -16370976.065 9 -12738451.98846  22896308.021    22896307.9964   22896313.3874
        -0.000          -0.000
 -34200815.573 9 -26628735.24349  20120295.590    20120295.2894   20120301.2524
        -0.000          -0.000
 -13910343.763 9 -10816448.88448  21475750.669    21475750.6474   21475755.7544
        -0.000          -0.000
  13015258.227 9  10142399.98245  24021688.263    24021687.6224   24021694.1534
        -0.000          -0.000
 -17266403.070 9 -13433932.88048  21891948.939    21891948.5594   21891954.4564
        -0.000          -0.000
 -14003025.572 9 -10896638.40346  23211174.904    23211173.8894   23211181.1634
        -0.000          -0.000
 -29193882.326 9 -22485379.89849  20781845.333    20781844.6684   20781850.0954
        -0.000          -0.000
 97  3  7  0 53 29.9990000  0  7 30 24  4  7  9 10  5               -0.000627615
 -16485286.704 9 -12827525.18346  22874555.385    22874555.3654   22874560.7464
        -0.000          -0.000
 -34215853.061 9 -26640452.74949  20117434.061    20117433.7604   20117439.7184
        -0.000          -0.000
 -13856064.526 9 -10774153.37448  21486079.676    21486079.6274   21486084.7524
        -0.000          -0.000
  13063045.843 9  10179637.09545  24030782.103    24030781.3264   24030787.9304
        -0.000          -0.000
 -17223427.780 9 -13400445.65848  21900126.863    21900126.4884   21900132.4224
        -0.000          -0.000
 -14115401.594 9 -10984204.09846  23189790.418    23189789.4124   23189796.7004
        -0.000          -0.000
 -29269897.447 9 -22544612.44849  20767380.121    20767379.4524   20767384.8784
        -0.000          -0.000
 97  3  7  0 53 59.9990000  0  7 30 24  4  7  9 10  5               -0.000640122
 -16599500.534 9 -12916522.94046  22852821.151    22852821.2214   22852826.5144
        -0.000          -0.000
 -34230398.318 9 -26651786.70749  20114666.145    20114665.8474   20114671.8164
        -0.000          -0.000
 -13801489.878 9 -10731627.67848  21496464.857    21496464.8174   21496469.9464
        -0.000          -0.000
  13110868.222 9  10216901.29045  24039882.426    24039881.6864   24039888.2164
        -0.000          -0.000
 -17180074.732 9 -13366664.07948  21908376.672    21908376.3174   21908382.2554
        -0.000          -0.000
 -14227677.826 9 -11071692.02046  23168424.937    23168423.9844   23168431.2384
        -0.000          -0.000
 -29345592.376 9 -22603595.49949  20752975.870    20752975.2044   20752980.6234
        -0.000          -0.000
 97  3  7  0 54 29.9990000  0  7 30 24  4  7  9 10  5               -0.000652640
 -16713634.670 9 -13005458.60946  22831102.146    22831102.1974   22831107.5004
        -0.000          -0.000
 -34244456.218 9 -26662740.90249  20111991.022    20111990.7394   20111996.6974
        -0.000          -0.000
 -13746640.216 9 -10688887.68048  21506902.401    21506902.3614   21506907.4634
        -0.000          -0.000
  13158707.540 9  10254178.68345  24048985.999    24048985.2644   24048991.8004
        -0.000          -0.000
 -17136340.412 9 -13332585.40748  21916699.075    21916698.6954   21916704.6054
        -0.000          -0.000
 -14339857.575 9 -11159104.76446  23147077.868    23147076.8924   23147084.0544
        -0.000          -0.000
 -29420964.891 9 -22662327.31749  20738632.951    20738632.2744   20738637.7034
        -0.000          -0.000
 97  3  7  0 54 59.9990000  0  7 30 24  4  7  9 10  5               -0.000665182
 -16827704.444 9 -13094344.10746  22809395.359    22809395.3444   22809400.6884
        -0.000          -0.000
 -34258032.021 9 -26673319.43749  20109407.627    20109407.3274   20109413.2894
        -0.000          -0.000
 -13691514.600 9 -10645932.65748  21517392.426    21517392.3794   21517397.5044
        -0.000          -0.000
  13206541.327 9  10291451.75046  24058088.446    24058087.7124   24058094.3044
        -0.000          -0.000
 -17092210.295 9 -13298198.31848  21925096.758    21925096.3824   21925102.3344
        -0.000          -0.000
 -14451944.595 9 -11246445.25346  23125748.421    23125747.4394   23125754.5714
        -0.000          -0.000
 -29496018.234 9 -22720810.43149  20724350.764    20724350.0914   20724355.5064
        -0.000          -0.000
 97  3  7  0 55 29.9990000  0  7 30 24  4  7  9 10  5               -0.000677748
 -16941690.259 9 -13183164.18546  22787704.475    22787704.5214   22787709.8524
        -0.000          -0.000
 -34271105.363 9 -26683506.44649  20106919.830    20106919.5394   20106925.4944
        -0.000          -0.000
 -13636102.697 9 -10602754.55048  21527936.950    21527936.9204   21527942.0274
        -0.000          -0.000
  13254362.855 9  10328715.27345  24067188.593    24067187.9124   24067194.4334
        -0.000          -0.000
 -17047690.519 9 -13263507.60248  21933568.589    21933568.2274   21933574.1994
        -0.000          -0.000
 -14563919.739 9 -11333698.57246  23104440.198    23104439.2504   23104446.3084
        -0.000          -0.000
 -29570741.806 9 -22779036.58149  20710131.309    20710130.6454   20710136.0654
        -0.000          -0.000
 97  3  7  0 55 59.9990000  0  7 30 24  4  7  9 10  5               -0.000690359
 -17055590.205 9 -13271917.35546  22766029.976    22766030.0654   22766035.4074
        -0.000          -0.000
 -34283697.136 9 -26693318.20849  20104523.692    20104523.3884   20104529.3424
        -0.000          -0.000
 -13580415.270 9 -10559361.75248  21538533.932    21538533.8834   21538539.0074
        -0.000          -0.000
  13302124.745 9  10365932.30546  24076277.413    24076276.6814   24076283.2694
        -0.000          -0.000
 -17002823.432 9 -13228546.25848  21942106.544    21942106.1664   21942112.1584
        -0.000          -0.000
 -14675816.039 9 -11420890.44346  23083147.035    23083146.1104   23083153.0684
        -0.000          -0.000
 -29645149.898 9 -22837016.90749  20695971.930    20695971.2474   20695976.6664
        -0.000          -0.000
 97  3  7  0 56 29.9990000  0  7 30 24  4  7  9 10  5               -0.000703003
 -17169370.959 9 -13360577.65446  22744378.174    22744378.2454   22744383.6184
        -0.000          -0.000
 -34295796.618 9 -26702746.36549  20102221.216    20102220.9324   20102226.8914
        -0.000          -0.000
 -13524432.694 9 -10515738.96748  21549187.096    21549187.0184   21549192.1414
        -0.000          -0.000
  13349841.772 8  10403114.39045  24085357.723    24085356.8844   24085363.5684
        -0.000          -0.000
 -16957616.117 9 -13193319.79748  21950709.187    21950708.8304   21950714.8094
        -0.000          -0.000
 -14787612.728 9 -11508004.69346  23061872.794    23061871.8584   23061878.8154
        -0.000          -0.000
 -29719210.348 9 -22894726.34249  20681878.671    20681877.9944   20681883.3974
        -0.000          -0.000
 97  3  7  0 56 59.9990000  0  7 30 24  4  7  9 10  5               -0.000715673
 -17283022.324 9 -13449137.12647  22722751.024    22722751.1174   22722756.4774
        -0.000          -0.000
 -34307416.300 9 -26711800.65349  20100010.046    20100009.7434   20100015.7084
        -0.000          -0.000
 -13468155.252 9 -10471886.41248  21559896.347    21559896.2644   21559901.3884
        -0.000          -0.000
  13397533.053 8  10440276.42045  24094433.068    24094432.2914   24094438.9434
        -0.000          -0.000
 -16912088.457 9 -13157843.71748  21959372.835    21959372.4634   21959378.4394
        -0.000          -0.000
 -14899313.864 9 -11595044.48746  23040616.766    23040615.8134   23040622.7604
        -0.000          -0.000
 -29792930.196 9 -22952170.37249  20667850.240    20667849.5754   20667854.9674
        -0.000          -0.000
 97  3  7  0 57 29.9990000  0  7 30 24  4  7  9 10  5               -0.000728370
 -17396548.974 9 -13537599.41647  22701147.616    22701147.6634   22701153.0304
        -0.000          -0.000
 -34318569.432 9 -26720491.39849  20097887.681    20097887.3724   20097893.3594
        -0.000          -0.000
 -13411602.308 9 -10427819.18248  21570658.002    21570657.9344   21570663.0564
        -0.000          -0.000
  13445208.048 8  10477425.75545  24103505.212    24103504.5014   24103511.2824
        -0.000          -0.000
 -16866260.965 9 -13122134.00148  21968093.514    21968093.1764   21968099.1424
        -0.000          -0.000
 -15010936.107 9 -11682022.80446  23019375.776    23019374.7894   23019381.6824
        -0.000          -0.000
 -29866311.626 9 -23009350.70049  20653886.216    20653885.5534   20653890.9504
        -0.000          -0.000
 97  3  7  0 57 59.9990000  0  8 30 24  4  7  9 10  6  5            -0.000740946
 -17509949.457 9 -13625963.40147  22679568.198    22679568.2224   22679573.5924
        -0.000          -0.000
 -34329259.231 9 -26728821.10249  20095853.441    20095853.1304   20095859.1174
        -0.000          -0.000
 -13354783.971 9 -10383545.15548  21581470.129    21581470.0694   21581475.1864
        -0.000          -0.000
  13492896.981 8  10514585.94345  24112580.118    24112579.4404   24112586.2474
        -0.000          -0.000
 -16820110.720 9 -13086172.78748  21976875.625    21976875.2754   21976881.2534
        -0.000          -0.000
 -15122466.920 9 -11768929.87146  22998152.140    22998151.0814   22998158.0324
        -0.000          -0.000
  -2811834.05319  -2174285.05855  24640451.418    24640451.1415   24640458.8045
        -0.000          -0.000
 -29939350.883 9 -23066264.39849  20639987.280    20639986.6154   20639992.0244
        -0.000          -0.000
 97  3  7  0 58 29.9990000  0  8 30 24  4  7  9 10  6  5            -0.000753623
 -17623220.465 9 -13714226.48847  22658013.418    22658013.4244   22658018.8804
        -0.000          -0.000
 -34339473.153 9 -26736779.98949  20093909.785    20093909.4764   20093915.4774
        -0.000          -0.000
 -13297695.922 9 -10339060.96348  21592333.602    21592333.5684   21592338.6654
        -0.000          -0.000
  13540636.856 8  10551785.83145  24121664.726    24121663.9094   24121670.8704
        -0.000          -0.000
 -16773615.291 9 -13049942.60248  21985723.477    21985723.1214   21985729.0934
        -0.000          -0.000
 -15233869.727 9 -11855737.19546  22976952.813    22976951.7874   22976958.7404
        -0.000          -0.000
  -2900775.596 9  -2243590.05845  24623526.360    24623526.0384   24623533.5514
        -0.000          -0.000
 -30012041.856 9 -23122906.70949  20626154.656    20626154.0114   20626159.4034
        -0.000          -0.000
 97  3  7  0 58 59.9990000  0  8 30 24  4  7  9 10  6  5            -0.000766289
 -17736343.910 9 -13802374.59247  22636486.691    22636486.7464   22636492.2064
        -0.000          -0.000
 -34349213.343 9 -26744369.73649  20092056.298    20092055.9894   20092061.9754
        -0.000          -0.000
 -13240330.938 9 -10294360.97348  21603249.793    21603249.7614   21603254.8924
        -0.000          -0.000
  13588439.727 8  10589034.78445  24130761.237    24130760.4924   24130767.4124
        -0.000          -0.000
 -16726756.097 9 -13013428.95948  21994640.482    21994640.1374   21994646.1294
        -0.000          -0.000
 -15345135.511 9 -11942437.74546  22955779.611    22955778.5654   22955785.4984
        -0.000          -0.000
  -2989702.664 9  -2312883.78545  24606604.046    24606603.6834   24606611.1904
        -0.000          -0.000
 -30084385.391 9 -23179278.28549  20612388.115    20612387.4614   20612392.8744
        -0.000          -0.000
 97  3  7  0 59 29.9990000  0  8 30 24  4  7  9 10  6  5            -0.000778956
 -17849334.304 9 -13890419.03947  22614985.363    22614985.4014   22614990.8484
        -0.000          -0.000
 -34358496.270 9 -26751603.17849  20090289.811    20090289.5024   20090295.4844
        -0.000          -0.000
 -13182713.807 9 -10249464.50748  21614213.947    21614213.9114   21614219.0634
        -0.000          -0.000
  13636275.663 8  10626309.52045  24139864.036    24139863.3404   24139870.1354
        -0.000          -0.000
 -16679539.458 9 -12976636.79948  22003625.517    22003625.2174   22003631.1904
        -0.000          -0.000
 -15456268.775 9 -12029035.04646  22934631.624    22934630.5954   22934637.5374
        -0.000          -0.000
  -3078629.458 9  -2382177.30345  24589681.724    24589681.4684   24589688.8384
        -0.000          -0.000
 -30156397.373 9 -23235391.51149  20598684.673    20598684.0184   20598689.4354
        -0.000          -0.000
 97  3  7  0 59 59.9990000  0  8 30 24  4  7  9 10  6  5            -0.000791613
 -17962168.709 9 -13978341.91847  22593513.661    22593513.7264   22593519.1544
        -0.000          -0.000
 -34367319.980 9 -26758478.78649  20088610.671    20088610.3654   20088616.3444
        -0.000          -0.000
 -13124828.425 9 -10204359.01648  21625229.158    21625229.0954   21625234.2774
        -0.000          -0.000
  13684151.699 8  10663615.50145  24148974.492    24148973.6044   24148980.5554
        -0.000          -0.000
 -16631961.149 9 -12939562.81048  22012679.371    22012679.0104   22012685.0114
        -0.000          -0.000
 -15567255.269 9 -12115517.96546  22913511.486    22913510.4874   22913517.4994
        -0.000          -0.000
  -3167542.215 9  -2451459.86745  24572762.104    24572761.8024   24572769.1664
        -0.000          -0.000
 -30228071.444 9 -23291241.42649  20585045.558    20585044.8904   20585050.3094
        -0.000          -0.000
 97  3  7  1  0 29.9990000  0  8 30 24  4  7  9 10  6  5            -0.000804267
 -18074837.319 9 -14066135.61847  22572073.555    22572073.6084   22572078.9874
        -0.000          -0.000
 -34375682.962 9 -26764995.38749  20087019.221    20087018.9364   20087024.9204
        -0.000          -0.000
 -13066663.396 9 -10159035.61748  21636297.605    21636297.5534   21636302.7344
        -0.000          -0.000
  13732059.277 8  10700946.05945  24158090.968    24158090.1824   24158097.0354
        -0.000          -0.000
 -16584049.830 9 -12902229.33648  22021796.597    22021796.2784   22021802.2414
        -0.000          -0.000
 -15678108.608 9 -12201897.13946  22892416.722    22892415.7014   22892422.7614
        -0.000          -0.000
  -3256442.828 9  -2520733.00645  24555844.843    24555844.4934   24555851.8394
        -0.000          -0.000
 -30299411.914 9 -23346831.39649  20571469.894    20571469.2384   20571474.6514
        -0.000          -0.000
 97  3  7  1  0 59.9990000  0  8 30 24  4  7  9 10  6  5            -0.000816923
 -18187353.558 9 -14153810.58047  22550662.413    22550662.4624   22550667.8184
        -0.000          -0.000
 -34383593.249 9 -26771159.24049  20085513.969    20085513.6584   20085519.6394
        -0.000          -0.000
 -13008226.206 9 -10113500.14448  21647417.857    21647417.8254   21647422.9924
        -0.000          -0.000
  13779990.980 8  10738295.39145  24167211.988    24167211.2674   24167218.2654
        -0.000          -0.000
 -16535826.813 9 -12864652.96648  22030973.169    22030972.8354   22030978.8294
        -0.000          -0.000
 -15788842.675 9 -12288183.36846  22871344.687    22871343.6884   22871350.7344
        -0.000          -0.000
  -3345336.626 9  -2590000.84245  24538928.783    24538928.4044   24538935.8894
        -0.000          -0.000
 -30370419.789 9 -23402162.19849  20557957.564    20557956.9134   20557962.3044
        -0.000          -0.000
 97  3  7  1  1 29.9990000  0  7 30 24  4  9 10  6  5               -0.000829576
 -18299743.210 9 -14241386.90347  22529275.349    22529275.4184   22529280.7344
        -0.000          -0.000
 -34391046.776 9 -26776967.17349  20084095.617    20084095.3104   20084101.2684
        -0.000          -0.000
 -12949528.384 9 -10067761.58248  21658587.618    21658587.6424   21658592.8184
        -0.000          -0.000
 -16487323.554 9 -12826858.24048  22040202.968    22040202.6354   22040208.6514
        -0.000          -0.000
 -15899456.885 9 -12374376.20046  22850295.422    22850294.4514   22850301.4804
        -0.000          -0.000
  -3434230.740 9  -2659268.92545  24522012.756    24522012.3444   24522019.7874
        -0.000          -0.000
 -30441094.794 9 -23457233.62449  20544508.538    20544507.8834   20544513.2734
        -0.000          -0.000
 97  3  7  1  1 59.9990000  0  7 30 24  4  9 10  6  5               -0.000842277
 -18411988.953 9 -14328851.09647  22507915.684    22507915.7544   22507920.9754
        -0.000          -0.000
 -34398011.014 9 -26782393.84149  20082770.322    20082770.0384   20082775.9974
        -0.000          -0.000
 -12890546.473 9 -10021801.64848  21669811.463    21669811.5024   21669816.6814
        -0.000          -0.000
 -16438532.862 9 -12788839.53248  22049487.545    22049487.2184   22049493.2464
        -0.000          -0.000
 -16009929.095 9 -12460458.38547  22829273.155    22829272.2444   22829279.2344
        -0.000          -0.000
  -3523098.709 8  -2728516.65745  24505101.676    24505101.3214   24505108.6934
        -0.000          -0.000
 -30511401.502 9 -23512018.06249  20531129.621    20531128.9554   20531134.3834
        -0.000          -0.000
 97  3  7  1  2 29.9990000  0  7 30 24  4  9 10  6  5               -0.000855000
 -18524128.551 9 -14416232.57347  22486576.214    22486576.2384   22486581.5334
        -0.000          -0.000
 -34404495.055 9 -26787446.33249  20081536.464    20081536.2024   20081542.1534
        -0.000          -0.000
 -12831316.441 9  -9975648.37648  21681082.568    21681082.5994   21681087.7894
        -0.000          -0.000
 -16389474.130 9 -12750611.95848  22058823.119    22058822.7954   22058828.8364
        -0.000          -0.000
 -16120266.709 9 -12546435.69347  22808276.612    22808275.6694   22808282.6594
        -0.000          -0.000
  -3611956.967 8  -2797756.78945  24488192.356    24488192.1484   24488199.2034
        -0.000          -0.000
 -30581356.017 9 -23566528.06749  20517817.701    20517817.0414   20517822.4684
        -0.000          -0.000
 97  3  7  1  2 59.9990000  0  7 30 24  4  9 10  6  5               -0.000867738
 -18636149.071 9 -14503521.25047  22465259.359    22465259.3954   22465264.6694
        -0.000          -0.000
 -34410494.821 9 -26792121.46649  20080394.712    20080394.4324   20080400.3814
        -0.000          -0.000
 -12771828.545 9  -9929294.17048  21692402.757    21692402.7524   21692407.9524
        -0.000          -0.000
 -16340114.767 9 -12712150.13448  22068215.919    22068215.5834   22068221.6414
        -0.000          -0.000
 -16230447.186 9 -12632290.56947  22787309.910    22787308.9644   22787315.9154
        -0.000          -0.000
  -3700794.351 8  -2866980.65845  24471287.020    24471286.9504   24471294.0744
        -0.000          -0.000
 -30650942.742 9 -23620751.47949  20504575.742    20504575.0984   20504580.5684
        -0.000          -0.000
 97  3  7  1  3 29.9990000  0  7 30 24  4  9 10  6  5               -0.000880482
 -18748027.630 9 -14590699.31847  22443969.556    22443969.5844   22443974.8304
        -0.000          -0.000
 -34416014.507 9 -26796422.50849  20079344.338    20079344.0594   20079350.0094
        -0.000          -0.000
 -12712081.808 9  -9882738.26548  21703772.191    21703772.1914   21703777.4004
        -0.000          -0.000
 -16290446.243 9 -12673447.39847  22077667.534    22077667.2094   22077673.2354
        -0.000          -0.000
 -16340469.280 9 -12718022.01247  22766373.316    22766372.3794   22766379.3004
        -0.000          -0.000
  -3789602.115 8  -2936181.45845  24454387.421    24454387.4214   24454394.4464
        -0.000          -0.000
 -30720165.583 9 -23674691.34749  20491403.070    20491402.4274   20491407.8924
        -0.000          -0.000
 97  3  7  1  3 59.9990000  0  7 30 24  4  9 10  6  5               -0.000893230
 -18859750.370 9 -14677755.97447  22422709.383    22422709.4314   22422714.7124
        -0.000          -0.000
 -34421065.461 9 -26800358.30849  20078383.167    20078382.8954   20078388.8334
        -0.000          -0.000
 -12652074.688 9  -9835979.47448  21715191.191    21715191.1864   21715196.3954
        -0.000          -0.000
 -16240442.161 9 -12634483.19447  22087182.993    22087182.6824   22087188.7134
        -0.000          -0.000
 -16450341.693 9 -12803636.83047  22745465.293    22745464.3734   22745471.2804
        -0.000          -0.000
  -3878378.540 8  -3005357.84645  24437493.792    24437493.6054   24437500.6324
        -0.000          -0.000
 -30789031.014 9 -23728352.71449  20478298.369    20478297.7404   20478303.2164
        -0.000          -0.000
 97  3  7  1  4 29.9990000  0  7 30 24  4  9 10  6  5               -0.000905972
 -18971300.144 9 -14764677.84647  22401482.145    22401482.1974   22401487.5204
        -0.000          -0.000
 -34425663.822 9 -26803941.43349  20077508.131    20077507.8514   20077513.7824
        -0.000          -0.000
 -12591796.941 9  -9789009.79748  21726661.654    21726661.6854   21726666.8524
        -0.000          -0.000
 -16190082.742 9 -12595242.10447  22096766.102    22096765.7874   22096771.8264
        -0.000          -0.000
 -16560056.942 9 -12889129.19347  22724587.165    22724586.2464   22724593.0984
        -0.000          -0.000
  -3967124.711 8  -3074510.64145  24420605.780    24420605.6574   24420612.5544
        -0.000          -0.000
 -30857541.960 9 -23781737.85749  20465261.187    20465260.5454   20465266.0154
        -0.000          -0.000
 97  3  7  1  4 59.9990000  0  7 30 24  4  9 10  6  5               -0.000918702
 -19082669.607 9 -14851459.21547  22380289.180    22380289.2384   22380294.5504
        -0.000          -0.000
 -34429829.410 9 -26807187.33749  20076715.429    20076715.1494   20076721.0684
        -0.000          -0.000
 -12531243.781 9  -9741825.51548  21738184.493    21738184.5484   21738189.7434
        -0.000          -0.000
 -16139378.364 9 -12555732.20447  22106414.845    22106414.5484   22106420.5664
        -0.000          -0.000
 -16669618.493 9 -12974501.78547  22703738.260    22703737.3604   22703744.1044
        -0.000          -0.000
  -4055852.050 8  -3143648.76545  24403721.361    24403721.1674   24403728.3504
        -0.000          -0.000
 -30925701.090 9 -23834848.85949  20452290.945    20452290.3044   20452295.7634
        -0.000          -0.000
 97  3  7  1  5 29.9990000  0  7 30 24  4  9 10  6  5               -0.000931429
 -19193870.065 9 -14938108.89547  22359128.408    22359128.4674   22359133.7804
        -0.000          -0.000
 -34433562.353 9 -26810096.11249  20076005.034    20076004.7614   20076010.6844
        -0.000          -0.000
 -12470432.784 9  -9694440.32048  21749756.404    21749756.4674   21749761.6564
        -0.000          -0.000
 -16088352.247 9 -12515971.61047  22116124.765    22116124.4664   22116130.4834
        -0.000          -0.000
 -16779033.627 9 -13059760.28147  22682917.241    22682916.3444   22682923.0684
        -0.000          -0.000
  -4144562.052 8  -3212773.40145  24386840.408    24386840.2224   24386847.4514
        -0.000          -0.000
 -30993507.472 9 -23887684.99249  20439387.795    20439387.1674   20439392.6214
        -0.000          -0.000
 97  3  7  1  5 59.9990000  0  7 30 24  4  9 10  6  5               -0.000944154
 -19304903.600 9 -15024628.50847  22337999.437    22337999.4754   22338004.7234
        -0.000          -0.000
 -34436853.527 9 -26812660.65449  20075378.718    20075378.4654   20075384.3924
        -0.000          -0.000
 -12409369.200 9  -9646858.30648  21761376.407    21761376.4824   21761381.6704
        -0.000          -0.000
 -16037013.940 9 -12475967.75247  22125894.114    22125893.8234   22125899.8734
        -0.000          -0.000
 -16888286.705 9 -13144892.49947  22662127.067    22662126.1574   22662132.9084
        -0.000          -0.000
  -4233252.213 8  -3281882.55645  24369963.132    24369962.8664   24369970.2434
        -0.000          -0.000
 -31060943.858 9 -23940232.82049  20426555.066    20426554.4414   20426559.9054
        -0.000          -0.000
 97  3  7  1  6 29.9990000  0  7 30 24  4  9 10  6  5               -0.000956890
 -19415796.275 9 -15111038.36047  22316897.275    22316897.3244   22316902.5054
        -0.000          -0.000
 -34439718.833 9 -26814893.34849  20074833.499    20074833.2224   20074839.1354
        -0.000          -0.000
 -12348086.095 9  -9599105.23348  21773038.211    21773038.2694   21773043.4634
        -0.000          -0.000
 -15985408.391 9 -12435755.65147  22135714.300    22135714.0544   22135720.0884
        -0.000          -0.000
 -16997375.119 9 -13229896.42347  22641368.199    22641367.2484   22641373.9404
        -0.000          -0.000
  -4321942.925 8  -3350992.11845  24353085.743    24353085.5004   24353092.9884
        -0.000          -0.000
 -31128021.979 9 -23992501.47549  20413790.503    20413789.8774   20413795.3474
        -0.000          -0.000
 97  3  7  1  6 59.9990000  0  7 30 24  4  9 10  6  5               -0.000969642
 -19526541.378 9 -15197333.21447  22295823.186    22295823.2634   22295828.4034
        -0.000          -0.000
 -34442128.164 9 -26816770.74149  20074374.999    20074374.7504   20074380.6614
        -0.000          -0.000
 -12286591.818 9  -9551187.61348  21784740.217    21784740.2484   21784745.4524
        -0.000          -0.000
 -15933544.854 9 -12395342.52147  22145583.648    22145583.3524   22145589.4344
        -0.000          -0.000
 -17106286.280 9 -13314762.22347  22620643.087    22620642.1064   22620648.7704
        -0.000          -0.000
  -4410626.577 8  -3420096.14945  24336209.701    24336209.6224   24336216.9754
        -0.000          -0.000
 -31194728.003 9 -24044480.19249  20401096.729    20401096.0954   20401101.5874
        -0.000          -0.000
 97  3  7  1  7 29.9990000  0  7 30 24  4  9 10  6  5               -0.000982430
 -19637146.133 9 -15283518.70547  22274775.737    22274775.8434   22274781.0074
        -0.000          -0.000
 -34444081.608 9 -26818292.89149  20074003.284    20074003.0074   20074008.9314
        -0.000          -0.000
 -12224912.477 9  -9503125.78448  21796477.413    21796477.4234   21796482.6384
        -0.000          -0.000
 -15881434.767 9 -12354737.26647  22155499.870    22155499.5774   22155505.6564
        -0.000          -0.000
 -17215035.049 9 -13399501.47247  22599948.856    22599947.9014   22599954.5074
        -0.000          -0.000
  -4499310.084 8  -3489200.08745  24319333.627    24319333.5654   24319341.1114
        -0.000          -0.000
 -31261063.905 9 -24096170.49449  20388473.419    20388472.7944   20388478.2884
        -0.000          -0.000
 97  3  7  1  7 59.9990000  0  7 30 24  4  9 10  6  5               -0.000995241
 -19747594.272 9 -15369582.16947  22253758.147    22253758.2444   22253763.3844
        -0.000          -0.000
 -34445574.531 9 -26819456.20349  20073719.147    20073718.8944   20073724.8084
        -0.000          -0.000
 -12163036.603 9  -9454910.81648  21808252.019    21808252.0214   21808257.2154
        -0.000          -0.000
 -15829056.902 9 -12313923.36447  22165467.062    22165466.7274   22165472.8084
        -0.000          -0.000
 -17323585.929 9 -13484086.53247  22579292.282    22579291.3224   22579297.9644
        -0.000          -0.000
  -4587986.561 9  -3558298.59445  24302459.102    24302459.0274   24302466.4034
        -0.000          -0.000
 -31327005.194 9 -24147553.31249  20375925.188    20375924.5914   20375930.0584
        -0.000          -0.000
 97  3  7  1  8 29.9990000  0  7 30 24  4  9 10  6  5               -0.001008070
 -19857871.800 9 -15455512.68347  22232772.975    22232773.0714   22232778.2594
        -0.000          -0.000
 -34446601.520 9 -26820256.44449  20073523.699    20073523.4494   20073529.3904
        -0.000          -0.000
 -12100943.104 9  -9406526.26748  21820068.033    21820068.0114   21820073.2154
        -0.000          -0.000
 -15776395.510 9 -12272888.52847  22175488.176    22175487.8694   22175493.9754
        -0.000          -0.000
 -17431927.062 9 -13568508.14547  22558675.549    22558674.5854   22558681.2544
        -0.000          -0.000
  -4676663.088 9  -3627397.12345  24285584.631    24285584.4404   24285591.7034
        -0.000          -0.000
 -31392543.641 9 -24198622.22449  20363453.650    20363453.0354   20363458.5154
        -0.000          -0.000
 97  3  7  1  8 59.9980000  0  7 30 24  4  9 10  6  5               -0.001020910
 -19967947.964 9 -15541286.29947  22211826.181    22211826.3034   22211831.3744
        -0.000          -0.000
 -34447152.775 9 -26820685.98149  20073418.784    20073418.5124   20073424.4624
        -0.000          -0.000
 -12038610.253 9  -9357955.21448  21831929.581    21831929.5404   21831934.7224
        -0.000          -0.000
 -15723441.179 9 -12231625.43247  22185565.029    22185564.7234   22185570.8134
        -0.000          -0.000
 -17540053.432 9 -13652762.40947  22538099.743    22538098.7394   22538105.4494
        -0.000          -0.000
  -4765329.752 9  -3696487.94645  24268711.798    24268711.6014   24268718.9444
        -0.000          -0.000
 -31457661.111 9 -24249363.10249  20351062.200    20351061.5934   20351067.0804
        -0.000          -0.000
 97  3  7  1  9 29.9980000  0  7 30 24  4  9 10  6  5               -0.001033755
 -20077839.911 9 -15626916.36847  22190914.427    22190914.5394   22190919.6404
        -0.000          -0.000
 -34447258.076 9 -26820768.01949  20073398.713    20073398.4754   20073404.4264
        -0.000          -0.000
 -11976035.666 9  -9309195.79248  21843837.101    21843837.0564   21843842.2474
        -0.000          -0.000
 -15670201.364 9 -12190139.87547  22195696.171    22195695.8804   22195701.9644
        -0.000          -0.000
 -17647972.626 9 -13736855.24147  22517563.291    22517562.3164   22517569.0844
        -0.000          -0.000
  -4853992.577 9  -3765575.77146  24251839.843    24251839.5814   24251846.9964
        -0.000          -0.000
 -31522366.731 9 -24299783.05449  20338749.124    20338748.5174   20338753.9944
        -0.000          -0.000
 97  3  7  1  9 59.9980000  0  7 30 24  4  9 10  6  5               -0.001046595
 -20187549.529 9 -15712404.36047  22170037.366    22170037.4624   22170042.5854
        -0.000          -0.000
 -34446926.116 9 -26820509.33649  20073461.891    20073461.6324   20073467.6024
        -0.000          -0.000
 -11913212.114 9  -9260242.37047  21855792.038    21855791.9904   21855797.1814
        -0.000          -0.000
 -15616692.563 9 -12148444.72347  22205878.592    22205878.2904   22205884.3454
        -0.000          -0.000
 -17755678.266 9 -13820781.67647  22497067.515    22497066.5354   22497073.3414
        -0.000          -0.000
  -4942655.629 9  -3834663.78046  24234967.880    24234967.5914   24234974.9364
        -0.000          -0.000
 -31586675.842 9 -24349894.04549  20326511.498    20326510.8894   20326516.3454
        -0.000          -0.000
 97  3  7  1 10 29.9980000  0  7 30 24  4  9 10  6  5               -0.001059434
 -20297076.694 9 -15797750.18347  22149195.031    22149195.1214   22149200.2324
        -0.000          -0.000
 -34446161.031 9 -26819913.15249  20073607.460    20073607.2014   20073613.1764
        -0.000          -0.000
 -11850142.346 9  -9211097.09347  21867793.782    21867793.7524   21867798.9084
        -0.000          -0.000
 -15562939.416 9 -12106559.16947  22216107.530    22216107.1994   22216113.2734
        -0.000          -0.000
 -17863204.188 9 -13904568.06047  22476605.962    22476605.0004   22476611.8164
        -0.000          -0.000
  -5031316.107 8  -3903749.76846  24218096.181    24218096.0324   24218103.2914
        -0.000          -0.000
 -31650612.359 9 -24399714.69949  20314344.758    20314344.1724   20314349.6144
        -0.000          -0.000
 97  3  7  1 10 59.9980000  0  7 30 24  4  9 10  6  5               -0.001072280
 -20406435.514 9 -15882964.82947  22128384.653    22128384.7184   22128389.8994
        -0.000          -0.000
 -34444974.376 9 -26818988.47549  20073833.237    20073833.0154   20073838.9754
        -0.000          -0.000
 -11786851.594 9  -9161779.62047  21879837.595    21879837.5744   21879842.6924
        -0.000          -0.000
 -15508956.172 9 -12064494.32047  22226380.188    22226379.9174   22226385.9404
        -0.000          -0.000
 -17970573.986 9 -13988232.79547  22456174.113    22456173.1554   22456179.9594
        -0.000          -0.000
  -5119963.315 9  -3972825.40546  24201227.048    24201226.7994   24201234.2244
        -0.000          -0.000
 -31714194.049 9 -24449258.86849  20302245.572    20302244.9784   20302250.4064
        -0.000          -0.000
 97  3  7  1 11 29.9980000  0  7 30 24  4  9 10  6  5               -0.001085133
 -20515627.006 9 -15968049.08147  22107606.166    22107606.2434   22107611.4804
        -0.000          -0.000
 -34443359.603 9 -26817730.20249  20074140.536    20074140.2824   20074146.2554
        -0.000          -0.000
 -11723341.968 9  -9112291.59947  21891923.045    21891923.0474   21891928.1664
        -0.000          -0.000
 -15454723.471 9 -12022235.08547  22236700.344    22236700.0734   22236706.1264
        -0.000          -0.000
 -18077782.686 9 -14071771.99847  22435772.940    22435771.9684   22435778.8264
        -0.000          -0.000
  -5208593.242 9  -4041887.60746  24184361.364    24184361.0754   24184368.4264
        -0.000          -0.000
 -31777419.386 9 -24498525.35749  20290214.187    20290213.5974   20290219.0014
        -0.000          -0.000
 97  3  7  1 11 59.9980000  0  7 30 24  4  9 10  6  5               -0.001097998
 -20624635.166 9 -16052990.49047  22086862.548    22086862.6634   22086867.8764
        -0.000          -0.000
 -34441303.756 9 -26816128.23449  20074531.735    20074531.4814   20074537.4594
        -0.000          -0.000
 -11659613.875 9  -9062633.33947  21904050.110    21904050.1424   21904055.2244
        -0.000          -0.000
 -15400234.136 9 -11979775.87747  22247069.317    22247069.0454   22247075.1154
        -0.000          -0.000
 -18184828.718 9 -14155184.44747  22415402.704    22415401.7604   22415408.6194
        -0.000          -0.000
  -5297217.361 9  -4110945.30946  24167496.738    24167496.5104   24167503.7134
        -0.000          -0.000
 -31840291.245 9 -24547516.40949  20278250.092    20278249.4804   20278254.8804
        -0.000          -0.000
 97  3  7  1 12 29.9980000  0  7 30 24  4  9 10  6  5               -0.001110876
 -20733442.459 9 -16137775.36747  22066157.216    22066157.3074   22066162.5244
        -0.000          -0.000
 -34438808.293 9 -26814183.70949  20075006.567    20075006.3324   20075012.3254
        -0.000          -0.000
 -11595677.778 9  -9012812.99947  21916216.757    21916216.7694   21916221.8434
        -0.000          -0.000
 -15345462.111 9 -11937096.39547  22257492.142    22257491.8494   22257497.9434
        -0.000          -0.000
 -18291701.937 9 -14238462.24947  22395065.379    22395064.4304   22395071.2474
        -0.000          -0.000
  -5385822.461 9  -4179988.18746  24150635.781    24150635.5334   24150642.5884
        -0.000          -0.000
 -31902781.866 9 -24596210.39149  20266358.523    20266357.9224   20266363.3064
        -0.000          -0.000
 97  3  7  1 12 59.9980000  0  7 30 24  4  9 10  6  5               -0.001123775
 -20842053.823 9 -16222407.58447  22045489.145    22045489.2454   22045494.4644
        -0.000          -0.000
 -34435884.194 9 -26811905.18349  20075563.000    20075562.7474   20075568.7594
        -0.000          -0.000
 -11531547.476 9  -8962841.34047  21928420.396    21928420.3604   21928425.4544
        -0.000          -0.000
 -15290398.984 9 -11894190.08547  22267970.270    22267969.9954   22267976.0734
        -0.000          -0.000
 -18398380.505 9 -14321588.36447  22374765.066    22374764.1444   22374770.9384
        -0.000          -0.000
  -5474428.699 9  -4249031.94746  24133774.561    24133774.2364   24133781.1814
        -0.000          -0.000
 -31964874.979 9 -24644594.62749  20254542.595    20254541.9924   20254547.3874
        -0.000          -0.000
 97  3  7  1 13 29.9980000  0  7 30 24  4  9 10  6  5               -0.001136696
 -20950456.165 9 -16306876.92247  22024860.848    22024860.9464   22024866.1224
        -0.000          -0.000
 -34432535.189 9 -26809295.56349  20076200.276    20076200.0364   20076206.0354
        -0.000          -0.000
 -11467228.215 9  -8912722.43647  21940659.932    21940659.9174   21940664.9894
        -0.000          -0.000
 -15235058.390 9 -11851067.56247  22278501.274    22278500.9854   22278507.1014
        -0.000          -0.000
 -18504835.608 9 -14404540.34347  22354507.263    22354506.3074   22354513.1644
        -0.000          -0.000
  -5563044.584 9  -4318083.22446  24116911.413    24116911.1604   24116918.1314
        -0.000          -0.000
 -32026545.874 9 -24692649.86349  20242806.987    20242806.3874   20242811.7774
        -0.000          -0.000
 97  3  7  1 13 59.9980000  0  7 30 24  4  9 10  6  5               -0.001149631
 -21058637.885 9 -16391174.34547  22004274.574    22004274.6884   22004279.8514
        -0.000          -0.000
 -34428758.895 9 -26806352.98849  20076918.852    20076918.6184   20076924.6334
        -0.000          -0.000
 -11402718.406 9  -8862455.05147  21952935.728    21952935.7094   21952940.7914
        -0.000          -0.000
 -15179441.481 9 -11807729.73147  22289084.819    22289084.5384   22289090.7004
        -0.000          -0.000
 -18611052.703 9 -14487306.87047  22334294.795    22334293.8804   22334300.7574
        -0.000          -0.000
  -5651650.118 9  -4387126.42546  24100050.250    24100050.0234   24100057.1034
        -0.000          -0.000
 -32087771.082 9 -24740357.80849  20231156.226    20231155.6224   20231161.0234
        -0.000          -0.000
 97  3  7  1 14 29.9980000  0  7 30 24  4  9 10  6  5               -0.001162581
 -21166612.864 9 -16475310.67547  21983727.593    21983727.7224   21983732.8644
        -0.000          -0.000
 -34424556.399 9 -26803078.30849  20077718.561    20077718.3354   20077724.3314
        -0.000          -0.000
 -11338022.840 9  -8812042.91347  21965246.880    21965246.8764   21965251.9624
        -0.000          -0.000
 -15123554.634 9 -11764181.55747  22299719.745    22299719.4464   22299725.6074
        -0.000          -0.000
 -18717020.231 9 -14569878.94247  22314129.814    22314128.9004   22314135.7074
        -0.000          -0.000
  -5740233.324 9  -4456152.22246  24083193.354    24083193.1024   24083200.2614
        -0.000          -0.000
 -32148530.940 9 -24787703.14149  20219593.977    20219593.3774   20219598.7814
        -0.000          -0.000
 97  3  7  1 14 59.9980000  0  7 30 24  4  9 10  6  5               -0.001175546
 -21274388.980 9 -16559292.04347  21963218.469    21963218.5904   21963223.7364
        -0.000          -0.000
 -34419923.483 9 -26799468.23549  20078600.174    20078599.9544   20078605.9604
        -0.000          -0.000
 -11273136.373 9  -8761482.03547  21977594.343    21977594.3384   21977599.4744
        -0.000          -0.000
 -15067427.379 9 -11720446.04847  22310400.433    22310400.1514   22310406.3254
        -0.000          -0.000
 -18822739.769 9 -14652257.76147  22294012.009    22294011.0984   22294017.8874
        -0.000          -0.000
  -5828804.010 9  -4525168.27746  24066338.920    24066338.6114   24066345.6884
        -0.000          -0.000
 -32208847.755 9 -24834703.25149  20208116.063    20208115.4634   20208120.8614
        -0.000          -0.000
 97  3  7  1 15 29.9980000  0  7 30 24  4  9 10  6  5               -0.001188514
 -21381960.529 9 -16643114.01547  21942748.261    21942748.3914   21942753.5124
        -0.000          -0.000
 -34414854.346 9 -26795518.24949  20079564.797    20079564.5774   20079570.5744
        -0.000          -0.000
 -11208056.375 9  -8710770.34447  21989978.658    21989978.6554   21989983.7774
        -0.000          -0.000
 -15011070.387 9 -11676531.52947  22321124.843    22321124.5374   22321130.7504
        -0.000          -0.000
 -18928219.556 9 -14734449.76047  22273939.816    22273938.9534   22273945.7304
        -0.000          -0.000
  -5917347.772 9  -4594163.33745  24049489.498    24049489.2754   24049496.3634
        -0.000          -0.000
 -32268745.655 9 -24881376.93149  20196717.834    20196717.2544   20196722.6474
        -0.000          -0.000
 97  3  7  1 15 59.9980000  0  7 30 24  4  9 10  6  5               -0.001201486
 -21489344.069 9 -16726789.48147  21922313.894    21922314.0074   21922319.0784
        -0.000          -0.000
 -34409364.743 9 -26791240.62849  20080609.433    20080609.2044   20080615.2104
        -0.000          -0.000
 -11142790.100 9  -8659913.51047  22002398.422    22002398.4064   22002403.5664
        -0.000          -0.000
 -14954496.356 9 -11632447.88347  22331890.493    22331890.1944   22331896.4184
        -0.000          -0.000
 -19033479.295 9 -14816470.30347  22253909.576    22253908.7094   22253915.4664
        -0.000          -0.000
  -6005878.896 9  -4663148.58745  24032642.598    24032642.2884   24032649.2724
        -0.000          -0.000
 -32328264.600 9 -24927755.32149  20185391.756    20185391.1844   20185396.5814
        -0.000          -0.000
 97  3  7  1 16 29.9980000  0  7 30 24  4  9 10  6  5               -0.001214438
 -21596506.705 9 -16810292.81547  21901921.494    21901921.6054   21901926.6454
        -0.000          -0.000
 -34403435.060 9 -26786620.08549  20081737.799    20081737.5724   20081743.5604
        -0.000          -0.000
 -11077315.232 9  -8608894.13447  22014857.849    22014857.8414   22014863.0194
        -0.000          -0.000
 -14897690.034 9 -11588183.23047  22342700.329    22342700.0314   22342706.2464
        -0.000          -0.000
 -19138482.130 9 -14898290.66147  22233928.192    22233927.2824   22233933.9964
        -0.000          -0.000
  -6094381.360 9  -4732111.51245  24015801.007    24015800.7874   24015807.7014
        -0.000          -0.000
 -32387400.961 9 -24973835.59649  20174138.444    20174137.8654   20174143.2654
        -0.000          -0.000
 97  3  7  1 16 59.9980000  0  7 30 24  4  9 10  6  5               -0.001227371
 -21703443.332 9 -16893620.04047  21881572.128    21881572.2334   21881577.2964
        -0.000          -0.000
 -34397086.473 9 -26781673.12949  20082945.879    20082945.6664   20082951.6574
        -0.000          -0.000
 -11011639.764 9  -8557718.44047  22027355.423    22027355.4394   22027360.6374
        -0.000          -0.000
 -14840654.243 9 -11543739.78347  22353553.845    22353553.5974   22353559.8134
        -0.000          -0.000
 -19243248.608 9 -14979926.84347  22213991.768    22213990.8644   22213997.5454
        -0.000          -0.000
  -6182873.329 9  -4801066.22445  23998961.452    23998961.3254   23998968.0464
        -0.000          -0.000
 -32446180.019 9 -25019637.45549  20162953.173    20162952.5984   20162957.9914
        -0.000          -0.000
 97  3  7  1 17 29.9980000  0  7 30 24  4  9 10  6  5               -0.001240308
 -21810162.743 9 -16976778.01047  21861264.057    21861264.1724   21861269.2544
        -0.000          -0.000
 -34390332.319 9 -26776410.13949  20084231.142    20084230.9164   20084236.9114
        -0.000          -0.000
 -10945798.673 9  -8506413.69347  22039884.584    22039884.5854   22039889.7704
        -0.000          -0.000
 -14783393.736 9 -11499121.21647  22364450.183    22364449.9344   22364456.1264
        -0.000          -0.000
 -19347789.016 9 -15061386.86047  22194098.372    22194097.4664   22194104.1024
        -0.000          -0.000
  -6271365.801 8  -4870021.31045  23982121.781    23982121.5634   23982128.4384
        -0.000          -0.000
 -32504590.856 9 -25065152.38549  20151837.955    20151837.3634   20151842.7724
        -0.000          -0.000
 97  3  7  1 17 59.9980000  0  7 30 24  4  9 10  6  5               -0.001253251
 -21916658.707 9 -17059761.86447  21840998.555    21840998.6514   21841003.7254
        -0.000          -0.000
 -34383167.872 9 -26770827.44949  20085594.433    20085594.2324   20085600.2394
        -0.000          -0.000
 -10879787.010 9  -8454976.03447  22052446.174    22052446.1894   22052451.3944
        -0.000          -0.000
 -14725886.892 9 -11454310.70547  22375393.385    22375393.1184   22375399.3144
        -0.000          -0.000
 -19452081.097 9 -15142653.38547  22174252.252    22174251.3554   22174257.9604
        -0.000          -0.000
  -6359856.378 9  -4938974.94145  23965282.483    23965282.3104   23965289.2384
        -0.000          -0.000
 -32562595.777 9 -25110351.02349  20140799.989    20140799.4154   20140804.8064
        -0.000          -0.000
 97  3  7  1 18 29.9980000  0  7 30 24  4  9 10  6  5               -0.001266214
 -22022944.714 9 -17142582.10747  21820772.942    21820773.0534   21820778.1094
        -0.000          -0.000
 -34375604.927 9 -26764934.23649  20087033.624    20087033.4064   20087039.4164
        -0.000          -0.000
 -10813613.089 9  -8403411.93947  22065038.656    22065038.6724   22065043.8834
        -0.000          -0.000
 -14668138.253 9 -11409311.78747  22386382.590    22386382.3704   22386388.5914
        -0.000          -0.000
 -19556143.911 9 -15223741.25447  22154449.724    22154448.8144   22154455.4314
        -0.000          -0.000
  -6448354.287 9  -5007934.31645  23948441.920    23948441.7694   23948448.5114
        -0.000          -0.000
 -32620186.807 9 -25155227.14749  20129840.750    20129840.1724   20129845.5744
        -0.000          -0.000
 97  3  7  1 18 59.9980000  0  7 30 24  4  9 10  6  5               -0.001279216
 -22129026.096 9 -17225242.90247  21800586.306    21800586.4184   21800591.4744
        -0.000          -0.000
 -34367649.829 9 -26758735.45149  20088547.428    20088547.1984   20088553.2134
        -0.000          -0.000
 -10747288.344 9  -8351730.32347  22077659.816    22077659.8244   22077665.0694
        -0.000          -0.000
 -14610169.490 9 -11364141.33447  22397413.734    22397413.5034   22397419.7124
        -0.000          -0.000
 -19659995.091 9 -15304664.21347  22134687.500    22134686.5764   22134693.1454
        -0.000          -0.000
  -6536873.714 9  -5076910.41645  23931597.228    23931596.9604   23931603.7804
        -0.000          -0.000
 -32677355.144 9 -25199773.89849  20118961.985    20118961.4034   20118966.8064
        -0.000          -0.000
 97  3  7  1 19 29.9980000  0  7 30 24  4  9 10  6  5               -0.001292262
 -22234905.339 9 -17307746.19647  21780438.111    21780438.2464   21780443.2884
        -0.000          -0.000
 -34359310.855 9 -26752237.53849  20090134.258    20090134.0504   20090140.0584
        -0.000          -0.000
 -10680828.683 9  -8299943.57047  22090306.641    22090306.6694   22090311.9104
        -0.000          -0.000
 -14552009.105 9 -11318821.56747  22408481.304    22408481.0514   22408487.2624
        -0.000          -0.000
 -19763631.138 9 -15385419.53447  22114966.189    22114965.2484   22114971.8104
        -0.000          -0.000
  -6625416.414 8  -5145904.67845  23914747.964    23914747.6354   23914754.5904
        -0.000          -0.000
 -32734096.637 9 -25243988.04149  20108164.402    20108163.8384   20108169.2414
        -0.000          -0.000
 97  3  7  1 19 59.9980000  0  7 30 24  4  9 10  6  5               -0.001305327
 -22340563.587 9 -17390077.27547  21760332.000    21760332.1064   21760337.1634
        -0.000          -0.000
 -34350591.653 9 -26745443.34749  20091793.491    20091793.2514   20091799.2704
        -0.000          -0.000
 -10614194.689 9  -8248020.97447  22102986.688    22102986.6814   22102991.9384
        -0.000          -0.000
 -14493649.481 9 -11273346.55347  22419586.731    22419586.4834   22419592.7184
        -0.000          -0.000
 -19867034.931 9 -15465993.88147  22095289.072    22095288.1514   22095294.7064
        -0.000          -0.000
  -6713973.058 9  -5214909.79845  23897896.138    23897895.8014   23897902.8304
        -0.000          -0.000
 -32790400.432 9 -25287861.12249  20097450.154    20097449.5854   20097455.0184
        -0.000          -0.000
 97  3  7  1 20 29.9980000  0  7 30 24  4  9 10  6  5               -0.001318410
 -22445978.649 9 -17472218.86647  21740272.163    21740272.3134   21740277.3414
        -0.000          -0.000
 -34341479.689 9 -26738343.10449  20093527.400    20093527.1614   20093533.1974
        -0.000          -0.000
 -10547384.307 9  -8195960.93347  22115700.301    22115700.3094   22115705.5324
        -0.000          -0.000
 -14435108.187 9 -11227729.97647  22430726.728    22430726.4614   22430732.7324
        -0.000          -0.000
 -19970203.008 9 -15546384.54947  22075656.789    22075655.8724   22075662.4074
        -0.000          -0.000
  -6802535.264 9  -5283919.25145  23881043.287    23881042.9884   23881049.9874
        -0.000          -0.000
 -32846262.163 9 -25331389.73749  20086820.010    20086819.4344   20086824.8724
        -0.000          -0.000
 97  3  7  1 20 59.9980000  0  7 30 24  4  9 10  6  5               -0.001331522
 -22551162.476 9 -17554180.27147  21720256.338    21720256.4704   21720261.5184
        -0.000          -0.000
 -34331989.238 9 -26730947.94249  20095333.352    20095333.1404   20095339.1504
        -0.000          -0.000
 -10480429.071 9  -8143788.02247  22128441.455    22128441.4684   22128446.6664
        -0.000          -0.000
 -14376397.333 9 -11181981.27947  22441899.003    22441898.7774   22441905.0344
        -0.000          -0.000
 -20073136.162 9 -15626592.17047  22056069.207    22056068.3124   22056074.8574
        -0.000          -0.000
  -6891111.604 9  -5352939.72445  23864187.709    23864187.4074   23864194.3554
        -0.000          -0.000
 -32901697.363 9 -25374585.99249  20076270.994    20076270.4374   20076275.8914
        -0.000          -0.000
 97  3  7  1 21 29.9980000  0  7 30 24  4  9 10  6  5               -0.001344640
 -22656108.742 9 -17635956.56247  21700285.701    21700285.8354   21700290.8584
        -0.000          -0.000
 -34322103.035 9 -26723244.39849  20097214.653    20097214.4184   20097220.4344
        -0.000          -0.000
 -10413303.063 9  -8091482.04147  22141215.058    22141215.1164   22141220.3114
        -0.000          -0.000
 -14317485.488 9 -11136075.95847  22453109.569    22453109.3664   22453115.6064
        -0.000          -0.000
 -20175815.762 9 -15706602.21247  22036529.849    22036528.9584   22036535.5264
        -0.000          -0.000
  -6979675.404 9  -5421950.42846  23847334.643    23847334.2954   23847341.1494
        -0.000          -0.000
 -32956697.098 9 -25417442.92049  20065804.873    20065804.3034   20065809.7764
        -0.000          -0.000
 97  3  7  1 21 59.9980000  0  7 30 24  4  9 10  6  5               -0.001357759
 -22760826.203 9 -17717554.56047  21680358.610    21680358.7304   21680363.8044
        -0.000          -0.000
 -34311810.178 9 -26715223.98149  20099173.311    20099173.0724   20099179.0954
        -0.000          -0.000
 -10345996.586 9  -8039035.43747  22154023.006    22154023.0794   22154028.2924
        -0.000          -0.000
 -14258362.657 9 -11090006.23347  22464360.334    22464360.0974   22464366.3524
        -0.000          -0.000
 -20278246.946 9 -15786418.68647  22017037.796    22017036.9324   22017043.4394
        -0.000          -0.000
  -7068226.258 9  -5490951.01446  23830483.868    23830483.6494   23830490.3654
        -0.000          -0.000
 -33011277.938 9 -25459973.43949  20055418.454    20055417.8734   20055423.3604
        -0.000          -0.000
 97  3  7  1 22 29.9980000  0  7 30 24  4  9 10  6  5               -0.001370876
 -22865330.703 9 -17798986.62847  21660472.031    21660472.1574   21660477.2164
        -0.000          -0.000
 -34301112.243 9 -26706887.92249  20101209.054    20101208.8334   20101214.8524
        -0.000          -0.000
 -10278532.222 9  -7986465.80547  22166861.021    22166861.1114   22166866.3124
        -0.000          -0.000
 -14199037.812 9 -11043779.10347  22475649.519    22475649.2624   22475655.4984
        -0.000          -0.000
 -20380420.817 9 -15866034.66147  21997594.746    21997593.8434   21997600.3604
        -0.000          -0.000
  -7156762.293 9  -5559940.04446  23813635.852    23813635.7334   23813642.5034
        -0.000          -0.000
 -33065464.155 9 -25502196.45749  20045107.153    20045106.5914   20045112.0864
        -0.000          -0.000
 97  3  7  1 22 59.9980000  0  7 30 24  4  9 10  6  5               -0.001383988
 -22969646.914 9 -17880271.97047  21640621.347    21640621.4694   21640626.4824
        -0.000          -0.000
 -34290036.729 9 -26698257.64449  20103316.635    20103316.4144   20103322.4364
        -0.000          -0.000
 -10210910.102 9  -7933773.25147  22179729.096    22179729.1934   22179734.4194
        -0.000          -0.000
 -14139527.485 9 -10997407.42047  22486974.015    22486973.7524   22486979.9474
        -0.000          -0.000
 -20482346.152 9 -15945456.95847  21978198.983    21978198.0704   21978204.5844
        -0.000          -0.000
  -7245296.253 9  -5628927.48546  23796788.319    23796788.3364   23796795.0924
        -0.000          -0.000
 -33119272.984 9 -25544125.41349  20034867.681    20034867.1204   20034872.5914
        -0.000          -0.000
 97  3  7  1 23 29.9980000  0  7 30 24  4  9 10  6  5               -0.001397091
 -23073761.095 9 -17961399.87847  21620808.999    21620809.1554   21620814.1864
        -0.000          -0.000
 -34278588.748 9 -26689337.13349  20105495.092    20105494.8664   20105500.8994
        -0.000          -0.000
 -10143117.749 9  -7880948.04047  22192629.566    22192629.6424   22192634.8674
        -0.000          -0.000
 -14079844.681 9 -10950901.36147  22498331.282    22498330.9904   22498337.1834
        -0.000          -0.000
 -20584015.533 9 -16024679.82947  21958851.961    21958851.0244   21958857.5354
        -0.000          -0.000
  -7333837.804 9  -5697920.86646  23779939.557    23779939.3604   23779946.0964
        -0.000          -0.000
 -33172694.362 9 -25585752.45349  20024701.899    20024701.3484   20024706.8294
        -0.000          -0.000
 97  3  7  1 23 59.9980000  0  7 30 24  4  9 10  6  5               -0.001410196
 -23177666.564 9 -18042365.16147  21601036.414    21601036.5434   21601041.6204
        -0.000          -0.000
 -34266767.613 9 -26680125.85249  20107744.553    20107744.3384   20107750.3824
        -0.000          -0.000
 -10075173.807 9  -7828004.71347  22205558.797    22205558.9124   22205564.1714
        -0.000          -0.000
 -14019999.101 9 -10904268.45047  22509719.476    22509719.2454   22509725.4614
        -0.000          -0.000
 -20685405.681 9 -16103685.10547  21939558.009    21939557.1014   21939563.5934
        -0.000          -0.000
  -7422391.776 9  -5766923.88646  23763088.238    23763088.0474   23763094.8324
        -0.000          -0.000
 -33225711.617 9 -25627064.59349  20014613.025    20014612.4624   20014617.9414
        -0.000          -0.000
 97  3  7  1 24 29.9980000  0  7 30 24  4  9 10  6  5               -0.001423307
 -23281339.940 9 -18123149.58447  21581307.998    21581308.1314   21581313.2294
        -0.000          -0.000
 -34254563.664 9 -26670616.27349  20110066.848    20110066.6214   20110072.6744
        -0.000          -0.000
 -10007077.722 9  -7774942.82547  22218516.993    22218517.1514   22218522.3734
        -0.000          -0.000
 -13959983.509 9 -10857503.06547  22521140.118    22521139.8894   22521146.1014
        -0.000          -0.000
 -20786494.927 9 -16182455.91847  21920321.297    21920320.4484   21920326.9114
        -0.000          -0.000
  -7510951.429 9  -5835931.32946  23746235.731    23746235.6534   23746242.4034
        -0.000          -0.000
 -33278284.899 9 -25668030.77749  20004608.671    20004608.1084   20004613.5874
        -0.000          -0.000
 97  3  7  1 24 59.9980000  0  7 30 24  4  9 10  6  5               -0.001436447
 -23384768.093 9 -18203742.93747  21561626.267    21561626.3974   21561631.4684
        -0.000          -0.000
 -34241980.421 9 -26660811.14349  20112461.366    20112461.1534   20112467.2174
        -0.000          -0.000
  -9938843.213 9  -7721773.08747  22231501.539    22231501.7414   22231506.9704
        -0.000          -0.000
 -13899799.735 9 -10810606.63547  22532592.730    22532592.4814   22532598.6954
        -0.000          -0.000
 -20887303.375 9 -16261007.92247  21901138.052    21901137.1884   21901143.7014
        -0.000          -0.000
  -7599538.529 9  -5904960.17046  23729378.101    23729378.0934   23729384.7484
        -0.000          -0.000
 -33330403.007 9 -25708642.28249  19994690.929    19994690.3644   19994695.8294
        -0.000          -0.000
 97  3  7  1 25 29.9980000  0  7 30 24  4  9 10  6  5               -0.001449633
 -23487943.841 9 -18284139.60248  21541992.524    21541992.6594   21541997.7484
        -0.000          -0.000
 -34229014.914 9 -26650708.14249  20114928.625    20114928.4154   20114934.4654
        -0.000          -0.000
  -9870504.004 9  -7668521.75547  22244506.118    22244506.2484   22244511.4964
        -0.000          -0.000
 -13839439.081 9 -10763572.37247  22544078.996    22544078.7694   22544085.0034
        -0.000          -0.000
 -20987830.946 9 -16339341.06547  21882008.226    21882007.3924   21882013.8774
        -0.000          -0.000
  -7688163.590 9  -5974018.60546  23712513.325    23712513.1894   23712519.8794
        -0.000          -0.000
 -33382070.222 9 -25748902.44249  19984858.946    19984858.4004   19984863.8504
        -0.000          -0.000
 97  3  7  1 25 59.9980000  0  7 30 24  4  9 10  6  5               -0.001462854
 -23590839.885 9 -18364318.31948  21522412.045    21522412.1644   21522417.2704
        -0.000          -0.000
 -34215642.076 9 -26640287.74049  20117473.362    20117473.1634   20117479.2124
        -0.000          -0.000
  -9802053.499 9  -7615183.70247  22257531.928    22257532.0014   22257537.2114
        -0.000          -0.000
 -13778877.607 9 -10716381.63347  22555603.468    22555603.2214   22555609.4764
        -0.000          -0.000
 -21088060.616 9 -16417442.07047  21862935.164    21862934.3254   21862940.7704
        -0.000          -0.000
  -7776802.141 9  -6043087.53846  23695646.029    23695645.7564   23695652.4204
        -0.000          -0.000
 -33433274.271 9 -25788801.69649  19975115.133    19975114.5664   19975120.0514
        -0.000          -0.000
 97  3  7  1 26 29.9980000  0  7 30 24  4  9 10  6  5               -0.001476095
 -23693431.778 9 -18444260.03148  21502889.441    21502889.5694   21502894.6684
        -0.000          -0.000
 -34201862.050 9 -26629550.05149  20120095.602    20120095.3984   20120101.4704
        -0.000          -0.000
  -9733472.639 9  -7561744.06947  22270582.449    22270582.4674   22270587.6614
        -0.000          -0.000
 -13718105.579 9 -10669026.82347  22567167.995    22567167.7654   22567174.0414
        -0.000          -0.000
 -21187988.243 9 -16495307.72447  21843919.554    21843918.6704   21843925.1334
        -0.000          -0.000
  -7865442.508 9  -6112157.89346  23678778.224    23678777.9434   23678784.6944
        -0.000          -0.000
 -33484012.408 9 -25828337.90349  19965459.947    19965459.3904   19965464.8724
        -0.000          -0.000
 97  3  7  1 26 59.9980000  0  7 30 24  4  9 10  6  5               -0.001489355
 -23795734.985 9 -18523976.79548  21483421.757    21483421.8774   21483427.0114
        -0.000          -0.000
 -34187702.510 9 -26618516.63749  20122790.047    20122789.8434   20122795.9114
        -0.000          -0.000
  -9664783.522 9  -7508220.08647  22283653.553    22283653.5784   22283658.7564
        -0.000          -0.000
 -13657147.004 9 -10621526.64747  22578768.076    22578767.8444   22578774.0814
        -0.000          -0.000
 -21287618.115 9 -16572941.35347  21824960.588    21824959.7154   21824966.1774
        -0.000          -0.000
  -7954086.094 9  -6181230.77546  23661909.723    23661909.6114   23661916.2464
        -0.000          -0.000
 -33534307.440 9 -25867528.83249  19955889.126    19955888.5864   19955894.0584
        -0.000          -0.000
 97  3  7  1 27 29.9980000  0  7 30 24  4  9 10  6  5               -0.001502631
 -23897753.260 9 -18603471.53348  21464008.343    21464008.4564   21464013.5674
        -0.000          -0.000
 -34173165.322 9 -26607188.95149  20125556.373    20125556.1574   20125562.2204
        -0.000          -0.000
  -9595990.066 9  -7454614.79147  22296744.504    22296744.5454   22296749.7044
        -0.000          -0.000
 -13596011.803 9 -10573888.84247  22590401.708    22590401.4714   22590407.6874
        -0.000          -0.000
 -21386945.753 9 -16650339.47347  21806059.102    21806058.2104   21806064.6934
        -0.000          -0.000
  -8042719.520 9  -6250295.70746  23645043.245    23645043.0984   23645049.7474
        -0.000          -0.000
 -33584158.433 9 -25906373.75549  19946402.765    19946402.2134   19946407.6914
        -0.000          -0.000
 97  3  7  1 27 59.9980000  0  7 30 24  4  9 10  6  5               -0.001515917
 -23999502.830 9 -18682756.89448  21444645.989    21444646.1014   21444651.1904
        -0.000          -0.000
 -34158259.237 9 -26595573.81049  20128392.885    20128392.6944   20128398.7654
        -0.000          -0.000
  -9527078.787 9  -7400917.69047  22309857.887    22309857.9364   22309863.1314
        -0.000          -0.000
 -13534724.720 9 -10526132.68347  22602064.276    22602064.0274   22602070.2864
        -0.000          -0.000
 -21485970.692 9 -16727501.73247  21787215.254    21787214.3854   21787220.8994
        -0.000          -0.000
  -8131337.703 9  -6319348.77646  23628179.771    23628179.6024   23628186.2804
        -0.000          -0.000
 -33633556.973 9 -25944866.11749  19937002.545    19937002.0114   19937007.4924
        -0.000          -0.000
 97  3  7  1 28 29.9980000  0  7 30 24  4  9 10  6  5               -0.001529212
 -24101002.006 9 -18761847.14148  21425331.330    21425331.4724   21425336.5334
        -0.000          -0.000
 -34143004.336 9 -26583686.86649  20131295.797    20131295.6044   20131301.6894
        -0.000          -0.000
  -9458046.929 9  -7347126.62647  22322994.234    22322994.2724   22322999.4554
        -0.000          -0.000
 -13473302.218 9 -10478271.01647  22613752.566    22613752.3654   22613758.6464
        -0.000          -0.000
 -21584689.398 9 -16804425.36147  21768429.652    21768428.8004   21768435.3454
        -0.000          -0.000
  -8219942.723 9  -6388391.60746  23611318.855    23611318.5844   23611325.2604
        -0.000          -0.000
 -33682496.840 9 -25983001.07349  19927689.612    19927689.0784   19927694.5554
        -0.000          -0.000
 97  3  7  1 28 59.9980000  0  7 30 24  4  9 10  6  5               -0.001542533
 -24202259.480 9 -18840749.05148  21406062.637    21406062.8014   21406067.8474
        -0.000          -0.000
 -34127404.847 9 -26571531.41349  20134264.272    20134264.0694   20134270.1624
        -0.000          -0.000
  -9388900.765 9  -7293246.49747  22336152.312    22336152.3334   22336157.5304
        -0.000          -0.000
 -13411753.207 9 -10430310.76347  22625464.972    22625464.7664   22625471.0714
        -0.000          -0.000
 -21683120.675 9 -16881125.03347  21749698.766    21749697.9284   21749704.4194
        -0.000          -0.000
  -8308552.451 9  -6457438.07346  23594456.832    23594456.5584   23594463.2814
        -0.000          -0.000
 -33730977.484 9 -26020778.19549  19918464.047    19918463.4954   19918468.9764
        -0.000          -0.000
 97  3  7  1 29 29.9980000  0  7 30 24  4  9 10  6  5               -0.001555876
 -24303268.005 9 -18919456.97448  21386841.317    21386841.4884   21386846.5404
        -0.000          -0.000
 -34111452.340 9 -26559100.88049  20137299.887    20137299.6784   20137305.7774
        -0.000          -0.000
  -9319618.642 9  -7239260.42647  22349336.188    22349336.2564   22349341.4714
        -0.000          -0.000
 -13350073.316 9 -10382248.52547  22637202.266    22637202.0714   22637208.3834
        -0.000          -0.000
 -21781279.439 9 -16957612.34347  21731019.749    21731018.8794   21731025.4224
        -0.000          -0.000
  -8397174.191 9  -6526493.93146  23577592.470    23577592.2634   23577599.1184
        -0.000          -0.000
 -33778991.607 9 -26058191.79149  19909327.248    19909326.7104   19909332.1984
        -0.000          -0.000
 97  3  7  1 29 59.9980000  0  7 30 24  4  9 10  6  5               -0.001569230
 -24404026.994 9 -18997970.45348  21367667.515    21367667.6914   21367672.7344
        -0.000          -0.000
 -34095158.906 9 -26546404.69249  20140400.410    20140400.2314   20140406.3254
        -0.000          -0.000
  -9250188.868 9  -7185159.30947  22362548.142    22362548.3004   22362553.4904
        -0.000          -0.000
 -13288270.278 9 -10334090.32447  22648963.043    22648962.8094   22648969.1504
        -0.000          -0.000
 -21879153.945 9 -17033878.15247  21712394.762    21712393.9124   21712400.4704
        -0.000          -0.000
  -8485818.900 9  -6595567.67546  23560723.919    23560723.7304   23560730.5974
        -0.000          -0.000
 -33826556.689 9 -26095255.49049  19900275.920    19900275.3764   19900280.8724
        -0.000          -0.000
 97  3  7  1 30 29.9980000  0  7 30 24  4  9 10  6  5               -0.001582588
 -24504513.942 9 -19076271.95548  21348545.477    21348545.6594   21348550.6984
        -0.000          -0.000
 -34078523.858 9 -26533442.31149  20143565.959    20143565.7704   20143571.8544
        -0.000          -0.000
  -9180617.946 9  -7130948.20347  22375786.954    22375787.1454   22375792.3704
        -0.000          -0.000
 -13226320.169 9 -10285817.54547  22660751.697    22660751.4884   22660757.8694
        -0.000          -0.000
 -21976748.302 9 -17109925.67447  21693823.136    21693822.2904   21693828.8494
        -0.000          -0.000
  -8574487.432 9  -6664659.97946  23543850.830    23543850.6514   23543857.4944
        -0.000          -0.000
 -33873684.655 9 -26131978.57649  19891307.770    19891307.2344   19891312.7074
        -0.000          -0.000
 97  3  7  1 30 59.9980000  0  7 30 24  4  9 10  6  5               -0.001595953
 -24604720.597 9 -19154355.04748  21329476.780    21329476.9504   21329481.9624
        -0.000          -0.000
 -34061530.072 9 -26520200.39149  20146799.763    20146799.5714   20146805.6434
        -0.000          -0.000
  -9110915.599 9  -7076634.68647  22389050.906    22389051.0734   22389056.3274
        -0.000          -0.000
 -13164222.130 9 -10237429.48347  22672568.551    22672568.3484   22672574.7104
        -0.000          -0.000
 -22074060.764 9 -17185753.53547  21675305.132    21675304.2794   21675310.8674
        -0.000          -0.000
  -8663177.743 9  -6733769.22846  23526973.596    23526973.3954   23526980.2274
        -0.000          -0.000
 -33920385.715 9 -26168369.00649  19882420.832    19882420.2874   19882425.7684
        -0.000          -0.000
 97  3  7  1 31 29.9980000  0  7 30 24  4  9 10  6  5               -0.001609312
 -24704643.874 9 -19232217.31948  21310461.994    21310462.1644   21310467.2014
        -0.000          -0.000
 -34044159.024 9 -26506664.49649  20150105.363    20150105.1634   20150111.2444
        -0.000          -0.000
  -9041092.424 9  -7022227.01447  22402337.859    22402338.0144   22402343.2154
        -0.000          -0.000
 -13101967.652 9 -10188919.51047  22684415.212    22684414.9664   22684421.3054
        -0.000          -0.000
 -22171049.882 9 -17261329.43647  21656848.683    21656847.8364   21656854.4654
        -0.000          -0.000
  -8751864.879 9  -6802876.05046  23510096.890    23510096.8194   23510103.4554
        -0.000          -0.000
 -33966658.899 9 -26204426.02849  19873615.315    19873614.7734   19873620.2464
        -0.000          -0.000
 97  3  7  1 31 59.9980000  0  7 30 24  4  9 10  6  5               -0.001622666
 -24804295.326 9 -19309867.78848  21291498.919    21291499.0924   21291504.1254
        -0.000          -0.000
 -34026418.020 9 -26492840.33049  20153481.350    20153481.1654   20153487.2364
        -0.000          -0.000
  -8971168.896 9  -6967741.15247  22415643.907    22415644.0524   22415649.2284
        -0.000          -0.000
 -13039552.453 9 -10140284.31647  22696292.373    22696292.1444   22696298.4844
        -0.000          -0.000
 -22267691.858 9 -17336634.84447  21638458.281    21638457.4384   21638464.0324
        -0.000          -0.000
  -8840545.662 9  -6871977.92446  23493221.503    23493221.3914   23493227.9794
        -0.000          -0.000
 -34012504.573 9 -26240149.92749  19864891.163    19864890.6224   19864896.1074
        -0.000          -0.000
 97  3  7  1 32 29.9980000  0  7 30 24  4  9 10  6  5               -0.001636033
 -24903679.394 9 -19387309.90248  21272586.733    21272586.8954   21272591.9254
        -0.000          -0.000
 -34008306.628 9 -26478727.54949  20156927.817    20156927.6294   20156933.6894
        -0.000          -0.000
  -8901167.034 9  -6913194.24247  22428964.871    22428964.9914   22428970.2184
        -0.000          -0.000
 -12976988.751 9 -10091533.38747  22708197.865    22708197.6424   22708203.9964
        -0.000          -0.000
 -22364000.497 9 -17411680.50647  21620131.339    21620130.5254   21620137.0864
        -0.000          -0.000
  -8929215.368 9  -6941071.12546  23476348.116    23476348.0224   23476354.7004
        -0.000          -0.000
 -34057906.695 9 -26275528.20149  19856251.436    19856250.9044   19856256.3764
        -0.000          -0.000
 97  3  7  1 32 59.9980000  0  7 30 24  4  9 10  6  5               -0.001649418
 -25002797.266 9 -19464544.59348  21253725.192    21253725.3724   21253730.4024
        -0.000          -0.000
 -33989821.496 9 -26464323.54149  20160445.406    20160445.2044   20160451.2674
        -0.000          -0.000
  -8831085.295 9  -6858585.08947  22442300.965    22442301.0884   22442306.3064
        -0.000          -0.000
 -12914301.404 9 -10042686.12347  22720126.897    22720126.6834   22720133.0054
        -0.000          -0.000
 -22459958.494 9 -17486452.94047  21601871.147    21601870.3174   21601876.8494
        -0.000          -0.000
  -9017877.587 9  -7010158.48746  23459476.221    23459476.0134   23459482.8554
        -0.000          -0.000
 -34102854.889 9 -26310552.76449  19847698.072    19847697.5454   19847703.0014
        -0.000          -0.000
 97  3  7  1 33 29.9980000  0  7 30 24  4  9 10  6  5               -0.001662824
 -25101642.600 9 -19541566.91748  21234915.544    21234915.7344   21234920.7344
        -0.000          -0.000
 -33970978.516 9 -26449640.69249  20164031.083    20164030.9124   20164036.9724
        -0.000          -0.000
  -8760920.769 9  -6803911.43547  22455652.800    22455652.9254   22455658.1994
        -0.000          -0.000
 -12851491.119 9  -9993743.05947  22732079.289    22732079.0494   22732085.4404
        -0.000          -0.000
 -22555568.519 9 -17560954.23147  21583677.134    21583676.3224   21583682.8364
        -0.000          -0.000
  -9106538.229 9  -7079244.65746  23442604.701    23442604.5024   23442611.1594
        -0.000          -0.000
 -34147329.785 9 -26345208.52549  19839234.791    19839234.2644   19839239.7034
        -0.000          -0.000
 97  3  7  1 33 59.9980000  0  7 30 24  4  9 10  6  5               -0.001676266
 -25200200.216 9 -19618365.04548  21216160.611    21216160.7984   21216165.8184
        -0.000          -0.000
 -33951800.909 9 -26434697.09549  20167680.494    20167680.3064   20167686.3684
        -0.000          -0.000
  -8690675.726 9  -6749175.04447  22469019.961    22469020.0914   22469025.3734
        -0.000          -0.000
 -12788579.352 9  -9944720.92347  22744050.988    22744050.7814   22744057.1984
        -0.000          -0.000
 -22650859.196 9 -17635206.67947  21565543.885    21565543.0654   21565549.5764
        -0.000          -0.000
  -9195220.434 9  -7148347.63546  23425728.989    23425728.8654   23425735.3904
        -0.000          -0.000
 -34191332.427 9 -26379496.29349  19830861.365    19830860.8414   19830866.2874
        -0.000          -0.000
 97  3  7  1 34 29.9980000  0  7 30 24  4  9 10  6  5               -0.001689745
 -25298434.766 9 -19694911.43748  21197467.143    21197467.3394   21197472.3764
        -0.000          -0.000
 -33932273.834 9 -26419481.18849  20171396.357    20171396.1734   20171402.2334
        -0.000          -0.000
  -8620342.664 9  -6694370.07147  22482403.881    22482404.0264   22482409.3274
        -0.000          -0.000
 -12725564.734 9  -9895618.64047  22756042.292    22756042.0704   22756048.5124
        -0.000          -0.000
 -22745828.310 9 -17709208.55847  21547471.857    21547471.0364   21547477.5624
        -0.000          -0.000
  -9283918.512 9  -7217462.96046  23408850.187    23408850.0914   23408856.6424
        -0.000          -0.000
 -34234847.740 9 -26413404.33049  19822580.663    19822580.1434   19822585.5944
        -0.000          -0.000
 97  3  7  1 34 59.9980000  0  7 30 24  4  9 10  6  5               -0.001703261
 -25396346.724 9 -19771206.45148  21178835.125    21178835.2974   21178840.3534
        -0.000          -0.000
 -33912410.334 9 -26404003.12649  20175176.198    20175176.0264   20175182.0814
        -0.000          -0.000
  -8549921.627 9  -6639496.52847  22495804.542    22495804.6584   22495810.0064
        -0.000          -0.000
 -12662445.547 9  -9846434.87347  22768053.497    22768053.2744   22768059.7284
        -0.000          -0.000
 -22840470.259 9 -17782955.49747  21529462.072    21529461.2444   21529467.7584
        -0.000          -0.000
  -9372647.119 9  -7286602.07946  23391965.595    23391965.5694   23391972.1314
        -0.000          -0.000
 -34277875.337 9 -26446932.32049  19814392.767    19814392.2524   19814397.6934
        -0.000          -0.000
 97  3  7  1 35 29.9980000  0  7 30 24  4  9 10  6  5               -0.001716798
 -25493919.122 9 -19847236.87848  21160267.681    21160267.8814   21160272.9344
        -0.000          -0.000
 -33892199.568 9 -26388254.47549  20179022.158    20179022.0044   20179028.0514
        -0.000          -0.000
  -8479397.908 9  -6584542.98347  22509224.784    22509224.9084   22509230.1964
        -0.000          -0.000
 -12599187.747 9  -9797143.09547  22780091.088    22780090.8914   22780097.2704
        -0.000          -0.000
 -22934770.266 9 -17856436.00247  21511517.352    21511516.5074   21511523.0014
        -0.000          -0.000
  -9461384.745 9  -7355748.22346  23375079.413    23375079.3194   23375085.8124
        -0.000          -0.000
 -34320392.102 9 -26480062.26449  19806302.077    19806301.5534   19806306.9974
        -0.000          -0.000
 97  3  7  1 35 59.9980000  0  7 30 24  4  9 10  6  5               -0.001730361
 -25591177.736 9 -19923022.79748  21141759.975    21141760.1844   21141765.2274
        -0.000          -0.000
 -33871667.381 9 -26372255.36149  20182929.313    20182929.1494   20182935.2014
        -0.000          -0.000
  -8408797.141 9  -6529529.39947  22522659.658    22522659.7874   22522665.0764
        -0.000          -0.000
 -12535809.416 9  -9747757.39047  22792151.632    22792151.4424   22792157.7714
        -0.000          -0.000
 -23028746.837 9 -17929664.47048  21493634.209    21493633.3874   21493639.8404
        -0.000          -0.000
  -9550148.513 9  -7424914.74846  23358188.187    23358188.0334   23358194.5024
        -0.000          -0.000
 -34362435.205 9 -26512823.12249  19798301.539    19798301.0314   19798306.4844
        -0.000          -0.000
 97  3  7  1 36 29.9980000  0  7 30 24  4  9 10  6  5               -0.001743940
 -25688133.438 9 -19998572.68548  21123309.940    21123310.1564   21123315.1854
        -0.000          -0.000
 -33850812.262 9 -26356004.61249  20186897.917    20186897.7714   20186903.8264
        -0.000          -0.000
  -8338108.318 9  -6474447.19647  22536111.239    22536111.3954   22536116.6674
        -0.000          -0.000
 -12472305.622 9  -9698273.92247  22804236.002    22804235.8264   22804242.1334
        -0.000          -0.000
 -23122381.321 9 -18002626.37548  21475816.134    21475815.3324   21475821.7344
        -0.000          -0.000
  -9638923.961 9  -7494090.36146  23341294.678    23341294.5184   23341301.0684
        -0.000          -0.000
 -34403991.032 9 -26545204.28049  19790393.710    19790393.1864   19790398.6594
        -0.000          -0.000
 97  3  7  1 36 59.9980000  0  7 30 24  4  9 10  6  5               -0.001757524
 -25784810.681 9 -20073905.58948  21104912.858    21104913.0434   21104918.0714
        -0.000          -0.000
 -33829653.572 9 -26339517.31649  20190924.283    20190924.1344   20190930.1794
        -0.000          -0.000
  -8267329.453 9  -6419294.83647  22549580.033    22549580.1904   22549585.4724
        -0.000          -0.000
 -12408691.325 9  -9648704.35147  22816341.412    22816341.2454   22816347.5284
        -0.000          -0.000
 -23215673.810 9 -18075321.79348  21458063.141    21458062.3524   21458068.7464
        -0.000          -0.000
  -9727721.682 9  -7563283.32346  23324397.073    23324396.8264   23324403.4324
        -0.000          -0.000
 -34445085.405 9 -26577225.86749  19782573.698    19782573.1904   19782578.6384
        -0.000          -0.000
 97  3  7  1 37 29.9980000  0  7 30 24  4  9 10  6  5               -0.001771109
 -25881205.865 9 -20149018.70348  21086569.432    21086569.6424   21086574.6844
        -0.000          -0.000
 -33808196.534 9 -26322797.54049  20195007.410    20195007.2484   20195013.2924
        -0.000          -0.000
  -8196470.899 9  -6364080.39247  22563063.951    22563064.0864   22563069.4454
        -0.000          -0.000
 -12344971.918 9  -9599052.87947  22828466.849    22828466.6714   22828472.9904
        -0.000          -0.000
 -23308636.018 9 -18147759.84848  21440373.010    21440372.1794   21440378.5944
        -0.000          -0.000
  -9816540.081 9  -7632492.42346  23307495.514    23307495.2774   23307501.7894
        -0.000          -0.000
 -34485747.931 9 -26608910.94949  19774835.848    19774835.3464   19774840.7874
        -0.000          -0.000
 97  3  7  1 37 59.9980000  0  7 30 24  4  9 10  6  5               -0.001784683
 -25977291.356 9 -20223890.50148  21068284.962    21068285.1604   21068290.1844
        -0.000          -0.000
 -33786426.487 9 -26305833.86249  20199150.094    20199149.9294   20199156.0034
        -0.000          -0.000
  -8125518.306 9  -6308792.65247  22576565.751    22576565.8794   22576571.2684
        -0.000          -0.000
 -12281145.788 9  -9549318.23847  22840612.513    22840612.3334   22840618.6914
        -0.000          -0.000
 -23401250.639 9 -18219927.05148  21422749.006    21422748.1904   21422754.6184
        -0.000          -0.000
  -9905358.268 9  -7701701.34246  23290593.915    23290593.6784   23290600.1314
        -0.000          -0.000
 -34525969.664 9 -26640252.56249  19767181.902    19767181.4054   19767186.8324
        -0.000          -0.000
 97  3  7  1 38 29.9980000  0  7 30 24  4  9 10  6  5               -0.001798246
 -26073052.334 9 -20298509.43748  21050062.216    21050062.4254   21050067.4664
        -0.000          -0.000
 -33764327.162 9 -26288613.60149  20203355.423    20203355.2584   20203361.3294
        -0.000          -0.000
  -8054463.606 9  -6253425.36347  22590086.995    22590087.1594   22590092.5334
        -0.000          -0.000
 -12217219.285 9  -9499505.40047  22852777.333    22852777.1714   22852783.5494
        -0.000          -0.000
 -23493500.317 9 -18291809.89348  21405194.465    21405193.6434   21405200.0644
        -0.000          -0.000
  -9994172.319 9  -7770907.04546  23273693.170    23273692.9984   23273699.3424
        -0.000          -0.000
 -34565740.075 9 -26671242.49249  19759613.819    19759613.3244   19759618.7664
        -0.000          -0.000
 97  3  7  1 38 59.9980000  0  7 30 24  4  9 10  6  5               -0.001811796
 -26168476.975 9 -20372866.28348  21031903.476    21031903.6964   21031908.7284
        -0.000          -0.000
 -33741895.686 9 -26271134.52349  20207623.988    20207623.8134   20207629.8924
        -0.000          -0.000
  -7983314.026 9  -6197984.12047  22603626.309    22603626.4954   22603631.8284
        -0.000          -0.000
 -12153179.511 9  -9449604.27347  22864963.687    22864963.5354   22864969.8994
        -0.000          -0.000
 -23585383.705 9 -18363407.30848  21387709.598    21387708.7674   21387715.1764
        -0.000          -0.000
 -10082977.752 9  -7840106.01846  23256794.018    23256793.7974   23256800.1614
        -0.000          -0.000
 -34605061.316 9 -26701882.41649  19752131.260    19752130.7744   19752136.2064
        -0.000          -0.000
 97  3  7  1 39 29.9980000  0  7 30 24  4  9 10  6  5               -0.001825353
 -26263566.166 9 -20446961.74248  21013808.635    21013808.8634   21013813.8914
        -0.000          -0.000
 -33719136.416 9 -26253400.02149  20211954.928    20211954.7454   20211960.8114
        -0.000          -0.000
  -7912095.474 9  -6142489.14647  22617178.820    22617178.9534   22617184.2414
        -0.000          -0.000
 -12089033.344 9  -9399620.26246  22877170.243    22877170.0954   22877176.5194
        -0.000          -0.000
 -23676904.869 9 -18434722.47548  21370293.662    21370292.8444   21370299.2404
        -0.000          -0.000
 -10171774.510 9  -7909298.23246  23239896.459    23239896.2954   23239902.7434
        -0.000          -0.000
 -34643908.386 9 -26732152.85949  19744738.894    19744738.4024   19744743.8414
        -0.000          -0.000
 97  3  7  1 39 59.9980000  0  7 30 24  4  9 10  6  5               -0.001838942
 -26358347.553 9 -20520817.35948  20995772.348    20995772.5494   20995777.5774
        -0.000          -0.000
 -33696057.072 9 -26235416.10849  20216346.718    20216346.5744   20216352.6504
        -0.000          -0.000
  -7840826.293 9  -6086954.71546  22630740.927    22630741.0744   22630746.3504
        -0.000          -0.000
 -12024815.237 9  -9349580.20046  22889390.502    22889390.3354   22889396.8544
        -0.000          -0.000
 -23768053.702 9 -18505747.51448  21352948.602    21352947.7724   21352954.1824
        -0.000          -0.000
 -10260582.223 9  -7978498.98646  23222996.830    23222996.6944   23223003.0724
        -0.000          -0.000
 -34682262.694 9 -26762039.32949  19737440.305    19737439.8154   19737445.2434
        -0.000          -0.000
 97  3  7  1 40 29.9980000  0  7 30 24  4  9 10  6  5               -0.001852561
 -26452824.880 9 -20594436.04048  20977793.904    20977794.0954   20977799.1124
        -0.000          -0.000
 -33672644.279 9 -26217172.36649  20220802.024    20220801.8804   20220807.9614
        -0.000          -0.000
  -7769499.569 9  -6031375.44746  22644313.927    22644314.0784   22644319.4044
        -0.000          -0.000
 -11960518.428 9  -9299478.80947  22901625.801    22901625.6844   22901632.1884
        -0.000          -0.000
 -23858811.762 9 -18576468.04948  21335677.843    21335677.0284   21335683.4384
        -0.000          -0.000
 -10349399.686 9  -8047707.35346  23206095.460    23206095.2954   23206101.6534
        -0.000          -0.000
 -34720112.310 9 -26791532.53249  19730237.761    19730237.2814   19730242.7174
        -0.000          -0.000
 97  3  7  1 40 59.9980000  0  7 30 24  4  9 10  6  5               -0.001866211
 -26547002.216 9 -20667820.96448  20959872.555    20959872.7524   20959877.7524
        -0.000          -0.000
 -33648897.615 9 -26198668.46049  20225320.855    20225320.7124   20225326.7854
        -0.000          -0.000
  -7698124.175 9  -5975758.26046  22657896.169    22657896.3154   22657901.6124
        -0.000          -0.000
 -11896142.429 9  -9249315.70546  22913876.163    22913875.9544   22913882.5754
        -0.000          -0.000
 -23949182.046 9 -18646886.42248  21318480.946    21318480.1334   21318486.5284
        -0.000          -0.000
 -10438226.152 9  -8116922.72546  23189192.313    23189192.1564   23189198.4914
        -0.000          -0.000
 -34757457.233 9 -26820632.46649  19723131.264    19723130.7714   19723136.2084
        -0.000          -0.000
 97  3  7  1 41 29.9980000  0  7 30 24  4  9 10  6  5               -0.001879896
 -26640875.486 9 -20740968.95648  20942009.048    20942009.2394   20942014.2404
        -0.000          -0.000
 -33624808.087 9 -26179897.39149  20229904.916    20229904.7984   20229910.8724
        -0.000          -0.000
  -7626692.581 9  -5920097.27946  22671489.155    22671489.2854   22671494.6044
        -0.000          -0.000
 -11831706.185 9  -9199105.66746  22926137.910    22926137.7154   22926144.4424
        -0.000          -0.000
 -24039161.602 9 -18717000.33248  21301358.344    21301357.5274   21301363.9284
        -0.000          -0.000
 -10527068.039 9  -8186150.11446  23172286.235    23172286.0504   23172292.3574
        -0.000          -0.000
 -34794295.845 9 -26849337.88149  19716121.110    19716120.6444   19716126.0564
        -0.000          -0.000
 97  3  7  1 41 59.9980000  0  7 30 24  4  9 10  6  5               -0.001893605
 -26734444.794 9 -20813880.08948  20924203.347    20924203.5664   20924208.5784
        -0.000          -0.000
 -33600385.716 9 -26160866.96349  20234552.343    20234552.2114   20234558.2854
        -0.000          -0.000
  -7555199.231 9  -5864388.16446  22685093.905    22685093.9664   22685099.3214
        -0.000          -0.000
 -11767211.061 9  -9148849.75046  22938410.886    22938410.7194   22938417.4554
        -0.000          -0.000
 -24128758.373 9 -18786815.96848  21284308.643    21284307.8304   21284314.2334
        -0.000          -0.000
 -10615934.400 9  -8255396.59246  23155375.519    23155375.3284   23155381.5804
        -0.000          -0.000
 -34830658.844 9 -26877672.68349  19709201.451    19709200.9644   19709206.3884
        -0.000          -0.000
 97  3  7  1 42 29.9980000  0  7 30 24  4  9 10  6  5               -0.001907326
 -26827692.350 9 -20886540.50648  20906458.909    20906459.1304   20906464.1694
        -0.000          -0.000
 -33575648.097 9 -26141590.88949  20239259.786    20239259.6324   20239265.7124
        -0.000          -0.000
  -7483633.709 9  -5808622.81546  22698712.373    22698712.4584   22698717.7824
        -0.000          -0.000
 -11702643.673 9  -9098537.51846  22950697.614    22950697.4824   22950704.2344
        -0.000          -0.000
 -24217992.602 9 -18856349.10448  21267327.876    21267327.0664   21267333.4814
        -0.000          -0.000
 -10704821.896 9  -8324659.52946  23138460.652    23138460.4974   23138466.7594
        -0.000          -0.000
 -34866560.229 9 -26905647.78649  19702369.617    19702369.1244   19702374.5624
        -0.000          -0.000
 97  3  7  1 42 59.9980000  0  7 30 24  4  9 10  6  5               -0.001921048
 -26920595.402 9 -20958932.48148  20888779.994    20888780.2284   20888785.2594
        -0.000          -0.000
 -33550618.057 9 -26122086.95549  20244022.813    20244022.6554   20244028.7544
        -0.000          -0.000
  -7411994.208 9  -5752799.83746  22712344.883    22712345.0314   22712350.2924
        -0.000          -0.000
 -11638001.976 9  -9048167.38346  22962998.574    22962998.3874   22963005.1354
        -0.000          -0.000
 -24306866.964 9 -18925601.82848  21250415.625    21250414.8244   21250421.2674
        -0.000          -0.000
 -10793724.151 9  -8393933.97546  23121543.144    23121542.9694   23121549.2044
        -0.000          -0.000
 -34901980.881 9 -26933248.29349  19695629.283    19695628.8004   19695634.2554
        -0.000          -0.000
 97  3  7  1 43 29.9980000  0  7 30 24  4  9 10  6  5               -0.001934774
 -27013134.542 9 -21031040.88648  20871170.394    20871170.6194   20871175.6624
        -0.000          -0.000
 -33525309.819 9 -26102366.24349  20248838.828    20248838.6614   20248844.7464
        -0.000          -0.000
  -7340273.866 9  -5696913.85546  22725992.760    22725992.9324   22725998.2274
        -0.000          -0.000
 -11573284.277 9  -8997738.03346  22975313.949    22975313.7414   22975320.5064
        -0.000          -0.000
 -24395376.880 9 -18994570.55948  21233572.722    21233571.9044   21233578.3774
        -0.000          -0.000
 -10882631.996 9  -8463212.76746  23104624.570    23104624.4014   23104630.5824
        -0.000          -0.000
 -34936902.263 9 -26960459.75549  19688983.971    19688983.4804   19688988.9394
        -0.000          -0.000
 97  3  7  1 43 59.9980000  0  7 30 24  4  9 10  6  5               -0.001948502
 -27105314.830 9 -21102869.67048  20853629.065    20853629.2934   20853634.3274
        -0.000          -0.000
 -33499741.047 9 -26082442.51649  20253704.358    20253704.2124   20253710.2954
        -0.000          -0.000
  -7268478.874 9  -5640969.70446  22739654.872    22739655.0344   22739660.3934
        -0.000          -0.000
 -11508492.617 9  -8947251.02046  22987643.424    22987643.1564   22987649.9624
        -0.000          -0.000
 -24483519.846 9 -19063253.36348  21216799.662    21216798.8164   21216805.2744
        -0.000          -0.000
 -10971546.572 9  -8532496.81246  23087704.649    23087704.4654   23087710.6194
        -0.000          -0.000
 -34971324.505 9 -26987282.28049  19682433.655    19682433.1454   19682438.6064
        -0.000          -0.000
 97  3  7  1 44 29.9980000  0  7 30 24  4  9 10  6  5               -0.001962245
 -27197151.260 9 -21174430.51248  20836153.157    20836153.4014   20836158.4054
        -0.000          -0.000
 -33473917.989 9 -26062320.64749  20258618.326    20258618.1904   20258624.2894
        -0.000          -0.000
  -7196624.382 9  -5584979.19646  22753328.327    22753328.4894   22753333.8484
        -0.000          -0.000
 -11443650.282 9  -8896724.54946  22999982.485    22999982.2734   22999989.0374
        -0.000          -0.000
 -24571299.701 9 -19131653.21848  21200095.704    21200094.8704   21200101.3174
        -0.000          -0.000
 -11060476.669 9  -8601792.95446  23070781.788    23070781.5614   23070787.7404
        -0.000          -0.000
 -35005248.008 9 -27013716.17649  19675978.175    19675977.6844   19675983.1544
        -0.000          -0.000
 97  3  7  1 44 59.9980000  0  7 30 24  4  9 10  6  5               -0.001976018
 -27288658.631 9 -21245734.94448  20818739.874    20818740.1164   20818745.1054
        -0.000          -0.000
 -33447830.239 9 -26041992.52749  20263582.648    20263582.4844   20263588.5924
        -0.000          -0.000
  -7124733.828 9  -5528960.58046  22767008.650    22767008.8284   22767014.1884
        -0.000          -0.000
 -11378778.737 9  -8846175.30446  23012327.162    23012327.0074   23012333.7104
        -0.000          -0.000
 -24658708.666 9 -19199764.06948  21183462.297    21183461.4654   21183467.9104
        -0.000          -0.000
 -11149424.969 9  -8671103.27246  23053855.442    23053855.2484   23053861.3794
        -0.000          -0.000
 -35038678.640 9 -27039766.01849  19669616.549    19669616.0684   19669621.5314
        -0.000          -0.000
 97  3  7  1 45 29.9980000  0  7 30 24  4  9 10  6  5               -0.001989819
 -27379852.616 9 -21316795.18248  20801386.240    20801386.4704   20801391.4644
        -0.000          -0.000
 -33421446.577 9 -26021433.82349  20268603.279    20268603.1484   20268609.2364
        -0.000          -0.000
  -7052810.382 9  -5472916.34446  22780695.214    22780695.4134   22780700.7754
        -0.000          -0.000
 -11313874.315 9  -8795600.42946  23024678.133    23024677.9474   23024684.6294
        -0.000          -0.000
 -24745738.534 9 -19267579.52948  21166901.054    21166900.2304   21166906.6444
        -0.000          -0.000
 -11238389.169 9  -8740425.97246  23036925.993    23036925.7594   23036932.0074
        -0.000          -0.000
 -35071623.546 9 -27065437.37249  19663347.377    19663346.8784   19663352.3374
        -0.000          -0.000
 97  3  7  1 45 59.9980000  0  7 30 24  4  9 10  6  5               -0.002003642
 -27470724.292 9 -21387604.27148  20784093.897    20784094.1414   20784099.1224
        -0.000          -0.000
 -33394743.606 9 -26000626.30649  20273684.716    20273684.5704   20273690.6564
        -0.000          -0.000
  -6980853.329 9  -5416845.91846  22794388.178    22794388.3834   22794393.7444
        -0.000          -0.000
 -11248924.429 9  -8744990.13046  23037037.698    23037037.4914   23037044.1644
        -0.000          -0.000
 -24832367.516 9 -19335082.60448  21150416.076    21150415.2624   21150421.6474
        -0.000          -0.000
 -11327364.205 9  -8809757.13246  23019994.479    23019994.3194   23020000.4684
        -0.000          -0.000
 -35104085.629 9 -27090732.49949  19657170.023    19657169.5354   19657175.0084
        -0.000          -0.000
 97  3  7  1 46 29.9970000  0  7 30 24  4  9 10  6  5               -0.002017493
 -27561257.212 9 -21458149.39148  20766866.036    20766866.2884   20766871.2554
        -0.000          -0.000
 -33367715.775 9 -25979565.65049  20278827.915    20278827.7804   20278833.8554
        -0.000          -0.000
  -6908881.782 9  -5360764.18546  22808083.947    22808084.0924   22808089.5094
        -0.000          -0.000
 -11183928.886 9  -8694344.25946  23049405.995    23049405.7494   23049412.3634
        -0.000          -0.000
 -24918591.761 9 -19402270.29548  21134008.108    21134007.3114   21134013.6814
        -0.000          -0.000
 -11416339.963 9  -8879088.85946  23003062.921    23003062.7514   23003068.8964
        -0.000          -0.000
 -35136055.886 9 -27115644.38549  19651086.273    19651085.7964   19651091.2464
        -0.000          -0.000
 97  3  7  1 46 59.9970000  0  7 30 24  4  9 10  6  5               -0.002031380
 -27651445.502 9 -21528425.97048  20749703.739    20749703.9794   20749708.9544
        -0.000          -0.000
 -33340381.653 9 -25958266.33049  20284029.432    20284029.2894   20284035.3624
        -0.000          -0.000
  -6836905.048 9  -5304678.42446  22821780.693    22821780.8804   22821786.2154
        -0.000          -0.000
 -11118888.334 9  -8643663.31146  23061782.808    23061782.6004   23061789.1844
        -0.000          -0.000
 -25004421.628 9 -19469150.68348  21117675.168    21117674.3884   21117680.7324
        -0.000          -0.000
 -11505330.904 9  -8948432.39446  22986128.418    22986128.3344   22986134.4854
        -0.000          -0.000
 -35167534.411 9 -27140173.10849  19645096.126    19645095.6334   19645101.0774
        -0.000          -0.000
 97  3  7  1 47 29.9970000  0  7 30 24  4  9 10  6  5               -0.002045288
 -27741255.218 9 -21598407.55348  20732613.514    20732613.7604   20732618.7384
        -0.000          -0.000
 -33312747.815 9 -25936733.46449  20289287.974    20289287.8384   20289293.9094
        -0.000          -0.000
  -6764904.623 9  -5248574.18846  22835481.887    22835482.0254   22835487.4214
        -0.000          -0.000
 -11053786.533 9  -8592934.64046  23074171.249    23074170.9944   23074177.6064
        -0.000          -0.000
 -25089840.334 9 -19535710.68748  21101420.507    21101419.7114   21101426.0794
        -0.000          -0.000
 -11594333.872 9  -9017785.31746  22969191.689    22969191.6494   22969197.6964
        -0.000          -0.000
 -35198512.954 9 -27164312.22949  19639201.062    19639200.5844   19639206.0354
        -0.000          -0.000
 97  3  7  1 47 59.9970000  0  7 30 24  4  9 10  6  5               -0.002059211
 -27830666.590 9 -21668078.74048  20715599.079    20715599.2994   20715604.2914
        -0.000          -0.000
 -33284837.398 9 -25914985.08349  20294599.124    20294598.9824   20294605.0724
        -0.000          -0.000
  -6692869.095 9  -5192442.60546  22849189.711    22849189.9054   22849195.2894
        -0.000          -0.000
 -10988633.895 9  -8542166.37146  23086569.317    23086569.1614   23086575.6994
        -0.000          -0.000
 -25174835.672 9 -19601940.79348  21085246.410    21085245.6184   21085251.9764
        -0.000          -0.000
 -11683345.555 9  -9087145.04146  22952253.345    22952253.2864   22952259.3264
        -0.000          -0.000
 -35228989.303 9 -27188060.03249  19633401.629    19633401.1494   19633406.6034
        -0.000          -0.000
 97  3  7  1 48 29.9970000  0  7 30 24  4  9 10  6  5               -0.002073154
 -27919694.244 9 -21737450.92748  20698657.694    20698657.9174   20698662.8884
        -0.000          -0.000
 -33256668.117 9 -25893034.98549  20299959.550    20299959.4404   20299965.5214
        -0.000          -0.000
  -6620800.438 9  -5136285.20146  22862903.915    22862904.1004   22862909.4424
        -0.000          -0.000
 -10923452.633 9  -8491375.79246  23098972.842    23098972.6844   23098979.2964
        -0.000          -0.000
 -25259420.990 9 -19667851.40248  21069150.362    21069149.5514   21069155.9204
        -0.000          -0.000
 -11772373.499 9  -9156517.40946  22935311.803    22935311.7744   22935317.9184
        -0.000          -0.000
 -35258962.407 9 -27211415.69949  19627697.950    19627697.4684   19627702.9304
        -0.000          -0.000
 97  3  7  1 48 59.9970000  0  7 30 24  4  9 10  6  5               -0.002087095
 -28008325.098 9 -21806513.92248  20681791.792    20681791.9934   20681796.9674
        -0.000          -0.000
 -33228223.749 9 -25870870.53849  20305372.320    20305372.1934   20305378.2844
        -0.000          -0.000
  -6548670.167 9  -5080079.78646  22876629.896    22876630.0484   22876635.3204
        -0.000          -0.000
 -10858222.936 9  -8440547.45246  23111385.713    23111385.4714   23111392.0954
        -0.000          -0.000
 -25343573.488 9 -19733424.75248  21053136.639    21053135.8574   21053142.2104
        -0.000          -0.000
 -11861410.152 9  -9225896.58046  22918368.659    22918368.6444   22918374.7874
        -0.000          -0.000
 -35288434.567 9 -27234381.01949  19622089.571    19622089.0804   19622094.5524
        -0.000          -0.000
 97  3  7  1 49 29.9970000  0  7 30 24  4  9 10  6  5               -0.002101039
 -28096577.045 9 -21875281.65948  20664997.974    20664998.1994   20665003.1754
        -0.000          -0.000
 -33199504.286 9 -25848491.73149  20310837.388    20310837.2704   20310843.3794
        -0.000          -0.000
  -6476489.673 9  -5023835.23646  22890365.441    22890365.5494   22890370.7314
        -0.000          -0.000
 -10792959.460 9  -8389692.80146  23123804.854    23123804.7134   23123811.2434
        -0.000          -0.000
 -25427305.149 9 -19798670.17548  21037202.990    21037202.2384   21037208.5574
        -0.000          -0.000
 -11950464.890 9  -9295289.84746  22901422.055    22901422.0654   22901428.1674
        -0.000          -0.000
 -35317428.679 9 -27256973.83149  19616572.152    19616571.6904   19616577.1514
        -0.000          -0.000
 97  3  7  1 49 59.9970000  0  7 30 24  4  9 10  6  5               -0.002114983
 -28184458.123 9 -21943760.40948  20648274.768    20648274.9874   20648279.9784
        -0.000          -0.000
 -33170498.835 9 -25825890.07449  20316356.947    20316356.8594   20316362.9644
        -0.000          -0.000
  -6404266.928 9  -4967557.75946  22904108.988    22904109.1154   22904114.2314
        -0.000          -0.000
 -10727659.807 9  -8338809.95846  23136230.959    23136230.7914   23136237.3464
        -0.000          -0.000
 -25510616.727 9 -19863588.26148  21021349.324    21021348.5434   21021354.8644
        -0.000          -0.000
 -12039518.510 9  -9364682.23646  22884475.707    22884475.7074   22884481.7904
        -0.000          -0.000
 -35345938.896 9 -27279189.58049  19611146.838    19611146.3564   19611151.8384
        -0.000          -0.000
 97  3  7  1 50 29.9970000  0  7 30 24  4  9 10  6  5               -0.002128935
 -28271967.834 9 -22011949.78748  20631622.196    20631622.4154   20631627.4104
        -0.000          -0.000
 -33141190.981 9 -25803052.78649  20321934.070    20321933.9584   20321940.0534
        -0.000          -0.000
  -6332014.666 9  -4911257.28346  22917858.119    22917858.2864   22917863.3674
        -0.000          -0.000
 -10662321.377 9  -8287896.91346  23148664.428    23148664.3334   23148670.9144
        -0.000          -0.000
 -25593514.045 9 -19928183.55248  21005574.474    21005573.6844   21005579.9974
        -0.000          -0.000
 -12128576.117 9  -9434077.72646  22867528.540    22867528.5604   22867534.5844
        -0.000          -0.000
 -35373963.778 9 -27301027.15249  19605813.865    19605813.3784   19605818.8594
        -0.000          -0.000
 97  3  7  1 50 59.9970000  0  7 30 24  4  9 10  6  5               -0.002142896
 -28359098.372 9 -22079843.70148  20615041.814    20615042.0134   20615047.0164
        -0.000          -0.000
 -33111595.124 9 -25779991.06949  20327565.956    20327565.8394   20327571.9364
        -0.000          -0.000
  -6259739.199 9  -4854938.73646  22931611.678    22931611.8564   22931616.9814
        -0.000          -0.000
 -10596944.424 9  -8236953.84946  23161105.261    23161105.1714   23161111.7694
        -0.000          -0.000
 -25676001.226 9 -19992459.24648  20989877.648    20989876.8614   20989883.1554
        -0.000          -0.000
 -12217643.706 9  -9503480.99546  22850579.559    22850579.5534   22850585.5374
        -0.000          -0.000
 -35401508.097 9 -27322490.25649  19600572.342    19600571.8664   19600577.3594
        -0.000          -0.000
 97  3  7  1 51 29.9970000  0  7 30 24  4  9 10  6  5               -0.002156873
 -28445846.823 9 -22147439.88848  20598534.110    20598534.3314   20598539.3054
        -0.000          -0.000
 -33081727.343 9 -25756717.47249  20333249.561    20333249.4444   20333255.5394
        -0.000          -0.000
  -6187442.780 9  -4798603.85746  22945369.210    22945369.3324   22945374.5284
        -0.000          -0.000
 -10531544.993 9  -8185993.27846  23173550.418    23173550.2654   23173556.8804
        -0.000          -0.000
 -25758079.049 9 -20056415.96848  20974258.732    20974257.9434   20974264.2504
        -0.000          -0.000
 -12306715.104 9  -9572887.24546  22833629.848    22833629.8174   22833635.7674
        -0.000          -0.000
 -35428550.281 9 -27343562.08949  19595426.397    19595425.9394   19595431.4144
        -0.000          -0.000
 97  3  7  1 51 59.9970000  0  7 30 24  4  9 10  6  5               -0.002170876
 -28532221.862 9 -22214745.10448  20582097.495    20582097.7104   20582102.7074
        -0.000          -0.000
 -33051607.415 9 -25733247.39049  20338981.221    20338981.0864   20338987.1804
        -0.000          -0.000
  -6115127.965 9  -4742254.65446  22959130.195    22959130.3354   22959135.6214
        -0.000          -0.000
 -10466139.962 9  -8135028.32746  23185996.525    23185996.4484   23186003.1754
        -0.000          -0.000
 -25839751.770 9 -20120057.02148  20958716.916    20958716.1234   20958722.4384
        -0.000          -0.000
 -12395805.669 9  -9642308.40946  22816676.386    22816676.3744   22816682.3834
        -0.000          -0.000
 -35455078.157 9 -27364233.15549  19590378.330    19590377.8544   19590383.3224
        -0.000          -0.000
 97  3  7  1 52 29.9970000  0  7 30 24  4  9 10  6  5               -0.002184903
 -28618211.133 9 -22281749.72348  20565734.264    20565734.4884   20565739.4824
        -0.000          -0.000
 -33021231.810 9 -25709578.08449  20344761.472    20344761.3554   20344767.4314
        -0.000          -0.000
  -6042787.802 9  -4685885.68646  22972896.032    22972896.2054   22972901.6154
        -0.000          -0.000
 -10400725.245 9  -8084055.83846  23198444.567    23198444.3814   23198451.1454
        -0.000          -0.000
 -25920998.004 9 -20183365.75348  20943256.260    20943255.4864   20943261.7914
        -0.000          -0.000
 -12484913.364 9  -9711742.94346  22799719.762    22799719.7234   22799725.6604
        -0.000          -0.000
 -35481069.836 9 -27384486.41349  19585432.271    19585431.7984   19585437.2814
        -0.000          -0.000
 97  3  7  1 52 59.9970000  0  7 30 24  4  9 10  6  5               -0.002198951
 -28703821.339 9 -22348458.97048  20549443.151    20549443.3774   20549448.3974
        -0.000          -0.000
 -32990614.109 9 -25685720.13349  20350587.836    20350587.7214   20350593.8014
        -0.000          -0.000
  -5970424.314 9  -4629498.55946  22986666.313    22986666.4924   22986671.8654
        -0.000          -0.000
 -10335298.696 9  -8033074.12046  23210894.804    23210894.7024   23210901.4224
        -0.000          -0.000
 -26001805.948 9 -20246332.95548  20927879.001    20927878.2414   20927884.5314
        -0.000          -0.000
 -12574038.963 9  -9781191.42146  22782759.695    22782759.6044   22782765.5234
        -0.000          -0.000
 -35506525.005 9 -27404321.60749  19580588.293    19580587.8314   19580593.3104
        -0.000          -0.000
 97  3  7  1 53 29.9970000  0  7 30 24  4  9 10  6  5               -0.002213021
 -28789049.074 9 -22414870.17848  20533224.790    20533225.0344   20533230.0544
        -0.000          -0.000
 -32959733.734 9 -25661657.49549  20356464.201    20356464.0634   20356470.1484
        -0.000          -0.000
  -5898039.065 9  -4573094.46346  23000440.753    23000440.9364   23000446.3324
        -0.000          -0.000
 -10269860.451 9  -7982083.29446  23223347.418    23223347.2414   23223353.9714
        -0.000          -0.000
 -26082154.393 9 -20308942.10448  20912589.173    20912588.3964   20912594.6764
        -0.000          -0.000
 -12663178.368 9  -9850650.65646  22765797.008    22765796.9874   22765802.8194
        -0.000          -0.000
 -35531437.961 9 -27423734.29949  19575847.553    19575847.0834   19575852.5704
        -0.000          -0.000
 97  3  7  1 53 59.9970000  0  7 30 24  4  9 10  6  5               -0.002227097
 -28873880.332 9 -22480972.44948  20517081.954    20517082.1904   20517087.1904
        -0.000          -0.000
 -32928560.271 9 -25637366.47949  20362396.276    20362396.1474   20362402.2404
        -0.000          -0.000
  -5825623.062 9  -4516666.40046  23014220.994    23014221.2664   23014226.6004
        -0.000          -0.000
 -10204388.832 9  -7931066.46746  23235806.214    23235806.0564   23235812.7724
        -0.000          -0.000
 -26162008.852 9 -20371166.33448  20897393.329    20897392.5464   20897398.8264
        -0.000          -0.000
 -12752316.663 9  -9920109.02746  22748834.533    22748834.5004   22748840.3374
        -0.000          -0.000
 -35555806.480 9 -27442722.75949  19571210.349    19571209.8734   19571215.3724
        -0.000          -0.000
 97  3  7  1 54 29.9970000  0  7 30 24  4  9 10  6  5               -0.002241196
 -28958344.182 9 -22546788.42748  20501008.978    20501009.2374   20501014.2394
        -0.000          -0.000
 -32897123.867 9 -25612870.57149  20368378.426    20368378.3054   20368384.3784
        -0.000          -0.000
  -5753218.260 9  -4460247.07946  23027999.180    23027999.4274   23028004.7594
        -0.000          -0.000
 -10138916.385 9  -7880048.99146  23248265.194    23248265.0314   23248271.7584
        -0.000          -0.000
 -26241394.062 9 -20433024.91148  20882286.822    20882286.0344   20882292.3214
        -0.000          -0.000
 -12841481.337 9  -9989587.94346  22731866.999    22731866.9364   22731872.7864
        -0.000          -0.000
 -35579686.575 9 -27461330.62449  19566666.111    19566665.6594   19566671.1624
        -0.000          -0.000
 97  3  7  1 54 59.9970000  0  7 30 24  4  9 10  6  5               -0.002255287
 -29042391.185 9 -22612279.59348  20485015.366    20485015.6194   20485020.6184
        -0.000          -0.000
 -32865388.661 9 -25588141.83549  20374417.429    20374417.2944   20374423.3684
        -0.000          -0.000
  -5680767.418 9  -4403791.87146  23041786.110    23041786.3934   23041791.6864
        -0.000          -0.000
 -10073418.682 9  -7829011.83746  23260728.983    23260728.8334   23260735.5994
        -0.000          -0.000
 -26320279.347 9 -20494493.94148  20867275.460    20867274.6664   20867280.9184
        -0.000          -0.000
 -12930625.928 9 -10059051.22746  22714903.275    22714903.2304   22714909.1064
        -0.000          -0.000
 -35603039.061 9 -27479527.37049  19562222.284    19562221.8164   19562227.3084
        -0.000          -0.000
 97  3  7  1 55 29.9970000  0  7 30 24  4  9 10  6  5               -0.002269383
 -29126036.278 9 -22677457.58248  20469098.249    20469098.4784   20469103.4874
        -0.000          -0.000
 -32833378.966 9 -25563199.20949  20380508.609    20380508.4984   20380514.5794
        -0.000          -0.000
  -5608288.368 9  -4347314.68646  23055578.418    23055578.6554   23055583.8744
        -0.000          -0.000
 -10007927.787 9  -7777979.98946  23273191.505    23273191.3454   23273198.1644
        -0.000          -0.000
 -26398706.019 9 -20555605.61148  20852351.311    20852350.5384   20852356.7854
        -0.000          -0.000
 -13019763.658 9 -10128509.15646  22697940.839    22697940.7824   22697946.7234
        -0.000          -0.000
 -35625891.332 9 -27497334.33349  19557873.668    19557873.1864   19557878.6664
        -0.000          -0.000
 97  3  7  1 55 59.9970000  0  7 30 24  4  9 10  6  5               -0.002283481
 -29209290.576 9 -22742331.05048  20453255.474    20453255.6964   20453260.6954
        -0.000          -0.000
 -32801105.517 9 -25538051.06149  20386650.035    20386649.9364   20386656.0184
        -0.000          -0.000
  -5535785.827 9  -4290819.18346  23069375.224    23069375.4644   23069380.6864
        -0.000          -0.000
  -9942450.440 9  -7726958.67846  23285651.482    23285651.3094   23285658.0544
        -0.000          -0.000
 -26476697.306 9 -20616378.01448  20837510.039    20837509.2634   20837515.5034
        -0.000          -0.000
 -13108889.356 9 -10197957.71646  22680980.757    22680980.6944   22680986.5934
        -0.000          -0.000
 -35648252.038 9 -27514758.25949  19553618.547    19553618.0724   19553623.5824
        -0.000          -0.000
 97  3  7  1 56 29.9970000  0  7 30 24  4  9 10  6  5               -0.002297595
 -29292157.529 9 -22806902.69648  20437486.399    20437486.6224   20437491.6334
        -0.000          -0.000
 -32768584.190 9 -25512709.76249  20392838.675    20392838.5624   20392844.6364
        -0.000          -0.000
  -5463270.351 9  -4234313.60746  23083174.487    23083174.6814   23083179.8744
        -0.000          -0.000
  -9877008.995 9  -7675965.34646  23298104.644    23298104.4684   23298111.2044
        -0.000          -0.000
 -26554291.184 9 -20676840.75048  20822744.400    20822743.6154   20822749.8704
        -0.000          -0.000
 -13198008.738 9 -10267401.35946  22664021.871    22664021.7944   22664027.7054
        -0.000          -0.000
 -35670116.476 9 -27531795.48449  19549457.868    19549457.4124   19549462.9214
        -0.000          -0.000
 97  3  7  1 56 59.9970000  0  7 30 24  4  9 10  6  5               -0.002311723
 -29374620.526 9 -22871159.56948  20421794.204    20421794.4464   20421799.4404
        -0.000          -0.000
 -32735812.064 9 -25487173.03649  20399074.976    20399074.8544   20399080.9304
        -0.000          -0.000
  -5390742.002 9  -4177797.99046  23096976.147    23096976.3464   23096981.5794
        -0.000          -0.000
  -9811592.055 9  -7624991.11646  23310553.019    23310552.9114   23310559.5684
        -0.000          -0.000
 -26631485.024 9 -20736991.77748  20808054.846    20808054.0944   20808060.3434
        -0.000          -0.000
 -13287118.474 9 -10336837.48546  22647064.749    22647064.7534   22647070.6444
        -0.000          -0.000
 -35691474.167 9 -27548437.84449  19545393.632    19545393.1664   19545398.6504
        -0.000          -0.000
 97  3  7  1 57 29.9970000  0  7 30 24  4  9 10  6  5               -0.002325851
 -29456659.919 9 -22935086.36148  20406182.606    20406182.8344   20406187.8294
        -0.000          -0.000
 -32702762.883 9 -25461420.42249  20405363.979    20405363.9004   20405369.9784
        -0.000          -0.000
  -5318207.398 9  -4121277.51846  23110779.036    23110779.2714   23110784.4414
        -0.000          -0.000
  -9746164.710 9  -7574008.78646  23323003.473    23323003.3514   23323010.0104
        -0.000          -0.000
 -26708233.216 9 -20796795.53848  20793450.126    20793449.3844   20793455.6524
        -0.000          -0.000
 -13376199.305 9 -10406251.08346  22630113.170    22630113.1594   22630119.1314
        -0.000          -0.000
 -35712319.510 9 -27564680.96949  19541426.881    19541426.4224   19541431.8994
        -0.000          -0.000
 97  3  7  1 57 59.9970000  0  7 30 24  4  9 10  6  5               -0.002339986
 -29538266.935 9 -22998676.23648  20390653.299    20390653.5444   20390658.5344
        -0.000          -0.000
 -32669441.935 9 -25435456.03849  20411704.776    20411704.6714   20411710.7554
        -0.000          -0.000
  -5245673.078 9  -4064757.25746  23124581.889    23124582.0454   23124587.2964
        -0.000          -0.000
  -9680729.830 9  -7523020.57546  23335455.253    23335455.2504   23335461.8234
        -0.000          -0.000
 -26784511.955 9 -20856233.49048  20778934.738    20778933.9734   20778940.2534
        -0.000          -0.000
 -13465262.250 9 -10475650.75346  22613165.067    22613165.0124   22613171.0624
        -0.000          -0.000
 -35732644.691 9 -27580518.77049  19537559.121    19537558.6604   19537564.1594
        -0.000          -0.000
 97  3  7  1 58 29.9970000  0  7 30 24  4  9 10  6  5               -0.002354126
 -29619421.066 9 -23061913.21448  20375210.172    20375210.3954   20375215.3994
        -0.000          -0.000
 -32635869.733 9 -25409295.87749  20418093.336    20418093.2284   20418099.3064
        -0.000          -0.000
  -5173130.395 9  -4008230.48346  23138386.235    23138386.5384   23138391.8114
        -0.000          -0.000
  -9615286.726 9  -7472025.95746  23347908.665    23347908.5994   23347915.1944
        -0.000          -0.000
 -26860296.503 9 -20915286.36048  20764513.392    20764512.6174   20764518.8884
        -0.000          -0.000
 -13554315.603 9 -10545042.95246  22596218.744    22596218.7134   22596224.6944
        -0.000          -0.000
 -35752439.639 9 -27595943.40649  19533792.277    19533791.7974   19533797.2924
        -0.000          -0.000
 97  3  7  1 58 59.9970000  0  7 30 24  4  9 10  6  5               -0.002368270
 -29700129.479 9 -23124802.87648  20359851.832    20359852.0684   20359857.0854
        -0.000          -0.000
 -32602067.532 9 -25382956.49049  20424525.655    20424525.5654   20424531.6424
        -0.000          -0.000
  -5100584.673 9  -3951701.36446  23152191.197    23152191.4314   23152196.8924
        -0.000          -0.000
  -9549834.751 9  -7421024.42046  23360363.692    23360363.6064   23360370.2614
        -0.000          -0.000
 -26935562.488 9 -20973935.15548  20750190.697    20750189.9524   20750196.2264
        -0.000          -0.000
 -13643370.409 9 -10614436.27046  22579272.111    22579272.1264   22579278.1644
        -0.000          -0.000
 -35771706.666 9 -27610956.67349  19530125.872    19530125.3964   19530130.8994
        -0.000          -0.000
 97  3  7  1 59 29.9970000  0  7 30 24  4  9 10  6  5               -0.002382422
 -29780414.647 9 -23187362.74048  20344574.067    20344574.3044   20344579.3144
        -0.000          -0.000
 -32568047.750 9 -25356447.56349  20430999.459    20430999.3544   20431005.4104
        -0.000          -0.000
  -5028033.077 9  -3895167.65446  23165997.349    23165997.5244   23166003.0634
        -0.000          -0.000
  -9484393.172 9  -7370030.98046  23372816.793    23372816.6764   23372823.3094
        -0.000          -0.000
 -27010327.012 9 -21032193.20348  20735963.438    20735962.6824   20735968.9754
        -0.000          -0.000
 -13732431.491 9 -10683834.47946  22562324.300    22562324.3084   22562330.3654
        -0.000          -0.000
 -35790442.292 9 -27625555.86549  19526560.595    19526560.1244   19526565.6314
        -0.000          -0.000
 97  3  7  1 59 59.9970000  0  7 30 24  4  9 10  6  5               -0.002396578
 -29860266.663 9 -23249585.08248  20329378.735    20329378.9744   20329383.9814
        -0.000          -0.000
 -32533811.056 9 -25329769.61449  20437514.490    20437514.3734   20437520.4324
        -0.000          -0.000
  -4955450.684 9  -3838609.94846  23179809.342    23179809.4524   23179815.0444
        -0.000          -0.000
  -9418964.922 9  -7319047.94446  23385267.342    23385267.2964   23385273.8704
        -0.000          -0.000
 -27084604.921 9 -21090072.07348  20721828.804    20721828.0674   20721834.3554
        -0.000          -0.000
 -13821491.966 9 -10753232.21846  22545376.662    22545376.6604   22545382.6414
        -0.000          -0.000
 -35808619.564 9 -27639719.97349  19523101.558    19523101.0984   19523106.6244
        -0.000          -0.000
 97  3  7  2  0 29.9970000  0  7 30 24  4  9 10  6  5               -0.002410743
 -29939703.529 9 -23311483.92948  20314262.387    20314262.6194   20314267.6284
        -0.000          -0.000
 -32499366.232 9 -25302929.48349  20444069.114    20444069.0154   20444075.0374
        -0.000          -0.000
  -4882859.976 9  -3782045.76646  23193622.859    23193622.9894   23193628.5124
        -0.000          -0.000
  -9353561.317 9  -7268084.10146  23397713.241    23397713.1704   23397719.7624
        -0.000          -0.000
 -27158422.161 9 -21147591.97848  20707781.838    20707781.0724   20707787.3514
        -0.000          -0.000
 -13910555.209 9 -10822632.11447  22528428.477    22528428.4544   22528434.4034
        -0.000          -0.000
 -35826258.759 9 -27653464.79749  19519744.933    19519744.4724   19519750.0024
        -0.000          -0.000
 97  3  7  2  0 59.9970000  0  7 30 24  4  9 10  6  5               -0.002424914
 -30018731.513 9 -23373064.17048  20299223.858    20299224.1004   20299229.1074
        -0.000          -0.000
 -32464684.310 9 -25275904.60948  20450668.860    20450668.7474   20450674.7734
        -0.000          -0.000
  -4810269.332 9  -3725481.63246  23207436.397    23207436.5264   23207442.0334
        -0.000          -0.000
  -9288176.299 8  -7217134.73745  23410155.550    23410155.4174   23410162.0344
        -0.000          -0.000
 -27231789.942 9 -21204761.65748  20693820.414    20693819.6374   20693825.9094
        -0.000          -0.000
 -13999609.072 9 -10892024.71047  22511482.131    22511482.0864   22511488.0444
        -0.000          -0.000
 -35843364.501 9 -27666793.94749  19516489.809    19516489.3464   19516494.8804
        -0.000          -0.000
 97  3  7  2  1 29.9970000  0  7 30 24  4  9 10  6  5               -0.002439097
 -30097359.593 9 -23434332.79548  20284261.436    20284261.6784   20284266.6834
        -0.000          -0.000
 -32429751.183 9 -25248683.98348  20457316.433    20457316.3054   20457322.3274
        -0.000          -0.000
  -4737691.474 9  -3668927.45846  23221247.543    23221247.6654   23221253.1974
        -0.000          -0.000
  -9222816.647 9  -7166205.15945  23422593.125    23422592.9864   23422599.6434
        -0.000          -0.000
 -27304724.875 9 -21261594.04948  20679941.341    20679940.5654   20679946.8484
        -0.000          -0.000
 -14088663.389 9 -10961417.65047  22494535.603    22494535.5474   22494541.5754
        -0.000          -0.000
 -35859954.686 9 -27679721.36349  19513332.787    19513332.3214   19513337.8674
        -0.000          -0.000
 97  3  7  2  1 59.9970000  0  7 30 24  4  9 10  6  5               -0.002453296
 -30175565.117 9 -23495272.15948  20269379.397    20269379.6404   20269384.6394
        -0.000          -0.000
 -32394555.571 9 -25221258.82448  20464013.937    20464013.8184   20464019.8554
        -0.000          -0.000
  -4665141.622 9  -3612395.11846  23235053.290    23235053.4474   23235058.9994
        -0.000          -0.000
  -9157477.463 9  -7115291.51646  23435026.734    23435026.5894   23435033.2354
        -0.000          -0.000
 -27377199.216 9 -21318067.54348  20666149.916    20666149.1534   20666155.4094
        -0.000          -0.000
 -14177720.294 9 -11030812.59947  22477588.642    22477588.5494   22477594.6094
        -0.000          -0.000
 -35876021.687 9 -27692241.10249  19510275.354    19510274.8984   19510280.4404
        -0.000          -0.000
 97  3  7  2  2 29.9970000  0  7 30 24  4  9 10  6  5               -0.002467535
 -30253382.106 9 -23555908.76448  20254571.330    20254571.5724   20254576.5844
        -0.000          -0.000
 -32359126.661 9 -25193651.87448  20470755.854    20470755.7114   20470761.7564
        -0.000          -0.000
  -4592659.423 9  -3555915.47846  23248846.173    23248846.4094   23248851.8594
        -0.000          -0.000
  -9092191.081 9  -7064419.01946  23447450.378    23447450.1784   23447456.9374
        -0.000          -0.000
 -27449229.005 9 -21374194.62648  20652443.085    20652442.3124   20652448.5614
        -0.000          -0.000
 -14266814.696 9 -11100236.78347  22460634.583    22460634.4674   22460640.5274
        -0.000          -0.000
 -35891594.586 9 -27704375.83049  19507311.963    19507311.5094   19507317.0414
        -0.000          -0.000
 97  3  7  2  2 59.9970000  0  7 30 24  4  9 10  6  5               -0.002481797
 -30330776.743 9 -23616216.26648  20239843.623    20239843.8784   20239848.8624
        -0.000          -0.000
 -32323441.200 9 -25165845.01648  20477546.549    20477546.4004   20477552.4104
        -0.000          -0.000
  -4520206.021 9  -3499458.26946  23262633.674    23262633.8634   23262639.2954
        -0.000          -0.000
  -9026940.729 9  -7013574.60746  23459867.162    23459866.9924   23459873.7274
        -0.000          -0.000
 -27520776.034 9 -21429945.53848  20638828.118    20638827.3474   20638833.6044
        -0.000          -0.000
 -14355925.003 9 -11169673.35347  22443677.466    22443677.3164   22443683.3554
        -0.000          -0.000
 -35906634.700 9 -27716095.40049  19504449.906    19504449.4514   19504454.9834
        -0.000          -0.000
 97  3  7  2  3 29.9970000  0  7 30 24  4  9 10  6  5               -0.002496080
 -30407719.867 9 -23676171.93948  20225201.834    20225202.0844   20225207.0574
        -0.000          -0.000
 -32287519.422 9 -25137854.01448  20484382.252    20484382.1174   20484388.1304
        -0.000          -0.000
  -4447771.403 9  -3443015.70346  23276417.556    23276417.7114   23276423.1484
        -0.000          -0.000
  -8961729.048 9  -6962760.31146  23472276.597    23472276.4514   23472283.1344
        -0.000          -0.000
 -27591819.720 9 -21485304.23648  20625308.919    20625308.1764   20625314.4104
        -0.000          -0.000
 -14445039.907 9 -11239113.49847  22426719.428    22426719.3254   22426725.3384
        -0.000          -0.000
 -35921125.520 9 -27727386.94649  19501692.353    19501691.9104   19501697.4534
        -0.000          -0.000
 97  3  7  2  3 59.9970000  0  7 30 24  4  9 10  6  5               -0.002510385
 -30484190.133 9 -23735759.15348  20210650.006    20210650.2684   20210655.2404
        -0.000          -0.000
 -32251395.499 9 -25109705.50048  20491256.365    20491256.2384   20491262.2514
        -0.000          -0.000
  -4375353.214 9  -3386585.93346  23290198.224    23290198.4114   23290203.8714
        -0.000          -0.000
  -8896573.094 9  -6911989.43946  23484675.399    23484675.3684   23484681.8534
        -0.000          -0.000
 -27662359.271 9 -21540270.09748  20611885.686    20611884.9394   20611891.1724
        -0.000          -0.000
 -14534153.280 9 -11308552.46347  22409761.706    22409761.5654   22409767.5674
        -0.000          -0.000
 -35935071.561 9 -27738253.99149  19499038.524    19499038.0774   19499043.6114
        -0.000          -0.000
 97  3  7  2  4 29.9970000  0  7 30 24  4  9 10  6  5               -0.002524695
 -30560184.159 9 -23794975.26948  20196188.829    20196189.0794   20196194.0464
        -0.000          -0.000
 -32215092.513 9 -25081417.45548  20498164.640    20498164.4864   20498170.4944
        -0.000          -0.000
  -4302932.661 9  -3330154.33746  23303979.369    23303979.5214   23303984.9794
        -0.000          -0.000
  -8831472.636 9  -6861261.81446  23497063.675    23497063.5914   23497070.1574
        -0.000          -0.000
 -27732404.347 9 -21594850.65748  20598556.561    20598555.7874   20598562.0024
        -0.000          -0.000
 -14623250.136 9 -11377978.55747  22392807.122    22392806.9934   22392812.9574
        -0.000          -0.000
 -35948486.414 9 -27748707.12249  19496485.764    19496485.3244   19496490.8594
        -0.000          -0.000
 97  3  7  2  4 59.9970000  0  7 30 24  4  9 10  6  5               -0.002539002
 -30635683.282 9 -23853805.74548  20181821.814    20181822.0754   20181827.0434
        -0.000          -0.000
 -32178603.060 9 -25052984.11148  20505108.303    20505108.1794   20505114.1794
        -0.000          -0.000
  -4230508.373 9  -3273719.82546  23317761.199    23317761.4104   23317766.8644
        -0.000          -0.000
  -8766411.586 9  -6810564.90546  23509444.496    23509444.3204   23509450.9484
        -0.000          -0.000
 -27801951.194 9 -21649042.98348  20585322.219    20585321.4594   20585327.6534
        -0.000          -0.000
 -14712320.448 9 -11447383.95847  22375857.550    22375857.4164   22375863.4224
        -0.000          -0.000
 -35961373.368 9 -27758748.90249  19494033.414    19494032.9824   19494038.5294
        -0.000          -0.000
 97  3  7  2  5 29.9970000  0  7 30 24  4  9 10  6  5               -0.002553315
 -30710699.400 9 -23912259.85848  20167546.723    20167546.9684   20167551.9384
        -0.000          -0.000
 -32141929.716 9 -25024407.47848  20512086.954    20512086.8384   20512092.8734
        -0.000          -0.000
  -4158102.635 9  -3217299.74646  23331539.521    23331539.6924   23331545.1654
        -0.000          -0.000
  -8701395.470 9  -6759903.00646  23521816.628    23521816.3864   23521823.1544
        -0.000          -0.000
 -27871000.635 9 -21702847.72348  20572182.541    20572181.7754   20572187.9454
        -0.000          -0.000
 -14801388.870 9 -11516787.88847  22358908.371    22358908.2404   22358914.2494
        -0.000          -0.000
 -35973755.259 9 -27768397.12849  19491677.240    19491676.7834   19491682.3364
        -0.000          -0.000
 97  3  7  2  5 59.9970000  0  7 30 24  4  9 10  6  5               -0.002567632
 -30785241.146 9 -23970344.32748  20153361.878    20153362.1384   20153367.1134
        -0.000          -0.000
 -32105035.953 9 -24995659.08548  20519107.627    20519107.4984   20519113.5454
        -0.000          -0.000
  -4085710.899 9  -3160890.60745  23345315.178    23345315.3154   23345320.8064
        -0.000          -0.000
  -8636417.840 9  -6709271.09346  23534181.496    23534181.2754   23534187.9784
        -0.000          -0.000
 -27939547.170 9 -21756260.58948  20559138.527    20559137.7754   20559143.9314
        -0.000          -0.000
 -14890468.368 9 -11586200.44347  22341957.105    22341956.9454   22341962.9704
        -0.000          -0.000
 -35985629.918 9 -27777650.10649  19489417.557    19489417.1074   19489422.6514
        -0.000          -0.000
 97  3  7  2  6 29.9970000  0  7 30 24  4  9 10  6  5               -0.002581948
 -30859323.387 9 -24028070.74248  20139264.475    20139264.7374   20139269.7204
        -0.000          -0.000
 -32067882.863 9 -24966708.62048  20526177.593    20526177.4834   20526183.5264
        -0.000          -0.000
  -4013325.600 8  -3104486.46445  23359089.572    23359089.7784   23359095.2134
        -0.000          -0.000
  -8571468.305 9  -6658661.07746  23546541.043    23546540.8594   23546547.5724
        -0.000          -0.000
 -28007580.082 9 -21809273.22348  20546192.322    20546191.5384   20546197.7204
        -0.000          -0.000
 -14979560.029 9 -11655622.48247  22325003.494    22325003.3524   22325009.3374
        -0.000          -0.000
 -35996982.972 9 -27786496.64449  19487257.138    19487256.6934   19487262.2424
        -0.000          -0.000
 97  3  7  2  6 59.9970000  0  7 30 24  4  9 10  6  5               -0.002596262
 -30932923.392 9 -24085421.39049  20125258.867    20125259.1234   20125264.1184
        -0.000          -0.000
 -32030433.304 9 -24937527.13948  20533303.990    20533303.8804   20533309.9444
        -0.000          -0.000
  -3940933.735 8  -3048077.21345  23372865.264    23372865.4314   23372870.7954
        -0.000          -0.000
  -8506541.636 9  -6608068.88746  23558896.166    23558895.9764   23558902.7654
        -0.000          -0.000
 -28075071.036 9 -21861863.56048  20533349.178    20533348.4094   20533354.6054
        -0.000          -0.000
 -15068663.759 9 -11725053.92947  22308047.558    22308047.4504   22308053.4254
        -0.000          -0.000
 -36007789.693 9 -27794917.46749  19485200.700    19485200.2674   19485205.8024
        -0.000          -0.000
 97  3  7  2  7 29.9970000  0  7 30 24  4  9 10  6  5               -0.002610588
 -31006049.760 9 -24142402.96649  20111343.368    20111343.6364   20111348.6294
        -0.000          -0.000
 -31992714.021 9 -24908135.48348  20540481.685    20540481.5914   20540487.6664
        -0.000          -0.000
  -3868539.900 8  -2991666.44145  23386641.199    23386641.4054   23386646.8574
        -0.000          -0.000
  -8441675.398 9  -6557523.77046  23571239.829    23571239.5704   23571246.3974
        -0.000          -0.000
 -28142024.925 9 -21914035.39948  20520608.229    20520607.4594   20520613.6454
        -0.000          -0.000
 -15157796.482 9 -11794507.96447  22291086.118    22291086.0324   22291091.9374
        -0.000          -0.000
 -36018068.740 9 -27802927.11649  19483244.659    19483244.2014   19483249.7444
        -0.000          -0.000
 97  3  7  2  7 59.9970000  0  7 30 24  4  9 10  6  5               -0.002624921
 -31078705.245 9 -24199017.62449  20097517.480    20097517.7384   20097522.7454
        -0.000          -0.000
 -31954748.099 9 -24878551.64648  20547706.378    20547706.2594   20547712.3514
        -0.000          -0.000
  -3796142.837 8  -2935253.12745  23400417.841    23400418.0284   23400423.4474
        -0.000          -0.000
  -8376880.702 9  -6507034.41346  23583569.866    23583569.6044   23583576.4534
        -0.000          -0.000
 -28208462.016 9 -21965804.54348  20507965.675    20507964.9114   20507971.0724
        -0.000          -0.000
 -15246935.746 9 -11863967.09647  22274123.424    22274123.3254   22274129.2754
        -0.000          -0.000
 -36027813.466 9 -27810520.40949  19481390.296    19481389.8444   19481395.3894
        -0.000          -0.000
 97  3  7  2  8 29.9970000  0  7 30 24  4  9 10  6  5               -0.002639260
 -31150893.190 9 -24255267.96749  20083780.583    20083780.8484   20083785.8484
        -0.000          -0.000
 -31916574.249 9 -24848805.78448  20554970.579    20554970.5004   20554976.5704
        -0.000          -0.000
  -3723747.555 8  -2878841.22545  23414194.196    23414194.5104   23414199.8464
        -0.000          -0.000
  -8312165.474 9  -6456606.97846  23595884.761    23595884.5594   23595891.4174
        -0.000          -0.000
 -28274391.155 9 -22017177.88048  20495419.764    20495418.9974   20495425.1694
        -0.000          -0.000
 -15336066.681 9 -11933419.74147  22257162.355    22257162.2674   22257168.1964
        -0.000          -0.000
 -36037027.929 9 -27817700.51049  19479636.838    19479636.3984   19479641.9554
        -0.000          -0.000
 97  3  7  2  8 59.9970000  0  7 30 24  4  9 10  6  5               -0.002653604
 -31222606.587 9 -24311148.52849  20070133.956    20070134.2154   20070139.2024
        -0.000          -0.000
 -31878214.659 9 -24818915.19348  20562270.153    20562270.0774   20562276.1544
        -0.000          -0.000
  -3651361.435 8  -2822436.46245  23427968.874    23427969.1444   23427974.4594
        -0.000          -0.000
  -8247528.283 9  -6406240.35546  23608184.825    23608184.5544   23608191.3944
        -0.000          -0.000
 -28339797.483 9 -22068143.83048  20482973.304    20482972.5334   20482978.7004
        -0.000          -0.000
 -15425178.334 9 -12002857.36147  22240204.975    22240204.8874   22240210.8104
        -0.000          -0.000
 -36045707.447 9 -27824463.77449  19477985.147    19477984.6924   19477990.2714
        -0.000          -0.000
 97  3  7  2  9 29.9970000  0  7 30 24  4  9 10  6  5               -0.002667956
 -31293876.172 9 -24366683.26749  20056571.796    20056572.0744   20056577.0654
        -0.000          -0.000
 -31839691.793 9 -24788897.37348  20569600.784    20569600.7124   20569606.7714
        -0.000          -0.000
  -3579012.749 9  -2766060.86345  23441736.391    23441736.7334   23441741.9484
        -0.000          -0.000
  -8182971.024 9  -6355935.98646  23620469.630    23620469.3784   23620476.1994
        -0.000          -0.000
 -28404698.156 9 -22118715.76648  20470623.092    20470622.3434   20470628.5004
        -0.000          -0.000
 -15514259.765 9 -12072271.44447  22223253.256    22223253.1924   22223259.1404
        -0.000          -0.000
 -36053859.039 9 -27830815.66749  19476433.961    19476433.5064   19476439.0614
        -0.000          -0.000
 97  3  7  2  9 59.9970000  0  7 30 24  4  9 10  6  5               -0.002682313
 -31364711.118 9 -24421879.32549  20043092.347    20043092.6164   20043097.6204
        -0.000          -0.000
 -31800990.392 9 -24758740.43448  20576965.440    20576965.3834   20576971.4414
        -0.000          -0.000
  -3506706.624 9  -2709718.42445  23455495.853    23455496.1184   23455501.4684
        -0.000          -0.000
  -8118477.916 9  -6305681.63946  23632742.238    23632742.0134   23632748.7354
        -0.000          -0.000
 -28469092.017 9 -22168892.78248  20458369.321    20458368.5864   20458374.7134
        -0.000          -0.000
 -15603296.331 9 -12141650.55947  22206310.140    22206310.0514   22206316.0014
        -0.000          -0.000
 -36061455.465 9 -27836734.96249  19474988.389    19474987.9464   19474993.4954
        -0.000          -0.000
 97  3  7  2 10 29.9970000  0  7 30 24  4  9 10  6  5               -0.002696675
 -31435094.499 9 -24476723.51049  20029698.826    20029699.1184   20029704.1214
        -0.000          -0.000
 -31762099.909 9 -24728436.16048  20584366.041    20584365.9704   20584372.0564
        -0.000          -0.000
  -3434444.412 9  -2653410.19746  23469246.988    23469247.2784   23469252.6164
        -0.000          -0.000
  -8054044.734 8  -6255473.96545  23645003.367    23645003.2444   23645009.8054
        -0.000          -0.000
 -28532951.709 9 -22218653.56348  20446217.198    20446216.4494   20446222.5964
        -0.000          -0.000
 -15692292.466 9 -12210998.15847  22189374.737    22189374.6364   22189380.5324
        -0.000          -0.000
 -36068493.963 9 -27842219.51049  19473648.997    19473648.5544   19473654.1204
        -0.000          -0.000
 97  3  7  2 10 59.9970000  0  7 30 24  4  9 10  6  5               -0.002711051
 -31505022.079 9 -24531212.53049  20016392.059    20016392.3304   20016397.3334
        -0.000          -0.000
 -31723008.536 9 -24697975.34248  20591804.840    20591804.7604   20591810.8414
        -0.000          -0.000
  -3362231.228 9  -2597140.18546  23482988.729    23482989.0854   23482994.3734
        -0.000          -0.000
  -7989679.849 8  -6205319.53745  23657251.496    23657251.3564   23657258.0204
        -0.000          -0.000
 -28596274.388 9 -22267995.89248  20434167.264    20434166.5214   20434172.6794
        -0.000          -0.000
 -15781258.896 9 -12280322.62447  22172444.925    22172444.8164   22172450.7234
        -0.000          -0.000
 -36074970.172 9 -27847265.90749  19472416.615    19472416.1774   19472421.7484
        -0.000          -0.000
 97  3  7  2 11 29.9970000  0  7 30 24  4  9 10  6  5               -0.002725436
 -31574476.137 9 -24585332.56849  20003175.398    20003175.6804   20003180.6684
        -0.000          -0.000
 -31683705.198 9 -24667349.36448  20599284.065    20599283.9624   20599290.0114
        -0.000          -0.000
  -3290063.483 9  -2540905.58946  23496721.836    23496722.0984   23496727.4754
        -0.000          -0.000
  -7925379.667 8  -6155215.51945  23669487.295    23669487.2754   23669493.8374
        -0.000          -0.000
 -28659071.728 9 -22316928.87048  20422217.310    20422216.5844   20422222.7274
        -0.000          -0.000
 -15870192.409 9 -12349621.43447  22155521.451    22155521.3524   22155527.2234
        -0.000          -0.000
 -36080879.568 9 -27851870.63749  19471292.099    19471291.6554   19471297.2394
        -0.000          -0.000
 97  3  7  2 11 59.9970000  0  7 30 24  4  9 10  6  5               -0.002739832
 -31643437.146 9 -24639068.41249  19990052.522    19990052.7944   19990057.7934
        -0.000          -0.000
 -31644191.121 9 -24636559.16848  20606803.347    20606803.2374   20606809.3114
        -0.000          -0.000
  -3217929.536 9  -2484697.31246  23510448.527    23510448.7254   23510454.1234
        -0.000          -0.000
  -7861158.701 8  -6105173.22845  23681708.054    23681708.0244   23681714.5984
        -0.000          -0.000
 -28721340.138 9 -22365449.69048  20410368.049    20410367.2974   20410373.4494
        -0.000          -0.000
 -15959115.228 9 -12418911.91647  22138600.016    22138599.8974   22138605.7414
        -0.000          -0.000
 -36086243.562 9 -27856050.37849  19470271.369    19470270.9324   19470276.5054
        -0.000          -0.000
 97  3  7  2 12 29.9970000  0  7 30 24  4  9 10  6  5               -0.002754239
 -31711899.321 9 -24692415.55849  19977024.616    19977024.9134   19977029.9024
        -0.000          -0.000
 -31604478.416 9 -24605614.19748  20614360.428    20614360.2754   20614366.3814
        -0.000          -0.000
  -3145827.977 9  -2428514.28546  23524169.023    23524169.1664   23524174.6114
        -0.000          -0.000
  -7797031.229 8  -6055203.77245  23693911.068    23693911.0974   23693917.5934
        -0.000          -0.000
 -28783086.045 9 -22413563.37048  20398618.149    20398617.4214   20398623.5744
        -0.000          -0.000
 -16048038.002 9 -12488202.36547  22121678.525    22121678.4114   22121684.2334
        -0.000          -0.000
 -36091092.361 9 -27859828.67149  19469348.650    19469348.2214   19469353.8014
        -0.000          -0.000
 97  3  7  2 12 59.9970000  0  7 30 24  4  9 10  6  5               -0.002768645
 -31779860.043 9 -24745371.95749  19964092.106    19964092.3764   19964097.3894
        -0.000          -0.000
 -31564557.881 9 -24574507.28448  20621957.076    20621956.9164   20621962.9964
        -0.000          -0.000
  -3073741.149 9  -2372342.73646  23537886.670    23537886.8704   23537892.2614
        -0.000          -0.000
  -7732985.584 9  -6005298.05645  23706098.659    23706098.7004   23706105.2494
        -0.000          -0.000
 -28844316.146 9 -22461275.11948  20386966.469    20386965.7374   20386971.8774
        -0.000          -0.000
 -16136964.292 9 -12557495.54947  22104756.342    22104756.2064   22104762.0644
        -0.000          -0.000
 -36095424.770 9 -27863204.58049  19468524.237    19468523.8014   19468529.3784
        -0.000          -0.000
 97  3  7  2 13 29.9970000  0  7 30 24  4  9 10  6  5               -0.002783046
 -31847314.602 9 -24797933.94049  19951255.912    19951256.1734   19951261.1834
        -0.000          -0.000
 -31524432.550 9 -24543240.78648  20629592.636    20629592.5204   20629598.5874
        -0.000          -0.000
  -3001666.612 9  -2316180.75746  23551601.929    23551602.1454   23551607.6324
        -0.000          -0.000
  -7669015.537 9  -5955451.27245  23718271.775    23718271.7034   23718278.2894
        -0.000          -0.000
 -28905020.128 9 -22508576.90548  20375414.870    20375414.1244   20375420.2664
        -0.000          -0.000
 -16225896.474 9 -12626793.32947  22087833.059    22087833.0214   22087838.8234
        -0.000          -0.000
 -36099248.943 9 -27866184.45949  19467796.531    19467796.1054   19467801.6824
        -0.000          -0.000
 97  3  7  2 13 59.9970000  0  7 30 24  4  9 10  6  5               -0.002797425
 -31914248.062 9 -24850089.87649  19938518.877    19938519.1504   19938524.1704
        -0.000          -0.000
 -31484082.356 9 -24511799.07048  20637270.984    20637270.8954   20637276.9654
        -0.000          -0.000
  -2929578.660 9  -2260008.32346  23565319.790    23565320.0284   23565325.5044
        -0.000          -0.000
  -7605100.438 9  -5905647.29845  23730434.466    23730434.3924   23730441.0244
        -0.000          -0.000
 -28965162.016 9 -22555440.69948  20363970.243    20363969.5074   20363975.6244
        -0.000          -0.000
 -16314817.022 9 -12696082.04147  22070912.067    22070912.0064   22070917.7954
        -0.000          -0.000
 -36102544.836 9 -27868752.69049  19467169.332    19467168.8994   19467174.4874
        -0.000          -0.000
 97  3  7  2 14 29.9970000  0  7 30 24  4  9 10  6  5               -0.002811790
 -31980679.953 9 -24901854.98349  19925877.283    19925877.5724   19925882.5774
        -0.000          -0.000
 -31443532.499 9 -24480201.77548  20644987.322    20644987.2434   20644993.3164
        -0.000          -0.000
  -2857495.374 9  -2203839.53046  23579036.735    23579037.0824   23579042.5504
        -0.000          -0.000
  -7541245.097 9  -5855889.89145  23742585.780    23742585.5804   23742592.3224
        -0.000          -0.000
 -29024748.703 9 -22601871.86548  20352631.267    20352630.5074   20352636.6264
        -0.000          -0.000
 -16403723.718 9 -12765359.97047  22053993.635    22053993.5684   22053999.4054
        -0.000          -0.000
 -36105294.556 9 -27870895.33549  19466646.085    19466645.6424   19466651.2574
        -0.000          -0.000
 97  3  7  2 14 59.9970000  0  7 30 24  4  9 10  6  5               -0.002826158
 -32046631.016 9 -24953245.41449  19913327.213    19913327.4804   19913332.5024
        -0.000          -0.000
 -31402809.997 9 -24448469.95148  20652736.561    20652736.4884   20652742.5634
        -0.000          -0.000
  -2785448.412 9  -2147699.04046  23592746.838    23592747.2014   23592752.6244
        -0.000          -0.000
  -7477465.389 9  -5806191.41845  23754722.702    23754722.5284   23754729.3404
        -0.000          -0.000
 -29083783.600 9 -22647873.06548  20341397.256    20341396.4944   20341402.5994
        -0.000          -0.000
 -16492628.096 9 -12834636.08747  22037075.744    22037075.6404   22037081.4794
        -0.000          -0.000
 -36107500.154 9 -27872613.98849  19466226.354    19466225.9324   19466231.5414
        -0.000          -0.000
 97  3  7  2 15 29.9970000  0  7 30 24  4  9 10  6  5               -0.002840520
 -32112077.024 9 -25004242.29749  19900873.246    19900873.5224   19900878.5174
        -0.000          -0.000
 -31361902.922 9 -24416594.30448  20660520.969    20660520.8694   20660526.9144
        -0.000          -0.000
  -2713436.982 9  -2091586.24146  23606450.191    23606450.4854   23606455.8604
        -0.000          -0.000
  -7413750.482 9  -5756543.44346  23766847.304    23766847.1644   23766853.8624
        -0.000          -0.000
 -29142241.647 9 -22693424.77548  20330273.019    20330272.2654   20330278.3954
        -0.000          -0.000
 -16581488.634 9 -12903878.03847  22020166.129    22020165.9964   22020171.8494
        -0.000          -0.000
 -36109137.990 9 -27873890.22549  19465914.702    19465914.2584   19465919.8754
        -0.000          -0.000
 97  3  7  2 15 59.9970000  0  7 30 24  4  9 10  6  5               -0.002854889
 -32177023.370 9 -25054849.83549  19888514.386    19888514.6484   19888519.6504
        -0.000          -0.000
 -31320831.542 9 -24384590.62448  20668336.577    20668336.4584   20668342.5004
        -0.000          -0.000
  -2641478.592 8  -2035514.76945  23620143.396    23620143.6954   23620149.0704
        -0.000          -0.000
  -7350128.879 9  -5706968.16846  23778954.162    23778953.8934   23778960.6214
        -0.000          -0.000
 -29200153.786 9 -22738551.09948  20319252.700    20319251.9554   20319258.0704
        -0.000          -0.000
 -16670308.078 9 -12973087.97047  22003264.270    22003264.1774   22003270.0484
        -0.000          -0.000
 -36110223.721 9 -27874736.25149  19465708.061    19465707.6214   19465713.2334
        -0.000          -0.000
 97  3  7  2 16 29.9970000  0  7 30 24  4  9 10  6  5               -0.002869271
 -32241459.516 9 -25105059.81649  19876252.573    19876252.8464   19876257.8594
        -0.000          -0.000
 -31279597.720 9 -24352460.36848  20676183.115    20676182.9864   20676189.0514
        -0.000          -0.000
  -2569578.889 8  -1979489.02945  23633825.433    23633825.8034   23633831.1374
        -0.000          -0.000
  -7286617.712 9  -5657478.96146  23791039.937    23791039.7364   23791046.4514
        -0.000          -0.000
 -29257532.775 9 -22783261.98348  20308333.802    20308333.0834   20308339.1734
        -0.000          -0.000
 -16759087.189 9 -13042266.48447  21986370.142    21986370.0734   21986375.8974
        -0.000          -0.000
 -36110765.456 9 -27875158.38749  19465604.962    19465604.5424   19465610.1664
        -0.000          -0.000
 97  3  7  2 16 59.9970000  0  7 30 24  4  9 10  6  5               -0.002883665
 -32305366.119 9 -25154857.16349  19864091.487    19864091.7754   19864096.7784
        -0.000          -0.000
 -31238174.098 9 -24320182.22048  20684065.776    20684065.6194   20684071.6894
        -0.000          -0.000
  -2497739.243 8  -1923510.11245  23647496.009    23647496.2384   23647501.7174
        -0.000          -0.000
  -7223217.041 9  -5608075.84946  23803104.697    23803104.5144   23803111.3174
        -0.000          -0.000
 -29314379.598 9 -22827558.19348  20297516.200    20297515.4734   20297521.5914
        -0.000          -0.000
 -16847826.624 9 -13111414.05947  21969483.576    21969483.4934   21969489.3614
        -0.000          -0.000
 -36110767.594 9 -27875160.06149  19465604.572    19465604.1534   19465609.7844
        -0.000          -0.000
 97  3  7  2 17 29.9970000  0  7 30 24  4  9 10  6  5               -0.002898078
 -32368751.690 9 -25204248.51249  19852029.629    19852029.9164   19852034.9144
        -0.000          -0.000
 -31196555.051 9 -24287751.78648  20691985.603    20691985.4864   20691991.5314
        -0.000          -0.000
  -2425967.484 8  -1867584.06945  23661153.653    23661154.0244   23661159.4784
        -0.000          -0.000
  -7159942.031 9  -5558770.65146  23815145.468    23815145.2784   23815152.1734
        -0.000          -0.000
 -29370710.749 9 -22871452.58048  20286796.782    20286796.0334   20286802.1384
        -0.000          -0.000
 -16936539.763 9 -13180541.15547  21952602.034    21952601.9404   21952607.7844
        -0.000          -0.000
 -36110242.618 9 -27874750.99249  19465704.478    19465704.0634   19465709.6864
        -0.000          -0.000
 97  3  7  2 17 59.9970000  0  7 30 24  4  9 10  6  5               -0.002912502
 -32431604.624 9 -25253224.82449  19840069.117    19840069.3864   19840074.3814
        -0.000          -0.000
 -31154722.163 9 -24255154.72748  20699946.102    20699946.0164   20699952.0484
        -0.000          -0.000
  -2354249.712 8  -1811700.09345  23674801.055    23674801.2564   23674806.8804
        -0.000          -0.000
  -7096779.775 9  -5509553.32946  23827164.830    23827164.6874   23827171.4764
        -0.000          -0.000
 -29426495.808 9 -22914921.44248  20276181.225    20276180.4624   20276186.5664
        -0.000          -0.000
 -17025219.231 9 -13249642.01647  21935726.867    21935726.7824   21935732.6404
        -0.000          -0.000
 -36109167.191 9 -27873913.00849  19465909.133    19465908.7124   19465914.3474
        -0.000          -0.000
 97  3  7  2 18 29.9970000  0  7 30 24  4  9 10  6  5               -0.002926957
 -32493965.269 9 -25301817.52749  19828202.285    19828202.5614   19828207.5754
        -0.000          -0.000
 -31112707.549 9 -24222416.05848  20707941.190    20707941.1314   20707947.1674
        -0.000          -0.000
  -2282620.991 8  -1755885.51345  23688431.435    23688431.7704   23688437.3384
        -0.000          -0.000
  -7033752.436 9  -5460441.12246  23839158.571    23839158.3844   23839165.2674
        -0.000          -0.000
 -29481735.578 9 -22957965.40048  20265669.452    20265668.6904   20265674.7744
        -0.000          -0.000
 -17113895.462 9 -13318740.35447  21918852.311    21918852.2354   21918858.0794
        -0.000          -0.000
 -36107554.028 9 -27872656.00149  19466216.125    19466215.6994   19466221.3394
        -0.000          -0.000
 97  3  7  2 18 59.9970000  0  7 30 24  4  9 10  6  5               -0.002941439
 -32555843.883 9 -25350034.62649  19816427.201    19816427.4734   19816432.4704
        -0.000          -0.000
 -31070520.181 9 -24189542.78448  20715969.199    20715969.1234   20715975.1574
        -0.000          -0.000
  -2211083.299 8  -1700141.86345  23702044.536    23702044.9564   23702050.3594
        -0.000          -0.000
  -6970852.336 8  -5411428.08646  23851127.998    23851127.8284   23851134.8914
        -0.000          -0.000
 -29536411.722 9 -23000570.17548  20255264.888    20255264.1424   20255270.2234
        -0.000          -0.000
 -17202559.141 9 -13387828.91547  21901980.148    21901980.0954   21901985.8974
        -0.000          -0.000
 -36105398.534 9 -27870976.39849  19466626.302    19466625.8754   19466631.4924
        -0.000          -0.000
 97  3  7  2 19 29.9970000  0  7 30 24  4  9 10  6  5               -0.002955927
 -32617213.639 9 -25397855.20949  19804748.908    19804749.1574   19804754.1584
        -0.000          -0.000
 -31028159.541 9 -24156534.49048  20724030.153    20724030.0634   20724036.1134
        -0.000          -0.000
  -2139604.051 8  -1644443.76545  23715646.616    23715646.8804   23715652.3054
        -0.000          -0.000
  -6908060.519 9  -5362499.42246  23863076.889    23863076.7464   23863083.6894
        -0.000          -0.000
 -29590495.597 9 -23042713.43848  20244973.076    20244972.3374   20244978.3984
        -0.000          -0.000
 -17291190.185 9 -13456892.04247  21885114.209    21885114.1314   21885119.9684
        -0.000          -0.000
 -36102691.200 9 -27868866.79149  19467141.489    19467141.0494   19467146.6824
        -0.000          -0.000
 97  3  7  2 19 59.9970000  0  7 30 24  4  9 10  6  5               -0.002970423
 -32678066.678 9 -25445273.15849  19793168.958    19793169.2344   19793174.2184
        -0.000          -0.000
 -30985655.088 9 -24123414.12848  20732118.516    20732118.4134   20732124.4604
        -0.000          -0.000
  -2068173.168 8  -1588783.30945  23729239.438    23729239.5594   23729245.1684
        -0.000          -0.000
  -6845387.228 8  -5313663.10345  23875003.268    23875003.0594   23875010.0904
        -0.000          -0.000
 -29644002.143 9 -23084406.83248  20234791.092    20234790.3464   20234796.4244
        -0.000          -0.000
 -17379804.418 9 -13525942.07547  21868251.478    21868251.4154   21868257.2764
        -0.000          -0.000
 -36099447.291 9 -27866339.07349  19467758.778    19467758.3514   19467763.9914
        -0.000          -0.000
 97  3  7  2 20 29.9970000  0  7 30 24  4  9 10  6  5               -0.002984913
 -32738395.076 9 -25492282.29549  19781688.844    19781689.1124   19781694.1154
        -0.000          -0.000
 -30943010.733 9 -24090184.75948  20740233.456    20740233.3254   20740239.3834
        -0.000          -0.000
  -1996769.436 8  -1533144.01545  23742827.150    23742827.3224   23742832.9224
        -0.000          -0.000
  -6782829.446 8  -5264916.82145  23886907.528    23886907.2994   23886914.5594
        -0.000          -0.000
 -29696950.550 9 -23125665.31748  20224715.330    20224714.5814   20224720.6544
        -0.000          -0.000
 -17468402.157 9 -13594979.24147  21851391.872    21851391.8164   21851397.6294
        -0.000          -0.000
 -36095683.989 9 -27863406.63649  19468474.940    19468474.4864   19468480.1304
        -0.000          -0.000
 97  3  7  2 20 59.9970000  0  7 30 24  4  9 10  6  5               -0.002999382
 -32798170.541 9 -25538860.58049  19770313.914    19770314.1864   19770319.1954
        -0.000          -0.000
 -30900205.648 9 -24056830.14448  20748378.948    20748378.8364   20748384.8984
        -0.000          -0.000
  -1925368.737 9  -1477507.08745  23756414.316    23756414.5664   23756420.0724
        -0.000          -0.000
  -6720369.934 8  -5216247.11345  23898793.029    23898792.9304   23898800.2204
        -0.000          -0.000
 -29749345.486 9 -23166492.52748  20214744.881    20214744.1244   20214750.1864
        -0.000          -0.000
 -17556975.916 9 -13663997.73047  21834536.833    21834536.7654   21834542.6184
        -0.000          -0.000
 -36091401.694 9 -27860069.79049  19469289.790    19469289.3714   19469295.0044
        -0.000          -0.000
 97  3  7  2 21 29.9970000  0  7 30 24  4  9 10  6  5               -0.003013829
 -32857391.861 9 -25585007.06149  19759044.467    19759044.7584   19759049.7574
        -0.000          -0.000
 -30857230.618 9 -24023343.10448  20756556.836    20756556.7354   20756562.8094
        -0.000          -0.000
  -1853972.038 9  -1421873.29645  23770000.630    23770000.9614   23770006.2834
        -0.000          -0.000
  -6658010.532 8  -5167655.44245  23910659.572    23910659.6654   23910666.8704
        -0.000          -0.000
 -29801198.578 9 -23206897.51748  20204877.600    20204876.8454   20204882.8854
        -0.000          -0.000
 -17645532.209 9 -13733002.61647  21817685.090    21817685.0114   21817690.8214
        -0.000          -0.000
 -36086598.434 9 -27856326.99449  19470203.839    19470203.4094   19470209.0394
        -0.000          -0.000
 97  3  7  2 21 59.9960000  0  7 30 24  4  9 10  6  5               -0.003028256
 -32916078.376 9 -25630736.80949  19747876.822    19747877.1094   19747882.1084
        -0.000          -0.000
 -30814089.891 9 -23989726.95248  20764766.215    20764766.1424   20764772.1874
        -0.000          -0.000
  -1782592.235 9  -1366252.66845  23783583.848    23783584.1674   23783589.4624
        -0.000          -0.000
  -6595756.058 8  -5119145.47345  23922506.344    23922506.3434   23922513.4154
        -0.000          -0.000
 -29852512.611 9 -23246882.46448  20195112.866    20195112.0954   20195118.1404
        -0.000          -0.000
 -17734057.042 9 -13801982.97647  21800839.356    21800839.2534   21800845.1104
        -0.000          -0.000
 -36081267.703 9 -27852173.18349  19471218.223    19471217.7964   19471223.4434
        -0.000          -0.000
 97  3  7  2 22 29.9960000  0  7 30 24  4  9 10  6  5               -0.003042679
 -32974256.984 9 -25676070.78649  19736805.775    19736806.0444   19736811.0664
        -0.000          -0.000
 -30770779.196 9 -23955978.35248  20773007.964    20773007.8964   20773013.9454
        -0.000          -0.000
  -1711260.012 9  -1310669.12745  23797158.002    23797158.2904   23797163.6934
        -0.000          -0.000
  -6533617.282 8  -5070725.67345  23934331.017    23934330.9184   23934338.0944
        -0.000          -0.000
 -29903287.687 9 -23286447.44448  20185450.680    20185449.9244   20185455.9474
        -0.000          -0.000
 -17822558.420 9 -13870945.06747  21783998.074    21783997.9624   21784003.8154
        -0.000          -0.000
 -36075413.592 9 -27847611.53849  19472332.216    19472331.7954   19472337.4474
        -0.000          -0.000
 97  3  7  2 22 59.9960000  0  6 30 24  4 10  6  5                  -0.003057043
 -33031931.980 9 -25721012.34149  19725830.590    19725830.8714   19725835.8704
        -0.000          -0.000
 -30727304.141 9 -23922101.68648  20781281.050    20781280.9394   20781286.9934
        -0.000          -0.000
  -1639999.812 9  -1255141.69846  23810718.395    23810718.7334   23810724.1684
        -0.000          -0.000
 -29953513.635 9 -23325584.53448  20175892.959    20175892.2214   20175898.2684
        -0.000          -0.000
 -17911040.734 9 -13939892.30447  21767160.450    21767160.3594   21767166.1554
        -0.000          -0.000
 -36069027.568 9 -27842635.42049  19473547.445    19473547.0144   19473552.6634
        -0.000          -0.000
 97  3  7  2 23 29.9960000  0  6 30 24  4 10  6  5                  -0.003071475
 -33089084.563 9 -25765546.82149  19714954.816    19714955.0714   19714960.0704
        -0.000          -0.000
 -30683653.520 9 -23888088.21648  20789587.496    20789587.3584   20789593.4214
        -0.000          -0.000
  -1568800.295 9  -1199661.56646  23824267.308    23824267.6034   23824273.0114
        -0.000          -0.000
 -30003157.054 9 -23364267.70348  20166446.115    20166445.3714   20166451.4064
        -0.000          -0.000
 -17999471.245 9 -14008799.17947  21750332.619    21750332.5584   21750338.3424
        -0.000          -0.000
 -36062085.023 9 -27837225.64949  19474868.599    19474868.1594   19474873.7874
        -0.000          -0.000
 97  3  7  2 23 59.9960000  0  6 30 24  4 10  6  5                  -0.003085925
 -33145754.584 9 -25809705.27649  19704170.863    19704171.1264   19704176.1264
        -0.000          -0.000
 -30639892.900 9 -23853989.02648  20797914.817    20797914.6934   20797920.7724
        -0.000          -0.000
  -1497718.715 8  -1144273.30645  23837793.695    23837794.0784   23837799.2634
        -0.000          -0.000
 -30052256.001 9 -23402526.60948  20157102.843    20157102.0994   20157108.1424
        -0.000          -0.000
 -18087901.655 9 -14077705.96947  21733504.838    21733504.7784   21733510.5774
        -0.000          -0.000
 -36054639.961 9 -27831424.30449  19476285.362    19476284.9384   19476290.5714
        -0.000          -0.000
 97  3  7  2 24 29.9960000  0  6 30 24  4 10  6  5                  -0.003100403
 -33201896.867 9 -25853452.50649  19693487.329    19693487.6124   19693492.6144
        -0.000          -0.000
 -30595988.262 9 -23819777.62048  20806269.573    20806269.4894   20806275.5564
        -0.000          -0.000
  -1426734.624 8  -1088961.02945  23851301.540    23851301.9374   23851307.1844
        -0.000          -0.000
 -30100778.872 9 -23440336.62448  20147869.257    20147868.5014   20147874.5744
        -0.000          -0.000
 -18176322.334 9 -14146605.17147  21716678.934    21716678.8664   21716684.6284
        -0.000          -0.000
 -36046662.906 9 -27825208.42449  19477803.359    19477802.9284   19477808.5634
        -0.000          -0.000
 97  3  7  2 24 59.9960000  0  6 30 24  4 10  6  5                  -0.003114910
 -33257498.109 9 -25896778.14849  19682906.785    19682907.0374   19682912.0394
        -0.000          -0.000
 -30551948.000 9 -23785460.52748  20814650.190    20814650.1174   20814656.1674
        -0.000          -0.000
  -1355845.771 8  -1033722.96645  23864791.209    23864791.5694   23864796.8594
        -0.000          -0.000
 -30148724.790 9 -23477697.06748  20138745.432    20138744.6774   20138750.7074
        -0.000          -0.000
 -18264737.481 9 -14215500.07847  21699854.103    21699854.0144   21699859.7704
        -0.000          -0.000
 -36038156.595 9 -27818580.13349  19479422.053    19479421.6274   19479427.2584
        -0.000          -0.000
 97  3  7  2 25 29.9960000  0  5 30 24 10  6  5                     -0.003129336
 -33312544.988 9 -25939671.81949  19672431.724    19672431.9894   19672436.9874
        -0.000          -0.000
 -30507764.243 9 -23751031.62648  20823058.101    20823057.9974   20823064.0734
        -0.000          -0.000
 -30196078.216 9 -23514595.82848  20129734.326    20129733.5854   20129739.6324
        -0.000          -0.000
 -18353137.557 9 -14284383.22447  21683032.115    21683032.0494   21683037.7704
        -0.000          -0.000
 -36029100.388 9 -27811523.35549  19481145.407    19481144.9744   19481150.6174
        -0.000          -0.000
 97  3  7  2 25 59.9960000  0  5 30 24 10  6  5                     -0.003143870
 -33367029.535 9 -25982127.30849  19662063.648    19662063.9064   19662068.9024
        -0.000          -0.000
 -30463432.809 9 -23716487.65148  20831494.089    20831493.9774   20831500.0534
        -0.000          -0.000
 -30242849.245 9 -23551040.77348  20120834.087    20120833.3374   20120839.3834
        -0.000          -0.000
 -18441530.843 9 -14353261.09547  21666211.403    21666211.3144   21666217.0554
        -0.000          -0.000
 -36019487.358 9 -27804032.68849  19482974.714    19482974.2884   19482979.9164
        -0.000          -0.000
 97  3  7  2 26 29.9960000  0  5 30 24 10  6  5                     -0.003158492
 -33420956.530 9 -26024148.33949  19651801.680    19651801.9714   19651806.9614
        -0.000          -0.000
 -30418944.784 9 -23681821.65248  20839959.897    20839959.7564   20839965.8414
        -0.000          -0.000
 -30289050.644 9 -23587041.85248  20112042.242    20112041.5034   20112047.5444
        -0.000          -0.000
 -18529919.365 9 -14422135.24747  21649391.621    21649391.5084   21649397.2534
        -0.000          -0.000
 -36009316.876 9 -27796107.64149  19484910.102    19484909.6784   19484915.2974
        -0.000          -0.000
 97  3  7  2 26 59.9960000  0  5 30 24 10  6  5                     -0.003173152
 -33474332.422 9 -26065739.94049  19641644.581    19641644.8524   19641649.8584
        -0.000          -0.000
 -30374311.019 9 -23647042.09748  20848453.387    20848453.2564   20848459.3194
        -0.000          -0.000
 -30334680.973 9 -23622597.94048  20103359.063    20103358.3254   20103364.3354
        -0.000          -0.000
 -18618284.911 9 -14490991.50047  21632576.241    21632576.1194   21632581.8454
        -0.000          -0.000
 -35998589.936 9 -27787748.98649  19486951.358    19486950.9354   19486956.5454
        -0.000          -0.000
 97  3  7  2 27 29.9960000  0  6 30 17 24 10  6  5                  -0.003187900
 -33527160.069 9 -26106904.33549  19631591.815    19631592.0924   19631597.0764
        -0.000          -0.000
  -2343645.00818  -1804598.69455  24002463.234    24002462.6115   24002470.8155
        -0.000          -0.000
 -30329526.413 9 -23612145.00248  20856975.598    20856975.4864   20856981.5544
        -0.000          -0.000
 -30379740.688 9 -23657709.39548  20094784.490    20094783.7514   20094789.7604
        -0.000          -0.000
 -18706616.148 9 -14559821.01847  21615767.315    21615767.2164   21615772.9204
        -0.000          -0.000
 -35987313.585 9 -27778962.22249  19489097.202    19489096.7694   19489102.3754
        -0.000          -0.000
 97  3  7  2 27 59.9960000  0  6 30 17 24 10  6  5                  -0.003202442
 -33579452.714 9 -26147651.84749  19621640.849    19621641.1304   19621646.1214
        -0.000          -0.000
  -2457546.561 8  -1893353.08045  23980788.465    23980787.8764   23980796.1004
        -0.000          -0.000
 -30284602.435 9 -23577139.29748  20865524.356    20865524.2384   20865530.2914
        -0.000          -0.000
 -30424249.664 9 -23692391.70048  20086314.700    20086313.9744   20086319.9854
        -0.000          -0.000
 -18794921.756 9 -14628630.56047  21598963.261    21598963.1994   21598968.9224
        -0.000          -0.000
 -35975533.074 9 -27769782.60849  19491338.970    19491338.5374   19491344.1314
        -0.000          -0.000
 97  3  7  2 28 29.9960000  0  6 30 17 24 10  6  5                  -0.003216964
 -33631200.645 9 -26187974.90849  19611793.546    19611793.8184   19611798.8144
        -0.000          -0.000
  -2571312.462 8  -1982001.76345  23959139.443    23959138.9534   23959147.1424
        -0.000          -0.000
 -30239516.251 9 -23542007.20548  20874103.990    20874103.8594   20874109.9074
        -0.000          -0.000
 -30468165.186 9 -23726611.57448  20077957.856    20077957.1394   20077963.1404
        -0.000          -0.000
 -18883168.168 9 -14697393.97747  21582170.582    21582170.4954   21582176.2004
        -0.000          -0.000
 -35963239.233 9 -27760202.99749  19493678.426    19493677.9884   19493683.6004
        -0.000          -0.000
 97  3  7  2 28 59.9960000  0  6 30 17 24 10  6  5                  -0.003231492
 -33682438.913 9 -26227900.83049  19602043.193    19602043.4784   19602048.4554
        -0.000          -0.000
  -2684994.382 8  -2070585.00845  23937506.511    23937506.0494   23937514.0844
        -0.000          -0.000
 -30194302.183 9 -23506775.46348  20882707.918    20882707.8124   20882713.8644
        -0.000          -0.000
 -30511512.504 9 -23760388.69248  20069709.141    20069708.4004   20069714.4234
        -0.000          -0.000
 -18971384.358 9 -14766133.84647  21565383.570    21565383.4854   21565389.1784
        -0.000          -0.000
 -35950473.792 9 -27750255.90849  19496107.599    19496107.1664   19496112.7754
        -0.000          -0.000
 97  3  7  2 29 29.9960000  0  6 30 17 24 10  6  5                  -0.003246001
 -33733140.352 9 -26267408.44349  19592395.038    19592395.3174   19592400.2914
        -0.000          -0.000
  -2798562.468 9  -2159079.54645  23915895.312    23915894.8304   23915902.6594
        -0.000          -0.000
 -30148921.867 9 -23471414.17048  20891343.471    20891343.3844   20891349.4304
        -0.000          -0.000
 -30554268.306 9 -23793704.89348  20061572.963    20061572.2434   20061578.2454
        -0.000          -0.000
 -19059546.310 9 -14834831.45047  21548606.885    21548606.8004   21548612.5314
        -0.000          -0.000
 -35937219.112 9 -27739927.59149  19498629.879    19498629.4604   19498635.0694
        -0.000          -0.000
 97  3  7  2 29 59.9960000  0  6 30 17 24 10  6  5                  -0.003260496
 -33783306.876 9 -26306499.24049  19582848.658    19582848.9364   19582853.9264
        -0.000          -0.000
  -2912013.996 9  -2247483.27445  23894306.269    23894305.7764   23894313.5474
        -0.000          -0.000
 -30103380.606 9 -23435927.47848  20900009.721    20900009.6254   20900015.6364
        -0.000          -0.000
 -30596433.260 9 -23826560.68748  20053549.210    20053548.5074   20053554.4984
        -0.000          -0.000
 -19147652.903 9 -14903485.92347  21531840.726    21531840.6274   21531846.3364
        -0.000          -0.000
 -35923462.909 9 -27729208.47749  19501247.619    19501247.1784   19501252.7874
        -0.000          -0.000
 97  3  7  2 30 29.9960000  0  6 30 17 24 10  6  5                  -0.003274995
 -33832947.598 9 -26345180.31949  19573402.347    19573402.6254   19573407.5924
        -0.000          -0.000
  -3025356.464 9  -2335802.03745  23872737.963    23872737.4784   23872745.0144
        -0.000          -0.000
 -30057703.553 9 -23400334.96248  20908701.819    20908701.6874   20908707.7194
        -0.000          -0.000
 -30638023.071 9 -23858968.31948  20045634.924    20045634.2064   20045640.1964
        -0.000          -0.000
 -19235718.106 9 -14972108.13647  21515082.458    21515082.3694   21515088.0904
        -0.000          -0.000
 -35909205.742 9 -27718098.99949  19503960.679    19503960.2494   19503965.8534
        -0.000          -0.000
 97  3  7  2 30 59.9960000  0  6 30 17 24 10  6  5                  -0.003289493
 -33882008.698 9 -26383409.75249  19564066.361    19564066.6394   19564071.6044
        -0.000          -0.000
  -3138547.814 9  -2424003.04945  23851198.316    23851197.7094   23851205.3164
        -0.000          -0.000
 -30011868.760 9 -23364619.54048  20917423.837    20917423.7194   20917429.7504
        -0.000          -0.000
 -30679021.977 9 -23890915.51048  20037833.103    20037832.3574   20037838.3524
        -0.000          -0.000
 -19323716.474 9 -15040678.27947  21498336.907    21498336.8414   21498342.5154
        -0.000          -0.000
 -35894407.812 9 -27706568.15549  19506776.615    19506776.1704   19506781.7734
        -0.000          -0.000
 97  3  7  2 31 29.9960000  0  6 30 17 24 10  6  5                  -0.003304000
 -33930498.499 9 -26421194.01249  19554839.045    19554839.3364   19554844.2914
        -0.000          -0.000
  -3251581.997 9  -2512081.60645  23829688.597    23829687.9504   23829695.5304
        -0.000          -0.000
 -29965911.986 9 -23328809.06848  20926169.092    20926169.0054   20926175.0364
        -0.000          -0.000
 -30719443.091 9 -23922412.47148  20030141.199    20030140.4724   20030146.4354
        -0.000          -0.000
 -19411663.633 9 -15109208.51347  21481601.128    21481601.0274   21481606.6994
        -0.000          -0.000
 -35879076.094 9 -27694621.36449  19509694.138    19509693.7104   19509699.3034
        -0.000          -0.000
 97  3  7  2 31 59.9960000  0  6 30 17 24 10  6  5                  -0.003318551
 -33978421.912 9 -26458536.93349  19545719.521    19545719.7904   19545724.7444
        -0.000          -0.000
  -3364486.621 9  -2600059.18645  23808203.448    23808203.0334   23808210.4604
        -0.000          -0.000
 -29919872.644 9 -23292934.25048  20934930.081    20934930.0094   20934936.0224
        -0.000          -0.000
 -30759292.775 9 -23953464.16348  20022558.044    20022557.3024   20022563.2674
        -0.000          -0.000
 -19499586.710 9 -15177719.98547  21464869.910    21464869.8104   21464875.4654
        -0.000          -0.000
 -35863219.879 9 -27682265.88149  19512711.495    19512711.0514   19512716.6584
        -0.000          -0.000
 97  3  7  2 32 29.9960000  0  6 30 17 24 10  6  5                  -0.003333139
 -34025752.707 9 -26495418.07349  19536712.770    19536713.0354   19536717.9944
        -0.000          -0.000
  -3477241.887 9  -2687920.39445  23786746.831    23786746.4394   23786753.8044
        -0.000          -0.000
 -29873740.054 9 -23256986.77548  20943708.826    20943708.7324   20943714.7464
        -0.000          -0.000
 -30798564.148 9 -23984065.22548  20015084.935    20015084.1964   20015090.1584
        -0.000          -0.000
 -19587487.468 9 -15246214.06047  21448142.895    21448142.8304   21448148.4784
        -0.000          -0.000
 -35846827.130 9 -27669492.31749  19515830.920    19515830.4824   19515836.1104
        -0.000          -0.000
 97  3  7  2 32 59.9960000  0  6 30 17 24 10  6  5                  -0.003347756
 -34072486.959 9 -26531834.37849  19527819.529    19527819.8124   19527824.7774
        -0.000          -0.000
  -3589835.831 9  -2775655.88445  23765320.895    23765320.3814   23765327.8134
        -0.000          -0.000
 -29827503.341 9 -23220958.16548  20952507.386    20952507.2914   20952513.2854
        -0.000          -0.000
 -30837240.688 9 -24014202.77448  20007725.038    20007724.3114   20007730.2954
        -0.000          -0.000
 -19675351.891 9 -15314679.82947  21431422.843    21431422.7854   21431428.3954
        -0.000          -0.000
 -35829878.535 9 -27656285.62849  19519056.087    19519055.6494   19519061.3064
        -0.000          -0.000
 97  3  7  2 33 29.9960000  0  6 30 17 24 10  6  5                  -0.003362397
 -34118634.311 9 -26567793.35549  19519037.972    19519038.2614   19519043.2264
        -0.000          -0.000
  -3702271.497 8  -2863268.05945  23743925.172    23743924.5834   23743931.9604
        -0.000          -0.000
 -29781166.247 9 -23184851.34048  20961325.013    20961324.9474   20961330.9324
        -0.000          -0.000
 -30875314.141 9 -24043870.39048  20000479.884    20000479.1664   20000485.1484
        -0.000          -0.000
 -19763176.443 9 -15383114.52547  21414710.403    21414710.3354   21414715.9304
        -0.000          -0.000
 -35812377.675 9 -27642648.60249  19522386.411    19522385.9734   19522391.6284
        -0.000          -0.000
 97  3  7  2 33 59.9960000  0  6 30 17 24 10  6  5                  -0.003377058
 -34164201.050 9 -26603299.90549  19510366.913    19510367.1944   19510372.1484
        -0.000          -0.000
  -3814559.136 8  -2950764.87145  23722557.585    23722556.7854   23722564.3274
        -0.000          -0.000
 -29734709.340 9 -23148651.14448  20970165.464    20970165.3974   20970171.4174
        -0.000          -0.000
 -30912799.304 9 -24073079.59548  19993346.713    19993345.9854   19993351.9814
        -0.000          -0.000
 -19850964.977 9 -15451521.16047  21398004.779    21398004.7204   21398010.3234
        -0.000          -0.000
 -35794329.524 9 -27628585.11749  19525820.839    19525820.4164   19525826.0564
        -0.000          -0.000
 97  3  7  2 34 29.9960000  0  6 30 17 24 10  6  5                  -0.003391707
 -34209201.575 9 -26638365.25449  19501803.603    19501803.8824   19501808.8364
        -0.000          -0.000
  -3926679.013 8  -3038130.98045  23701221.741    23701221.0854   23701228.4774
        -0.000          -0.000
 -29688108.076 9 -23112338.47448  20979033.390    20979033.3184   20979039.3354
        -0.000          -0.000
 -30949691.674 9 -24101826.89148  19986326.318    19986325.5854   19986331.5744
        -0.000          -0.000
 -19938696.848 9 -15519883.64047  21381309.918    21381309.8274   21381315.4664
        -0.000          -0.000
 -35775730.870 9 -27614092.67249  19529360.040    19529359.6064   19529365.2514
        -0.000          -0.000
 97  3  7  2 34 59.9960000  0  6 30 17 24 10  6  5                  -0.003406335
 -34253662.845 9 -26673010.39749  19493342.910    19493343.1894   19493348.1434
        -0.000          -0.000
  -4038638.561 8  -3125372.14345  23679916.373    23679915.7654   23679923.1764
        -0.000          -0.000
 -29641373.363 9 -23075921.81548  20987926.754    20987926.6714   20987932.6644
        -0.000          -0.000
 -30985982.665 9 -24130105.57148  19979420.388    19979419.6554   19979425.6424
        -0.000          -0.000
 -20026364.387 9 -15588195.98647  21364627.289    21364627.2464   21364632.8834
        -0.000          -0.000
 -35756602.491 9 -27599187.44549  19533000.073    19532999.6264   19533005.2884
        -0.000          -0.000
 97  3  7  2 35 29.9960000  0  6 30 17 24 10  6  5                  -0.003420936
 -34297587.140 9 -26707237.12549  19484984.397    19484984.6864   19484989.6244
        -0.000          -0.000
  -4150443.530 8  -3212492.86745  23658640.367    23658640.0254   23658647.1384
        -0.000          -0.000
 -29594498.867 9 -23039396.23548  20996846.694    20996846.6064   20996852.6304
        -0.000          -0.000
 -31021686.124 9 -24157926.44048  19972626.214    19972625.4794   19972631.4534
        -0.000          -0.000
 -20113987.173 9 -15656473.47347  21347953.178    21347953.1494   21347958.8204
        -0.000          -0.000
 -35736964.534 9 -27583885.15349  19536737.052    19536736.6094   19536742.2774
        -0.000          -0.000
 97  3  7  2 35 59.9960000  0  6 30 17 24 10  6  5                  -0.003435507
 -34340970.976 9 -26741042.71049  19476728.748    19476729.0114   19476733.9654
        -0.000          -0.000
  -4262086.894 8  -3299487.66345  23637395.307    23637394.8924   23637402.2714
        -0.000          -0.000
 -29547477.262 9 -23002756.01848  21005794.633    21005794.5414   21005800.5614
        -0.000          -0.000
 -31056808.756 9 -24185294.71448  19965942.586    19965941.8464   19965947.8194
        -0.000          -0.000
 -20201563.589 9 -15724714.81847  21331287.966    21331287.8974   21331293.5934
        -0.000          -0.000
 -35716814.163 9 -27568183.56949  19540571.529    19540571.0844   19540576.7724
        -0.000          -0.000
 97  3  7  2 36 29.9960000  0  6 30 17 24 10  6  5                  -0.003450068
 -34383820.803 9 -26774432.18749  19468574.683    19468574.9664   19468579.9044
        -0.000          -0.000
  -4373586.123 8  -3386370.13945  23616177.738    23616177.1814   23616184.4874
        -0.000          -0.000
 -29500348.153 9 -22966032.04148  21014762.991    21014762.9024   21014768.9204
        -0.000          -0.000
 -31091354.653 9 -24212213.58648  19959368.693    19959367.9674   19959373.9414
        -0.000          -0.000
 -20289111.356 9 -15792933.83947  21314628.168    21314628.1004   21314633.7644
        -0.000          -0.000
 -35696179.299 9 -27552104.46449  19544498.195    19544497.7564   19544503.4344
        -0.000          -0.000
 97  3  7  2 36 59.9960000  0  6 30 17 24 10  6  5                  -0.003464616
 -34426078.730 9 -26807360.44249  19460533.238    19460533.5334   19460538.4664
        -0.000          -0.000
  -4484912.213 8  -3473117.69745  23594993.233    23594992.6364   23594999.9354
        -0.000          -0.000
 -29453091.733 9 -22929208.85648  21023755.559    21023755.4874   21023761.5414
        -0.000          -0.000
 -31125298.115 9 -24238663.02848  19952909.473    19952908.7394   19952914.7244
        -0.000          -0.000
 -20376609.337 9 -15861114.06447  21297977.858    21297977.7774   21297983.4754
        -0.000          -0.000
 -35675038.845 9 -27535631.39649  19548521.093    19548520.6614   19548526.3454
        -0.000          -0.000
 97  3  7  2 37 29.9960000  0  6 30 17 24 10  6  5                  -0.003479170
 -34467736.274 9 -26839820.86749  19452606.123    19452606.4114   19452611.3374
        -0.000          -0.000
  -4596071.319 8  -3559735.14145  23573840.329    23573839.6714   23573847.0054
        -0.000          -0.000
 -29405723.990 9 -22892298.92948  21032769.309    21032769.2674   21032775.3214
        -0.000          -0.000
 -31158654.386 9 -24264654.91848  19946561.960    19946561.2334   19946567.2014
        -0.000          -0.000
 -20464071.102 9 -15929266.07347  21281334.415    21281334.3694   21281340.0374
        -0.000          -0.000
 -35653389.446 9 -27518761.74849  19552640.792    19552640.3794   19552646.0624
        -0.000          -0.000
 97  3  7  2 37 59.9960000  0  6 30 17 24 10  6  5                  -0.003493744
 -34508808.736 9 -26871825.38749  19444790.260    19444790.5524   19444795.4844
        -0.000          -0.000
  -4707072.616 8  -3646229.58945  23552717.383    23552716.8734   23552724.3004
        -0.000          -0.000
 -29358280.995 9 -22855330.35948  21041797.449    21041797.3574   21041803.3964
        -0.000          -0.000
 -31191421.047 9 -24290187.37548  19940326.675    19940325.9404   19940331.9024
        -0.000          -0.000
 -20551497.565 9 -15997390.58347  21264697.712    21264697.6564   21264703.3024
        -0.000          -0.000
 -35631242.132 9 -27501504.11549  19556855.307    19556854.8914   19556860.5824
        -0.000          -0.000
 97  3  7  2 38 29.9960000  0  6 30 17 24 10  6  5                  -0.003508338
 -34549296.344 9 -26903374.17249  19437085.757    19437086.0454   19437090.9664
        -0.000          -0.000
  -4817920.855 8  -3732604.79445  23531623.620    23531623.0374   23531630.5974
        -0.000          -0.000
 -29310766.553 9 -22818306.11548  21050839.158    21050839.0474   21050845.0904
        -0.000          -0.000
 -31223589.023 9 -24315253.31748  19934205.323    19934204.5774   19934210.5664
        -0.000          -0.000
 -20638890.244 9 -16065488.75747  21248067.433    21248067.3794   21248073.0304
        -0.000          -0.000
 -35608605.885 9 -27483865.48849  19561162.865    19561162.4594   19561168.1464
        -0.000          -0.000
 97  3  7  2 38 59.9960000  0  6 30 17 24 10  6  5                  -0.003522954
 -34589215.656 9 -26934480.13149  19429489.346    19429489.6444   19429494.5504
        -0.000          -0.000
  -4928627.212 8  -3818869.43345  23510556.873    23510556.3904   23510563.9174
        -0.000          -0.000
 -29263179.705 9 -22781225.45748  21059894.580    21059894.4794   21059900.5524
        -0.000          -0.000
 -31255172.538 9 -24339863.83948  19928195.172    19928194.4284   19928200.4074
        -0.000          -0.000
 -20726250.231 9 -16133561.45847  21231443.396    21231443.3084   21231448.9364
        -0.000          -0.000
 -35585474.105 9 -27465840.72649  19565564.720    19565564.2924   19565569.9884
        -0.000          -0.000
 97  3  7  2 39 29.9960000  0  6 30 17 24 10  6  5                  -0.003537582
 -34628566.337 9 -26965143.00549  19422001.189    19422001.4884   19422006.4084
        -0.000          -0.000
  -5039181.631 9  -3905015.68245  23489519.053    23489518.5354   23489526.0324
        -0.000          -0.000
 -29215512.052 9 -22744081.83048  21068965.424    21068965.3494   21068971.4314
        -0.000          -0.000
 -31286147.644 9 -24364000.27848  19922300.765    19922300.0094   19922306.0034
        -0.000          -0.000
 -20813559.917 9 -16201594.96347  21214828.871    21214828.7804   21214834.4334
        -0.000          -0.000
 -35561832.992 9 -27447419.08349  19570063.495    19570063.0674   19570068.7784
        -0.000          -0.000
 97  3  7  2 39 59.9960000  0  6 30 17 24 10  6  5                  -0.003552210
 -34667354.068 9 -26995367.21049  19414620.134    19414620.4084   19414625.3144
        -0.000          -0.000
  -5149589.829 9  -3991047.99345  23468509.057    23468508.5604   23468515.9314
        -0.000          -0.000
 -29167744.821 9 -22706860.61548  21078055.237    21078055.1464   21078061.2174
        -0.000          -0.000
 -31316510.878 9 -24387659.93148  19916522.848    19916522.0994   19916528.0984
        -0.000          -0.000
 -20900810.924 9 -16269582.74647  21198225.548    21198225.4844   21198231.1214
        -0.000          -0.000
 -35537690.139 9 -27428606.47349  19574657.735    19574657.3074   19574663.0074
        -0.000          -0.000
 97  3  7  2 40 29.9960000  0  6 30 17 24 10  6  5                  -0.003566839
 -34705562.267 9 -27025139.83449  19407349.372    19407349.6414   19407354.5384
        -0.000          -0.000
  -5259849.854 9  -4076964.85345  23447527.259    23447526.6754   23447534.0964
        -0.000          -0.000
 -29119855.782 9 -22669544.47848  21087168.177    21087168.1274   21087174.2124
        -0.000          -0.000
 -31346269.806 9 -24410848.69248  19910859.898    19910859.1394   19910865.1484
        -0.000          -0.000
 -20987996.705 9 -16337519.70247  21181634.670    21181634.5804   21181640.1864
        -0.000          -0.000
 -35513031.186 9 -27409391.70649  19579350.152    19579349.7184   19579355.4454
        -0.000          -0.000
 97  3  7  2 40 59.9960000  0  6 30 17 24 10  6  5                  -0.003581471
 -34743197.590 9 -27054466.06549  19400187.603    19400187.8994   19400192.7804
        -0.000          -0.000
  -5369961.971 9  -4162766.47446  23426573.641    23426573.1514   23426580.3814
        -0.000          -0.000
 -29071851.045 9 -22632138.19148  21096303.197    21096303.1534   21096309.2024
        -0.000          -0.000
 -31375426.954 9 -24433568.54548  19905311.450    19905310.7004   19905316.7124
        -0.000          -0.000
 -21075118.780 9 -16405407.01447  21165055.854    21165055.7574   21165061.3904
        -0.000          -0.000
 -35487852.653 9 -27389772.08049  19584141.498    19584141.0714   19584146.8084
        -0.000          -0.000
 97  3  7  2 41 29.9960000  0  6 30 17 24 10  6  5                  -0.003596108
 -34780272.285 9 -27083355.43549  19393132.524    19393132.8044   19393137.6784
        -0.000          -0.000
  -5479938.228 9  -4248462.22046  23405645.807    23405645.2794   23405652.6564
        -0.000          -0.000
 -29023738.087 9 -22594647.57048  21105458.842    21105458.7254   21105464.7894
        -0.000          -0.000
 -31403992.708 9 -24455827.56348  19899875.561    19899874.8334   19899880.8234
        -0.000          -0.000
 -21162194.117 9 -16473257.90848  21148485.954    21148485.8784   21148491.5004
        -0.000          -0.000
 -35462167.379 9 -27369757.59249  19589029.221    19589028.7884   19589034.5424
        -0.000          -0.000
 97  3  7  2 41 59.9960000  0  6 30 17 24 10  6  5                  -0.003610749
 -34816773.791 9 -27111798.16649  19386186.518    19386186.7924   19386191.6914
        -0.000          -0.000
  -5589764.743 9  -4334041.27646  23384746.507    23384746.0174   23384753.3854
        -0.000          -0.000
 -28975502.213 9 -22557061.17548  21114637.789    21114637.7004   21114643.7354
        -0.000          -0.000
 -31431982.525 9 -24477637.80148  19894549.243    19894548.5214   19894554.5014
        -0.000          -0.000
 -21249212.321 9 -16541064.28748  21131926.951    21131926.8424   21131932.4764
        -0.000          -0.000
 -35435953.310 9 -27349331.06049  19594017.576    19594017.1444   19594022.9044
        -0.000          -0.000
 97  3  7  2 42 29.9960000  0  6 30 17 24 10  6  5                  -0.003625398
 -34852689.800 9 -27139784.66849  19379351.933    19379352.2144   19379357.1104
        -0.000          -0.000
  -5699431.541 9  -4419495.89046  23363877.570    23363877.0654   23363884.4444
        -0.000          -0.000
 -28927158.944 9 -22519391.10248  21123837.179    21123837.1024   21123843.1724
        -0.000          -0.000
 -31459396.946 9 -24498999.67948  19889332.479    19889331.7524   19889337.7414
        -0.000          -0.000
 -21336176.540 9 -16608828.59348  21115378.165    21115378.0984   21115383.7034
        -0.000          -0.000
 -35409206.747 9 -27328489.59649  19599107.301    19599106.8814   19599112.6284
        -0.000          -0.000
 97  3  7  2 42 59.9960000  0  6 30 17 24 10  6  5                  -0.003640044
 -34888006.892 9 -27167304.48249  19372631.332    19372631.5964   19372636.4904
        -0.000          -0.000
  -5808918.581 9  -4504810.42746  23343042.904    23343042.3684   23343049.7194
        -0.000          -0.000
 -28878704.356 9 -22481634.27748  21133057.835    21133057.7484   21133063.7874
        -0.000          -0.000
 -31486208.111 9 -24519891.48848  19884230.476    19884229.7444   19884235.7274
        -0.000          -0.000
 -21423069.554 9 -16676537.42448  21098843.000    21098842.9254   21098848.5114
        -0.000          -0.000
 -35381922.757 9 -27307229.36349  19604299.310    19604298.8864   19604304.6224
        -0.000          -0.000
 97  3  7  2 43 29.9960000  0  6 30 17 24 10  6  5                  -0.003654703
 -34922728.015 9 -27194359.90649  19366024.126    19366024.4004   19366029.2844
        -0.000          -0.000
  -5918242.378 9  -4589997.76546  23322239.233    23322238.7104   23322246.0704
        -0.000          -0.000
 -28830161.537 9 -22443808.70348  21142295.196    21142295.1244   21142301.1734
        -0.000          -0.000
 -31512447.097 9 -24540337.44648  19879237.337    19879236.6214   19879242.6114
        -0.000          -0.000
 -21509906.896 9 -16744202.87348  21082318.391    21082318.3054   21082323.8594
        -0.000          -0.000
 -35354135.332 9 -27285576.83949  19609587.078    19609586.6754   19609592.4034
        -0.000          -0.000
 97  3  7  2 43 59.9960000  0  6 30 17 24 10  6  5                  -0.003669395
 -34956870.498 9 -27220964.43849  19359527.015    19359527.2884   19359532.1844
        -0.000          -0.000
  -6027418.981 9  -4675070.40546  23301463.547    23301462.9834   23301470.3214
        -0.000          -0.000
 -28781573.107 9 -22405947.58747  21151541.239    21151541.1734   21151547.2134
        -0.000          -0.000
 -31538130.115 9 -24560350.17448  19874350.009    19874349.2944   19874355.2614
        -0.000          -0.000
 -21596712.812 9 -16811843.83448  21065799.777    21065799.7004   21065805.2364
        -0.000          -0.000
 -35325885.153 9 -27263563.72349  19614962.934    19614962.5244   19614968.2504
        -0.000          -0.000
 97  3  7  2 44 29.9960000  0  6 30 17 24 10  6  5                  -0.003684096
 -34990408.784 9 -27247098.16849  19353144.903    19353145.1664   19353150.0764
        -0.000          -0.000
  -6136418.642 9  -4760005.17446  23280721.558    23280720.9134   23280728.2344
        -0.000          -0.000
 -28732922.701 9 -22368038.18047  21160799.145    21160799.0544   21160805.0584
        -0.000          -0.000
 -31563207.230 9 -24579890.76948  19869577.989    19869577.2684   19869583.2354
        -0.000          -0.000
 -21683463.875 9 -16879442.05148  21049291.609    21049291.5294   21049297.1024
        -0.000          -0.000
 -35297158.381 9 -27241179.23749  19620429.491    19620429.0604   19620434.7894
        -0.000          -0.000
 97  3  7  2 44 59.9960000  0  6 30 17 24 10  6  5                  -0.003698795
 -35023348.630 9 -27272765.58749  19346876.618    19346876.9164   19346881.8154
        -0.000          -0.000
  -6245236.822 9  -4844798.53145  23260014.113    23260013.5074   23260020.8034
        -0.000          -0.000
 -28684199.499 9 -22330072.04747  21170070.922    21170070.8154   21170076.7744
        -0.000          -0.000
 -31587674.891 9 -24598956.47148  19864921.939    19864921.2114   19864927.1814
        -0.000          -0.000
 -21770151.911 9 -16946991.15348  21032795.347    21032795.2594   21032800.8464
        -0.000          -0.000
 -35267955.689 9 -27218423.90349  19625986.594    19625986.1824   19625991.8974
        -0.000          -0.000
 97  3  7  2 45 29.9960000  0  6 30 17 24 10  6  5                  -0.003713478
 -35055688.798 9 -27297965.72349  19340722.507    19340722.7864   19340727.7154
        -0.000          -0.000
  -6353858.701 8  -4929438.91645  23239344.036    23239343.4774   23239350.6794
        -0.000          -0.000
 -28635389.574 9 -22292038.34347  21179359.140    21179359.0554   21179364.9784
        -0.000          -0.000
 -31611531.863 9 -24617546.31448  19860382.107    19860381.3844   19860387.3424
        -0.000          -0.000
 -21856779.729 9 -17014493.33748  21016310.590    21016310.5214   21016316.1344
        -0.000          -0.000
 -35238270.185 9 -27195292.35649  19631635.574    19631635.1524   19631640.8544
        -0.000          -0.000
 97  3  7  2 45 59.9960000  0  6 30 17 24 10  6  5                  -0.003728137
 -35087454.142 9 -27322717.94049  19334677.725    19334678.0314   19334682.9444
        -0.000          -0.000
  -6462290.006 8  -5013930.79145  23218710.150    23218709.5924   23218716.8274
        -0.000          -0.000
 -28586496.190 9 -22253939.60247  21188663.202    21188663.1444   21188669.1024
        -0.000          -0.000
 -31634769.014 9 -24635653.17448  19855960.195    19855959.4954   19855965.4544
        -0.000          -0.000
 -21943359.462 9 -17081958.05448  20999835.030    20999834.9574   20999840.5214
        -0.000          -0.000
 -35208092.705 9 -27171777.44249  19637378.204    19637377.7964   19637383.4844
        -0.000          -0.000
 97  3  7  2 46 29.9960000  0  6 30 17 24 10  6  5                  -0.003742770
 -35118660.377 9 -27347034.49549  19328739.391    19328739.6824   19328744.6294
        -0.000          -0.000
  -6570544.844 8  -5098285.17345  23198109.848    23198109.3034   23198116.6274
        -0.000          -0.000
 -28537507.426 9 -22215766.54547  21197985.469    21197985.3804   21197991.3784
        -0.000          -0.000
 -31657415.307 9 -24653299.63148  19851650.748    19851650.0194   19851655.9954
        -0.000          -0.000
 -22029888.383 9 -17149383.17548  20983369.147    20983369.0464   20983374.6134
        -0.000          -0.000
 -35177431.137 9 -27147885.32349  19643212.899    19643212.4874   19643218.1854
        -0.000          -0.000
 97  3  7  2 46 59.9960000  0  6 30 17 24 10  6  5                  -0.003757377
 -35149287.318 9 -27370899.64649  19322911.260    19322911.5574   19322916.4924
        -0.000          -0.000
  -6678622.478 8  -5182501.46945  23177543.252    23177542.7414   23177550.1014
        -0.000          -0.000
 -28488402.983 9 -22177503.34547  21207329.724    21207329.6314   21207335.6464
        -0.000          -0.000
 -31679464.341 9 -24670480.68748  19847454.950    19847454.2244   19847460.1814
        -0.000          -0.000
 -22116349.501 9 -17216755.46348  20966916.149    20966916.0764   20966921.5964
        -0.000          -0.000
 -35146281.576 9 -27123612.94249  19649140.466    19649140.0634   19649145.7484
        -0.000          -0.000
 97  3  7  2 47 29.9960000  0  6 30 17 24 10  6  5                  -0.003771967
 -35179334.463 9 -27394313.00749  19317193.476    19317193.7854   19317198.7224
        -0.000          -0.000
  -6786526.137 9  -5266582.20845  23157009.874    23157009.2264   23157016.6154
        -0.000          -0.000
 -28439197.442 9 -22139161.36247  21216693.209    21216693.1394   21216699.1614
        -0.000          -0.000
 -31700921.458 9 -24687200.50648  19843371.777    19843371.0804   19843377.0204
        -0.000          -0.000
 -22202741.653 9 -17284074.00748  20950476.237    20950476.1674   20950481.7154
        -0.000          -0.000
 -35114644.448 9 -27098960.64149  19655160.810    19655160.3964   19655166.0944
        -0.000          -0.000
 97  3  7  2 47 59.9960000  0  6 30 17 24 10  6  5                  -0.003786570
 -35208809.156 9 -27417280.30849  19311584.625    19311584.9384   19311589.8794
        -0.000          -0.000
  -6894286.234 9  -5350551.08745  23136503.819    23136503.1724   23136510.4734
        -0.000          -0.000
 -28389916.548 9 -22100760.67147  21226071.049    21226070.9374   21226077.0004
        -0.000          -0.000
 -31721804.867 9 -24703473.28448  19839397.780    19839397.0714   19839403.0164
        -0.000          -0.000
 -22289069.746 9 -17351342.64448  20934048.516    20934048.4504   20934053.9824
        -0.000          -0.000
 -35082538.626 9 -27073943.13349  19661270.355    19661269.9464   19661275.6334
        -0.000          -0.000
 97  3  7  2 48 29.9960000  0  6 30 17 24 10  6  5                  -0.003801198
 -35237688.904 9 -27439784.01449  19306089.008    19306089.3224   19306094.2604
        -0.000          -0.000
  -7001901.588 9  -5434407.17345  23116025.180    23116024.6194   23116031.9804
        -0.000          -0.000
 -28340560.834 9 -22062301.68147  21235463.120    21235463.0054   21235469.0594
        -0.000          -0.000
 -31742113.207 9 -24719297.95948  19835533.252    19835532.5274   19835538.4824
        -0.000          -0.000
 -22375328.422 9 -17418557.19048  20917634.044    20917633.9734   20917639.5034
        -0.000          -0.000
 -35049966.131 9 -27048561.98149  19667468.689    19667468.2754   19667473.9894
        -0.000          -0.000
 97  3  7  2 48 59.9960000  0  6 30 17 24 10  6  5                  -0.003815854
 -35265955.619 9 -27461810.03249  19300710.014    19300710.3264   19300715.2714
        -0.000          -0.000
  -7109359.096 9  -5518140.27545  23095576.641    23095576.1154   23095583.3384
        -0.000          -0.000
 -28291149.074 9 -22023799.00747  21244865.881    21244865.7754   21244871.8074
        -0.000          -0.000
 -31761811.236 9 -24734647.06548  19831784.839    19831784.1124   19831790.0624
        -0.000          -0.000
 -22461521.551 9 -17485720.65548  20901232.004    20901231.9384   20901237.4644
        -0.000          -0.000
 -35016907.717 9 -27022802.18849  19673759.538    19673759.1204   19673764.8314
        -0.000          -0.000
 97  3  7  2 49 29.9960000  0  6 30 17 24 10  6  5                  -0.003830543
 -35293613.730 9 -27483361.81249  19295446.879    19295447.1704   19295452.1214
        -0.000          -0.000
  -7216658.237 9  -5601749.96745  23075158.317    23075157.7314   23075165.0694
        -0.000          -0.000
 -28241691.812 9 -21985260.88547  21254277.258    21254277.1504   21254283.2244
        -0.000          -0.000
 -31780898.742 9 -24749520.44048  19828152.533    19828151.8364   19828157.7864
        -0.000          -0.000
 -22547652.600 9 -17552835.75648  20884841.774    20884841.7054   20884847.2244
        -0.000          -0.000
 -34983348.938 9 -26996652.50149  19680145.566    19680145.1594   19680150.8694
        -0.000          -0.000
 97  3  7  2 49 59.9960000  0  6 30 17 24 10  6  5                  -0.003845270
 -35320651.727 9 -27504430.38549  19290301.695    19290302.0024   19290306.9384
        -0.000          -0.000
  -7323807.174 9  -5685242.61845  23054768.538    23054767.9074   23054775.2494
        -0.000          -0.000
 -28192180.084 9 -21946680.32247  21263698.982    21263698.9084   21263704.9794
        -0.000          -0.000
 -31799364.012 9 -24763908.95548  19824638.744    19824638.0394   19824644.0244
        -0.000          -0.000
 -22633719.619 9 -17619900.95548  20868463.753    20868463.7034   20868469.1914
        -0.000          -0.000
 -34949293.604 9 -26970115.88649  19686626.045    19686625.6434   19686631.3644
        -0.000          -0.000
 97  3  7  2 50 29.9960000  0  6 30 17 24 10  6  5                  -0.003860025
 -35347063.074 9 -27525010.66349  19285275.812    19285276.1114   19285281.0654
        -0.000          -0.000
  -7430788.175 9  -5768604.41246  23034410.831    23034410.1104   23034417.4724
        -0.000          -0.000
 -28142615.602 9 -21908058.64747  21273130.798    21273130.7084   21273136.8104
        -0.000          -0.000
 -31817200.073 9 -24777807.18148  19821244.632    19821243.9184   19821249.8974
        -0.000          -0.000
 -22719712.778 9 -17686908.60748  20852099.798    20852099.7524   20852105.2484
        -0.000          -0.000
 -34914740.449 9 -26943191.36249  19693201.308    19693200.9114   19693206.6224
        -0.000          -0.000
 97  3  7  2 50 59.9960000  0  6 30 17 24 10  6  5                  -0.003874787
 -35372843.291 9 -27545099.14849  19280369.987    19280370.2774   19280375.2274
        -0.000          -0.000
  -7537575.969 9  -5851815.66146  23014089.739    23014089.0584   23014096.3654
        -0.000          -0.000
 -28092978.179 9 -21869380.13747  21282576.453    21282576.3894   21282582.4814
        -0.000          -0.000
 -31834393.802 9 -24791204.88848  19817972.781    19817972.0734   19817978.0494
        -0.000          -0.000
 -22805600.999 9 -17753834.48648  20835755.761    20835755.7264   20835761.2604
        -0.000          -0.000
 -34879684.330 9 -26915874.92049  19699872.267    19699871.8634   19699877.5944
        -0.000          -0.000
 97  3  7  2 51 29.9960000  0  6 30 17 24 10  6  5                  -0.003889541
 -35398019.469 9 -27564716.95149  19275579.123    19275579.4244   19275584.3794
        -0.000          -0.000
  -7644173.266 9  -5934878.45146  22993804.917    22993804.2804   22993811.5504
        -0.000          -0.000
 -28043260.470 9 -21830639.06947  21292037.409    21292037.3794   21292043.4964
        -0.000          -0.000
 -31850979.313 9 -24804128.65748  19814816.656    19814815.9484   19814821.9424
        -0.000          -0.000
 -22891384.818 9 -17820679.01148  20819431.632    20819431.6174   20819437.1194
        -0.000          -0.000
 -34844151.082 9 -26888186.68749  19706633.995    19706633.5914   19706639.3104
        -0.000          -0.000
 97  3  7  2 51 59.9960000  0  6 30 17 24 10  6  5                  -0.003904277
 -35422608.531 9 -27583877.26549  19270899.973    19270900.2734   19270905.2354
        -0.000          -0.000
  -7750575.550 9  -6017789.30046  22973557.255    22973556.6174   22973563.8494
        -0.000          -0.000
 -27993467.865 9 -21791839.64647  21301512.693    21301512.5804   21301518.7074
        -0.000          -0.000
 -31866977.427 9 -24816594.71748  19811772.314    19811771.5964   19811777.5684
        -0.000          -0.000
 -22977071.034 9 -17887447.49048  20803126.101    20803126.0864   20803131.5854
        -0.000          -0.000
 -34808167.877 9 -26860147.83949  19713481.418    19713480.9914   19713486.7404
        -0.000          -0.000
 97  3  7  2 52 29.9960000  0  6 30 17 24 10  6  5                  -0.003918969
 -35446620.889 9 -27602588.19849  19266330.580    19266330.8574   19266335.8364
        -0.000          -0.000
  -7856758.444 9  -6100529.18646  22953351.387    22953350.7454   22953357.9144
        -0.000          -0.000
 -27943585.671 9 -21752970.40747  21311004.962    21311004.8884   21311010.9564
        -0.000          -0.000
 -31882392.786 9 -24828606.68248  19808838.849    19808838.1574   19808844.1434
        -0.000          -0.000
 -23062658.209 9 -17954138.78648  20786839.423    20786839.3814   20786844.8734
        -0.000          -0.000
 -34771722.166 9 -26831748.59849  19720416.787    19720416.3604   19720422.1034
        -0.000          -0.000
 97  3  7  2 52 59.9960000  0  6 30 17 24 10  6  5                  -0.003933627
 -35470085.149 9 -27620872.03849  19261865.483    19261865.7784   19261870.7394
        -0.000          -0.000
  -7962750.452 9  -6183120.34046  22933181.643    22933181.1194   22933188.2184
        -0.000          -0.000
 -27893630.416 9 -21714044.23447  21320511.164    21320511.0974   21320517.1534
        -0.000          -0.000
 -31897259.226 9 -24840190.91548  19806009.877    19806009.1654   19806015.1534
        -0.000          -0.000
 -23148178.156 9 -18020777.69648  20770565.524    20770565.4674   20770570.9474
        -0.000          -0.000
 -34734828.696 9 -26803000.45149  19727437.389    19727436.9894   19727442.7374
        -0.000          -0.000
 97  3  7  2 53 29.9960000  0  6 30 17 24 10  6  5                  -0.003948259
 -35492978.869 9 -27638711.30649  19257508.984    19257509.2744   19257514.2284
        -0.000          -0.000
  -8068549.849 9  -6265561.38946  22913048.718    22913048.0874   22913055.2594
        -0.000          -0.000
 -27843598.046 9 -21675057.98147  21330031.962    21330031.8864   21330037.9664
        -0.000          -0.000
 -31911576.788 9 -24851347.45748  19803285.341    19803284.6314   19803290.6124
        -0.000          -0.000
 -23233637.438 9 -18087369.34148  20754303.102    20754303.0754   20754308.5814
        -0.000          -0.000
 -34697471.435 9 -26773890.90549  19734546.255    19734545.8384   19734551.6114
        -0.000          -0.000
 97  3  7  2 53 59.9960000  0  6 30 17 24 10  6  5                  -0.003962882
 -35515271.583 9 -27656082.25849  19253266.826    19253267.1014   19253272.0574
        -0.000          -0.000
  -8174163.602 9  -6347857.79946  22892951.083    22892950.5104   22892957.6404
        -0.000          -0.000
 -27793491.352 9 -21636013.80647  21339566.969    21339566.8754   21339572.9834
        -0.000          -0.000
 -31925328.652 9 -24862063.19248  19800668.412    19800667.7234   19800673.6854
        -0.000          -0.000
 -23319036.953 9 -18153914.40948  20738052.131    20738052.1154   20738057.6064
        -0.000          -0.000
 -34659634.445 9 -26744407.54249  19741746.404    19741745.9844   19741751.7614
        -0.000          -0.000
 97  3  7  2 54 29.9960000  0  6 30 17 24 10  6  5                  -0.003977527
 -35536975.864 9 -27672994.69249  19249136.612    19249136.9204   19249141.8714
        -0.000          -0.000
  -8279617.965 9  -6430029.98446  22872883.721    22872883.1824   22872890.3194
        -0.000          -0.000
 -27743349.989 9 -21596942.61747  21349108.606    21349108.4804   21349114.6084
        -0.000          -0.000
 -31938522.190 9 -24872343.86948  19798157.777    19798157.0714   19798163.0444
        -0.000          -0.000
 -23404393.747 9 -18220426.19148  20721809.309    20721809.2604   20721814.7734
        -0.000          -0.000
 -34621330.756 9 -26714560.51749  19749035.359    19749034.9284   19749040.6994
        -0.000          -0.000
 97  3  7  2 54 59.9960000  0  6 30 17 24 10  6  5                  -0.003992198
 -35558070.899 9 -27689432.38749  19245122.365    19245122.6594   19245127.6284
        -0.000          -0.000
  -8384907.713 9  -6512073.91146  22852847.718    22852847.1534   22852854.3444
        -0.000          -0.000
 -27693169.981 9 -21557841.30647  21358657.495    21358657.4194   21358663.5674
        -0.000          -0.000
 -31951125.918 9 -24882164.94848  19795759.364    19795758.6614   19795764.6354
        -0.000          -0.000
 -23489683.527 9 -18286885.75148  20705579.145    20705579.1364   20705584.6604
        -0.000          -0.000
 -34582551.344 9 -26684342.80949  19756414.845    19756414.4194   19756420.1854
        -0.000          -0.000
 97  3  7  2 55 29.9960000  0  6 30 17 24 10  6  5                  -0.004006890
 -35578564.290 9 -27705401.26649  19241222.624    19241222.9194   19241227.8924
        -0.000          -0.000
  -8490031.871 9  -6593988.80446  22832843.170    22832842.6034   22832849.9064
        -0.000          -0.000
 -27642951.538 9 -21518710.05647  21368213.671    21368213.6144   21368219.7804
        -0.000          -0.000
 -31963121.040 9 -24891511.78948  19793476.768    19793476.0724   19793482.0254
        -0.000          -0.000
 -23574890.412 9 -18353280.71548  20689364.821    20689364.7814   20689370.3144
        -0.000          -0.000
 -34543308.998 9 -26653764.37249  19763882.434    19763882.0094   19763887.7754
        -0.000          -0.000
 97  3  7  2 55 59.9950000  0  6 30 17 24 10  6  5                  -0.004021598
 -35598474.320 9 -27720915.58549  19237433.869    19237434.1424   19237439.1614
        -0.000          -0.000
  -8594986.464 9  -6675771.57546  22812870.913    22812870.3394   22812877.7324
        -0.000          -0.000
 -27592703.962 9 -21479556.10247  21377775.495    21377775.4344   21377781.5744
        -0.000          -0.000
 -31974490.848 9 -24900371.37348  19791313.157    19791312.4504   19791318.4094
        -0.000          -0.000
 -23659997.880 9 -18419598.22048  20673169.377    20673169.3534   20673174.8964
        -0.000          -0.000
 -34503598.564 9 -26622821.19649  19771439.090    19771438.6584   19771444.4254
        -0.000          -0.000
